[[{"header":{"parameterUnit":"m.s-1","parameterCategory":1,"la1":30.6,"la2":28.766,"lo1":-90.7593,"lo2":-88.6598,"dy":0.0162,"dx":0.0183,"nx":116,"ny":114,"refTime":"2023-05-06T12:00:00:Z","depth":0,"parameterNumber":2,"parameterNumberName":"U-component_of_WINDS"},"data":[0.0,0.0,0.0,0.0,0.0,0.0,0.0,0.0,0.0,0.0,0.0,0.0,0.0,0.0,0.0,0.0,0.0,0.0,0.0,0.0,0.0,0.0,0.0,0.0,0.0,0.0,0.0,0.0,0.0,0.0,0.0,0.0,0.0,0.0,0.0,0.0,0.0,0.0,0.0,0.0,0.0,0.0,0.0,0.0,0.0,0.0,0.0,0.0,0.0,0.0,0.0,0.0,0.0,0.0,0.0,0.0,0.0,0.0,0.0,0.0,0.0,0.0,0.0,0.0,0.0,0.0,0.0,0.0,0.0,0.0,0.0,0.0,0.0,0.0,0.0,0.0,0.0,0.0,0.0,0.0,0.0,0.0,0.0,0.0,0.0,0.0,0.0,0.0,0.0,0.0,0.0,0.0,0.0,0.0,0.0,0.0,0.0,0.0,0.0,0.0,0.0,0.0,0.0,0.0,0.0,0.0,0.0,0.0,0.0,0.0,0.0,0.0,0.0,0.0,0.0,0.0,0.0,0.0,0.0,0.0,0.0,0.0,0.0,0.0,0.0,0.0,0.0,0.0,0.0,0.0,0.0,0.0,0.0,0.0,0.0,0.0,0.0,0.0,0.0,0.0,0.0,0.0,0.0,0.0,0.0,0.0,0.0,0.0,0.0,0.0,0.0,0.0,0.0,0.0,0.0,0.0,0.0,0.0,0.0,0.0,0.0,0.0,0.0,0.0,0.0,0.0,0.0,0.0,0.0,0.0,0.0,0.0,0.0,0.0,0.0,0.0,0.0,0.0,0.0,0.0,0.0,0.0,0.0,0.0,0.0,0.0,0.0,0.0,0.0,0.0,0.0,0.0,0.0,0.0,0.0,0.0,0.0,0.0,0.0,0.0,0.0,0.0,0.0,0.0,0.0,0.0,0.0,0.0,0.0,0.0,0.0,0.0,0.0,0.0,0.0,0.0,0.0,0.0,0.0,0.0,0.0,0.0,0.0,0.0,0.0,0.0,0.0,0.0,0.0,0.0,0.0,0.0,0.0,0.0,0.0,0.0,0.0,0.0,0.0,0.0,0.0,0.0,0.0,0.0,0.0,0.0,0.0,0.0,0.0,0.0,0.0,0.0,0.0,0.0,0.0,0.0,0.0,0.0,0.0,0.0,0.0,0.0,0.0,0.0,0.0,0.0,0.0,0.0,0.0,0.0,0.0,0.0,0.0,0.0,0.0,0.0,0.0,0.0,0.0,0.0,0.0,0.0,0.0,0.0,0.0,0.0,0.0,0.0,0.0,0.0,0.0,0.0,0.0,0.0,0.0,0.0,0.0,0.0,0.0,0.0,0.0,0.0,0.0,0.0,0.0,0.0,0.0,0.0,0.0,0.0,0.0,0.0,0.0,0.0,0.0,0.0,0.0,0.0,0.0,0.0,0.0,0.0,0.0,0.0,0.0,0.0,0.0,0.0,0.0,0.0,0.0,0.0,0.0,0.0,0.0,0.0,0.0,0.0,0.0,0.0,0.0,0.0,0.0,0.0,0.0,0.0,0.0,0.0,0.0,0.0,0.0,0.0,0.0,0.0,0.0,0.0,0.0,0.0,0.0,0.0,0.0,0.0,0.0,0.0,0.0,0.0,0.0,0.0,0.0,0.0,0.0,0.0,0.0,0.0,0.0,0.0,0.0,0.0,0.0,0.0,0.0,0.0,0.0,0.0,0.0,0.0,0.0,0.0,0.0,0.0,0.0,0.0,0.0,0.0,0.0,0.0,0.0,0.0,0.0,0.0,0.0,0.0,0.0,0.0,0.0,0.0,0.0,0.0,0.0,0.0,0.0,0.0,0.0,0.0,0.0,0.0,0.0,0.0,0.0,0.0,0.0,0.0,0.0,0.0,0.0,0.0,0.0,0.0,0.0,0.0,0.0,0.0,0.0,0.0,0.0,0.0,0.0,0.0,0.0,0.0,0.0,0.0,0.0,0.0,0.0,0.0,0.0,0.0,0.0,0.0,0.0,0.0,0.0,0.0,0.0,0.0,0.0,0.0,0.0,0.0,0.0,0.0,0.0,0.0,0.0,0.0,0.0,0.0,0.0,0.0,0.0,0.0,0.0,0.0,0.0,0.0,0.0,0.0,0.0,0.0,0.0,0.0,0.0,0.0,0.0,0.0,0.0,0.0,0.0,0.0,0.0,0.0,0.0,0.0,0.0,0.0,0.0,0.0,0.0,0.0,0.0,0.0,0.0,0.0,0.0,0.0,0.0,0.0,0.0,0.0,0.0,0.0,0.0,0.0,0.0,0.0,0.0,0.0,0.0,0.0,0.0,0.0,0.0,0.0,0.0,0.0,0.0,0.0,0.0,0.0,0.0,0.0,0.0,0.0,0.0,0.0,0.0,0.0,0.0,0.0,0.0,0.0,0.0,0.0,0.0,0.0,0.0,0.0,0.0,0.0,0.0,0.0,0.0,0.0,0.0,0.0,0.0,0.0,0.0,0.0,0.0,0.0,0.0,0.0,0.0,0.0,0.0,0.0,0.0,0.0,0.0,0.0,0.0,0.0,0.0,0.0,0.0,0.0,0.0,0.0,0.0,0.0,0.0,0.0,0.0,0.0,0.0,0.0,0.0,0.0,0.0,0.0,0.0,0.0,0.0,0.0,0.0,0.0,0.0,0.0,0.0,0.0,0.0,0.0,0.0,0.0,0.0,0.0,0.0,0.0,0.0,0.0,0.0,0.0,0.0,0.0,0.0,0.0,0.0,0.0,0.0,0.0,0.0,0.0,0.0,0.0,0.0,0.0,0.0,0.0,0.0,0.0,0.0,0.0,0.0,0.0,0.0,0.0,0.0,0.0,0.0,0.0,0.0,0.0,0.0,0.0,0.0,0.0,0.0,0.0,0.0,0.0,0.0,0.0,0.0,0.0,0.0,0.0,0.0,0.0,0.0,0.0,0.0,0.0,0.0,0.0,0.0,0.0,0.0,0.0,0.0,0.0,0.0,0.0,0.0,0.0,0.0,0.0,0.0,0.0,0.0,0.0,0.0,0.0,0.0,0.0,0.0,0.0,0.0,0.0,0.0,0.0,0.0,0.0,0.0,0.0,0.0,0.0,0.0,0.0,0.0,0.0,0.0,0.0,0.0,0.0,0.0,0.0,0.0,0.0,0.0,0.0,0.0,0.0,0.0,0.0,0.0,0.0,0.0,0.0,0.0,0.0,0.0,0.0,0.0,0.0,0.0,0.0,0.0,0.0,0.0,0.0,0.0,0.0,0.0,0.0,0.0,0.0,0.0,0.0,0.0,0.0,0.0,0.0,0.0,0.0,0.0,0.0,0.0,0.0,0.0,0.0,0.0,0.0,0.0,0.0,0.0,0.0,0.0,0.0,0.0,0.0,0.0,0.0,0.0,0.0,0.0,0.0,0.0,0.0,0.0,0.0,0.0,0.0,0.0,0.0,0.0,0.0,0.0,0.0,0.0,0.0,0.0,0.0,0.0,0.0,0.0,0.0,0.0,0.0,0.0,0.0,0.0,0.0,0.0,0.0,0.0,0.0,0.0,0.0,0.0,0.0,0.0,0.0,0.0,0.0,0.0,0.0,0.0,0.0,0.0,0.0,0.0,0.0,0.0,0.0,0.0,0.0,0.0,0.0,0.0,0.0,0.0,0.0,0.0,0.0,0.0,0.0,0.0,0.0,0.0,0.0,0.0,0.0,0.0,0.0,0.0,0.0,0.0,0.0,0.0,0.0,0.0,0.0,0.0,0.0,0.0,0.0,0.0,0.0,0.0,0.0,0.0,0.0,0.0,0.0,0.0,0.0,0.0,0.0,0.0,0.0,0.0,0.0,0.0,0.0,0.0,0.0,0.0,0.0,0.0,0.0,0.0,0.0,0.0,0.0,0.0,0.0,0.0,0.0,0.0,0.0,0.0,0.0,0.0,0.0,0.0,0.0,0.0,0.0,0.0,0.0,0.0,0.0,0.0,0.0,0.0,0.0,0.0,0.0,0.0,0.0,0.0,0.0,0.0,0.0,0.0,0.0,0.0,0.0,0.0,0.0,0.0,0.0,0.0,0.0,0.0,0.0,0.0,0.0,0.0,0.0,0.0,0.0,0.0,0.0,0.0,0.0,0.0,0.0,0.0,0.0,0.0,0.0,0.0,0.0,0.0,0.0,0.0,0.0,0.0,0.0,0.0,0.0,0.0,0.0,0.0,0.0,0.0,0.0,0.0,0.0,0.0,0.0,0.0,0.0,0.0,0.0,0.0,0.0,0.0,0.0,0.0,0.0,0.0,0.0,0.0,0.0,0.0,0.0,0.0,0.0,0.0,0.0,0.0,0.0,0.0,0.0,0.0,0.0,0.0,0.0,0.0,0.0,0.0,0.0,0.0,0.0,0.0,0.0,0.0,0.0,0.0,0.0,0.0,0.0,0.0,0.0,0.0,0.0,0.0,0.0,0.0,0.0,0.0,0.0,0.0,0.0,0.0,0.0,0.0,0.0,0.0,0.0,0.0,0.0,0.0,0.0,0.0,0.0,0.0,0.0,0.0,0.0,0.0,0.0,0.0,0.0,0.0,0.0,0.0,0.0,0.0,0.0,0.0,0.0,0.0,0.0,0.0,0.0,0.0,0.0,0.0,0.0,0.0,0.0,0.0,0.0,0.0,0.0,0.0,0.0,0.0,0.0,0.0,0.0,0.0,0.0,0.0,0.0,0.0,0.0,0.0,0.0,0.0,0.0,0.0,0.0,0.0,0.0,0.0,0.0,0.0,0.0,0.0,0.0,0.0,0.0,0.0,0.0,0.0,0.0,0.0,0.0,0.0,0.0,0.0,0.0,0.0,0.0,0.0,0.0,0.0,0.0,0.0,0.0,0.0,0.0,0.0,0.0,0.0,0.0,0.0,0.0,0.0,0.0,0.0,0.0,0.0,0.0,0.0,0.0,0.0,0.0,0.0,0.0,0.0,0.0,0.0,0.0,0.0,0.0,0.0,0.0,0.0,0.0,0.0,0.0,0.0,0.0,0.0,0.0,0.0,0.0,0.0,0.0,0.0,0.0,0.0,0.0,0.0,0.0,0.0,0.0,0.0,0.0,0.0,0.0,0.0,0.0,0.0,0.0,0.0,0.0,0.0,0.0,0.0,0.0,0.0,0.0,0.0,0.0,0.0,0.0,0.0,0.0,0.0,0.0,0.0,0.0,0.0,0.0,0.0,0.0,0.0,0.0,0.0,0.0,0.0,0.0,0.0,0.0,0.0,0.0,0.0,0.0,0.0,0.0,0.0,0.0,0.0,0.0,0.0,0.0,0.0,0.0,0.0,0.0,0.0,0.0,0.0,0.0,0.0,0.0,0.0,0.0,0.0,0.0,0.0,0.0,0.0,0.0,0.0,0.0,0.0,0.0,0.0,0.0,0.0,0.0,0.0,0.0,0.0,0.0,0.0,0.0,0.0,0.0,0.0,0.0,0.0,0.0,0.0,0.0,0.0,0.0,0.0,0.0,0.0,0.0,0.0,0.0,0.0,0.0,0.0,0.0,0.0,0.0,0.0,0.0,0.0,0.0,0.0,0.0,0.0,0.0,0.0,0.0,0.0,0.0,0.0,0.0,0.0,0.0,0.0,0.0,0.0,0.0,0.0,0.0,0.0,0.0,0.0,0.0,0.0,0.0,0.0,0.0,0.0,0.0,0.0,0.0,0.0,0.0,0.0,0.0,0.0,0.0,0.0,0.0,0.0,0.0,0.0,0.0,0.0,0.0,0.0,0.0,0.0,0.0,0.0,0.0,0.0,0.0,0.0,0.0,0.0,0.0,0.0,0.0,0.0,0.0,0.0,0.0,0.0,0.0,0.0,0.0,0.0,0.0,0.0,0.0,0.0,0.0,0.0,0.0,0.0,0.0,0.0,0.0,0.0,0.0,0.0,0.0,0.0,0.0,0.0,0.0,0.0,0.0,0.0,0.0,0.0,0.0,0.0,0.0,0.0,0.0,0.0,0.0,0.0,0.0,0.0,0.0,0.0,0.0,0.0,0.0,0.0,0.0,0.0,0.0,0.0,0.0,0.0,0.0,0.0,0.0,0.0,0.0,0.0,0.0,0.0,0.0,0.0,0.0,0.0,0.0,0.0,0.0,-2.2584,-2.201,0.0,0.0,0.0,0.0,0.0,0.0,0.0,0.0,0.0,0.0,0.0,0.0,0.0,0.0,0.0,0.0,0.0,0.0,0.0,0.0,0.0,0.0,0.0,0.0,0.0,0.0,0.0,0.0,0.0,0.0,0.0,0.0,0.0,0.0,0.0,0.0,0.0,0.0,0.0,0.0,0.0,0.0,0.0,0.0,0.0,0.0,0.0,0.0,0.0,0.0,0.0,0.0,0.0,0.0,0.0,0.0,0.0,0.0,0.0,0.0,0.0,0.0,0.0,0.0,0.0,0.0,0.0,0.0,0.0,0.0,0.0,0.0,0.0,0.0,0.0,0.0,0.0,0.0,0.0,0.0,0.0,0.0,0.0,0.0,0.0,0.0,0.0,0.0,0.0,0.0,0.0,0.0,0.0,0.0,0.0,0.0,0.0,0.0,0.0,0.0,0.0,0.0,0.0,0.0,0.0,0.0,0.0,0.0,0.0,0.0,0.0,0.0,0.0,0.0,-2.3082,-2.2644,0.0,0.0,0.0,0.0,0.0,0.0,0.0,0.0,0.0,0.0,0.0,0.0,0.0,0.0,0.0,0.0,0.0,0.0,0.0,0.0,0.0,0.0,0.0,0.0,0.0,0.0,0.0,0.0,0.0,0.0,0.0,0.0,0.0,0.0,0.0,0.0,0.0,0.0,0.0,0.0,0.0,0.0,0.0,0.0,0.0,0.0,0.0,0.0,0.0,0.0,0.0,0.0,0.0,0.0,0.0,0.0,0.0,0.0,0.0,0.0,0.0,0.0,0.0,0.0,0.0,0.0,0.0,0.0,0.0,0.0,0.0,0.0,0.0,0.0,0.0,0.0,0.0,0.0,0.0,0.0,0.0,0.0,0.0,0.0,0.0,0.0,0.0,0.0,0.0,0.0,0.0,0.0,0.0,0.0,0.0,0.0,0.0,0.0,0.0,0.0,0.0,0.0,0.0,0.0,0.0,0.0,0.0,0.0,-2.5164,-2.502,-2.4969,-2.4696,-2.4412,-2.4049,-2.3767,-2.3372,-2.298,-2.215,0.0,0.0,0.0,0.0,0.0,0.0,0.0,0.0,0.0,0.0,0.0,0.0,0.0,0.0,0.0,0.0,0.0,0.0,0.0,0.0,0.0,0.0,-2.1496,-2.1423,-2.0957,-2.0684,0.0,0.0,0.0,0.0,0.0,0.0,0.0,0.0,0.0,0.0,0.0,-1.9365,-1.9067,-1.9026,-1.9022,-1.9055,-1.933,0.0,0.0,0.0,0.0,0.0,0.0,0.0,0.0,0.0,0.0,0.0,0.0,0.0,0.0,0.0,0.0,0.0,0.0,0.0,0.0,0.0,0.0,0.0,0.0,0.0,0.0,0.0,0.0,0.0,0.0,0.0,0.0,0.0,0.0,0.0,0.0,0.0,0.0,0.0,0.0,0.0,0.0,0.0,-2.849,-2.8931,0.0,0.0,0.0,0.0,0.0,0.0,0.0,0.0,0.0,0.0,0.0,0.0,0.0,-2.6598,-2.6393,-2.5619,-2.5264,-2.5313,-2.4794,-2.4594,-2.4594,-2.4533,-2.4506,-2.4453,-2.4396,0.0,-2.3048,-2.2321,0.0,0.0,0.0,0.0,0.0,0.0,0.0,0.0,0.0,0.0,0.0,0.0,0.0,0.0,0.0,0.0,0.0,0.0,0.0,0.0,0.0,-2.1423,-2.1106,-2.0957,-2.0673,-2.0472,-2.0372,0.0,0.0,0.0,0.0,0.0,0.0,0.0,0.0,0.0,-1.9463,-1.9385,-1.9388,-1.9296,-1.9574,-2.0124,-2.0348,-2.0107,-1.9495,-1.979,0.0,0.0,0.0,0.0,0.0,0.0,0.0,0.0,0.0,0.0,0.0,0.0,0.0,0.0,0.0,0.0,0.0,0.0,0.0,0.0,0.0,0.0,0.0,0.0,0.0,0.0,0.0,0.0,0.0,0.0,0.0,0.0,0.0,0.0,0.0,0.0,0.0,0.0,0.0,-2.9096,-2.9325,-2.9368,-2.9152,-2.8876,0.0,0.0,0.0,0.0,0.0,0.0,0.0,0.0,0.0,-2.6645,-2.6553,-2.6554,-2.648,-2.5745,-2.5547,-2.5764,-2.5164,-2.4886,-2.4886,-2.4741,-2.4696,-2.4678,-2.4452,-2.4123,-2.3712,-2.3267,-2.289,-2.247,0.0,0.0,0.0,0.0,-2.129,-2.115,0.0,0.0,0.0,0.0,0.0,0.0,0.0,0.0,0.0,0.0,0.0,0.0,-2.1399,-2.1057,-2.0813,-2.0692,-2.0515,-2.0425,-2.0435,0.0,0.0,0.0,0.0,0.0,0.0,0.0,0.0,-1.973,-1.9749,-1.9805,-1.9928,-1.9942,-2.0358,-2.108,-2.1239,-2.0851,-2.0104,-2.03,-2.0784,0.0,0.0,0.0,0.0,0.0,0.0,0.0,0.0,0.0,0.0,0.0,0.0,0.0,0.0,0.0,0.0,0.0,0.0,0.0,0.0,0.0,0.0,0.0,0.0,0.0,0.0,0.0,0.0,0.0,0.0,0.0,0.0,0.0,0.0,0.0,0.0,0.0,0.0,-2.9887,-2.9884,-2.9457,-2.9279,-2.9056,0.0,0.0,0.0,0.0,0.0,0.0,-2.8376,-2.7864,-2.7414,-2.7075,-2.6802,-2.6701,-2.67,-2.6163,-2.598,-2.6322,-2.5693,-2.5358,-2.5358,-2.5151,-2.5104,-2.5039,-2.474,-2.4612,-2.4598,-2.407,-2.3658,-2.3377,-2.2979,-2.2641,-2.2348,-2.2085,-2.1889,-2.1749,0.0,0.0,0.0,0.0,0.0,0.0,0.0,0.0,0.0,0.0,0.0,-2.152,-2.1229,-2.0747,-2.0566,-2.095,-2.0629,-2.0598,-2.112,-2.1029,-2.0957,0.0,0.0,0.0,0.0,0.0,0.0,-2.0059,-2.0902,-2.1141,-2.0829,-2.1299,-2.1505,-2.1583,-2.1757,-2.1886,-2.2003,-2.2298,-2.2681,-2.3119,0.0,0.0,0.0,0.0,0.0,0.0,0.0,0.0,0.0,0.0,0.0,0.0,0.0,0.0,0.0,0.0,0.0,0.0,0.0,0.0,0.0,0.0,0.0,0.0,0.0,0.0,0.0,0.0,0.0,0.0,0.0,0.0,0.0,0.0,0.0,0.0,0.0,0.0,0.0,-2.9468,-3.0045,0.0,0.0,0.0,0.0,-2.9063,-2.8705,-2.8316,-2.7854,-2.7908,-2.7721,-2.7232,-2.7634,-2.7796,-2.7567,-2.7047,-2.6844,-2.6862,-2.6163,-2.5883,-2.5883,-2.5825,-2.5825,-2.5825,-2.5799,-2.5791,-2.5737,-2.4302,-2.3675,-2.3658,-2.3288,-2.3165,-2.3095,-2.2838,-2.2732,-2.2732,0.0,0.0,0.0,0.0,0.0,0.0,0.0,0.0,0.0,-2.2324,-2.1722,-2.1401,-2.1502,-2.094,-2.0749,-2.1279,-2.0986,-2.0878,-2.1075,-2.1031,-2.1002,0.0,0.0,0.0,0.0,0.0,-2.1677,-2.1562,-2.1756,-2.1731,-2.1537,-2.1713,-2.1956,-2.2242,-2.2455,-2.299,-2.37,-2.2832,-2.2696,-2.3034,-2.3416,-2.3715,0.0,0.0,0.0,0.0,0.0,0.0,0.0,0.0,0.0,0.0,0.0,0.0,0.0,0.0,0.0,0.0,0.0,0.0,0.0,0.0,0.0,0.0,0.0,0.0,0.0,0.0,0.0,0.0,0.0,0.0,0.0,0.0,0.0,0.0,0.0,0.0,0.0,-3.04,-3.0668,0.0,-2.9985,-2.9759,-2.96,-2.9467,-2.8859,-2.8573,-2.8649,-2.8605,-2.8423,-2.8045,-2.8317,-2.8277,-2.8014,-2.7425,-2.7088,-2.6916,-2.6446,-2.6099,-2.5876,-2.5876,-2.5876,-2.5876,-2.5876,-2.576,-2.5535,-2.5003,-2.456,-2.4111,-2.3478,-2.3137,-2.2893,-2.2626,-2.2527,-2.2518,0.0,0.0,0.0,0.0,0.0,0.0,0.0,0.0,0.0,-2.2254,-2.1828,-2.1586,-2.1641,-2.1204,-2.1084,-2.1549,-2.1313,-2.1226,-2.1397,-2.135,0.0,0.0,-2.1662,0.0,0.0,-2.2385,-2.2407,-2.24,-2.2432,-2.2372,-2.2254,-2.2588,-2.2911,-2.3212,-2.3562,-2.4197,-2.4865,-2.3902,-2.3695,-2.3979,-2.4225,-2.4471,-2.4713,0.0,0.0,0.0,0.0,0.0,0.0,0.0,0.0,0.0,0.0,0.0,0.0,0.0,0.0,0.0,0.0,0.0,0.0,0.0,0.0,0.0,0.0,0.0,0.0,0.0,0.0,0.0,0.0,0.0,0.0,0.0,0.0,0.0,0.0,-3.1306,-3.1483,-3.1003,-3.11,-3.0978,-3.0252,-3.0006,-2.9878,-2.9786,-2.9372,-2.9157,-2.9343,-2.9288,-2.9095,-2.8718,-2.8841,-2.871,-2.8424,-2.794,-2.7548,-2.7257,-2.6947,-2.6596,-2.6319,-2.6319,-2.6319,-2.6319,-2.6202,-2.6016,-2.5763,-2.5469,-2.502,-2.4539,-2.3809,-2.3425,-2.3157,-2.2762,-2.2604,-2.2604,0.0,0.0,0.0,0.0,0.0,0.0,0.0,0.0,-2.2904,-2.2301,-2.2259,-2.2116,-2.159,-2.1535,-2.1618,-2.1817,-2.1595,-2.1644,-2.2161,-2.1999,0.0,0.0,0.0,0.0,-2.2248,-2.2679,-2.2753,-2.2445,-2.2921,-2.3088,-2.2992,-2.397,-2.443,-2.4453,-2.514,-2.5406,-2.5456,-2.5661,-2.5866,-2.6043,-2.6008,-2.6215,-2.6562,0.0,0.0,0.0,0.0,0.0,0.0,0.0,0.0,0.0,0.0,0.0,0.0,0.0,0.0,0.0,0.0,0.0,0.0,0.0,0.0,0.0,0.0,0.0,0.0,0.0,0.0,0.0,0.0,0.0,0.0,0.0,0.0,0.0,-3.169,-3.195,-3.1849,-3.1131,-3.1435,-3.1291,-3.0248,-3.0521,-3.0589,-3.0067,-3.0153,-3.013,-2.987,-2.9973,-2.9767,-2.9151,-2.9279,-2.9152,-2.8844,-2.8614,-2.8328,-2.802,-2.7702,-2.7349,-2.7133,-2.7073,-2.7073,-2.7073,-2.6761,-2.6571,-2.6485,-2.5531,-2.5084,-2.5019,-2.4306,-2.3974,-2.3925,-2.3286,-2.3046,-2.303,0.0,0.0,0.0,0.0,0.0,0.0,0.0,-2.3516,-2.3061,-2.2555,-2.238,-2.2289,-2.2233,-2.2137,-2.2164,-2.2437,-2.2232,-2.2152,-2.2216,-2.1999,0.0,0.0,0.0,0.0,-2.3259,-2.3271,-2.3408,-2.3704,-2.4061,-2.4226,-2.42,-2.4846,-2.5152,-2.5152,-2.5492,-2.5833,-2.6216,-2.6255,-2.6513,-2.6829,-2.6248,-2.6062,-2.6153,0.0,0.0,0.0,0.0,0.0,0.0,0.0,0.0,0.0,0.0,0.0,0.0,0.0,0.0,0.0,0.0,0.0,0.0,0.0,0.0,0.0,0.0,0.0,0.0,0.0,0.0,0.0,0.0,0.0,0.0,0.0,-3.1891,-3.2439,-3.2043,-3.2248,-3.2185,-3.1562,-3.1939,-3.1939,-3.0984,-3.1155,-3.1159,-3.0799,-3.0722,-3.0707,-3.0598,-3.0544,-3.0455,-3.0285,-3.0171,-2.9927,-2.9576,-2.9335,-2.8925,-2.8337,-2.802,-2.7711,-2.7409,-2.7185,-2.7073,-2.7073,-2.6761,-2.6449,-2.6197,-2.568,-2.5335,-2.5019,-2.4367,-2.4087,-2.4079,-2.3867,-2.361,-2.3306,0.0,0.0,0.0,0.0,0.0,0.0,0.0,-2.3732,-2.3326,-2.2791,-2.2895,-2.2949,-2.2764,-2.294,-2.3052,-2.3017,-2.2757,-2.2512,-2.2309,0.0,0.0,0.0,0.0,-2.2982,-2.3548,-2.3696,-2.3902,-2.42,-2.4571,-2.4773,-2.4796,-2.5527,-2.5869,-2.588,-2.6176,-2.6508,-2.6783,-2.6783,-2.6955,-2.7174,-2.6708,-2.6505,-2.6482,-2.6485,-2.6546,-2.6638,-2.6655,-2.652,-2.6405,-2.6602,0.0,0.0,0.0,0.0,0.0,0.0,0.0,0.0,0.0,0.0,0.0,0.0,0.0,0.0,0.0,0.0,0.0,0.0,0.0,0.0,0.0,0.0,0.0,0.0,-3.2276,-3.2841,-3.264,-3.2736,-3.2674,-3.2239,-3.2375,-3.2279,-3.1769,-3.1653,-3.1583,-3.1421,-3.148,-3.1453,-3.1232,-3.1164,-3.1072,-3.0958,-3.0606,-3.0216,-2.9922,-2.9618,-2.9153,-2.8526,-2.8148,-2.7831,-2.7521,-2.7246,-2.7073,-2.7073,-2.6571,-2.6258,-2.6075,-2.5602,-2.5296,-2.5056,0.0,0.0,0.0,0.0,-2.3927,-2.3729,0.0,0.0,0.0,0.0,0.0,0.0,0.0,-2.3994,-2.3653,-2.3068,-2.3535,-2.3766,-2.3265,-2.3722,-2.3949,-2.3539,-2.3198,-2.2836,0.0,0.0,0.0,-2.2271,-2.3006,-2.3442,-2.3488,-2.3971,-2.42,-2.42,-2.474,-2.5004,-2.5027,-2.6071,-2.6593,-2.6605,-2.7024,-2.719,-2.719,-2.719,-2.719,-2.719,-2.719,-2.719,-2.7185,-2.6863,-2.6769,-2.6751,-2.6519,-2.6397,-2.6388,-2.6591,0.0,0.0,0.0,0.0,0.0,0.0,0.0,0.0,0.0,0.0,0.0,0.0,0.0,0.0,0.0,0.0,0.0,0.0,0.0,0.0,0.0,0.0,0.0,0.0,-3.2609,-3.3021,-3.3273,-3.3281,-3.3181,-3.2942,-3.2667,-3.2492,-3.2444,-3.2184,-3.203,-3.1992,-3.2356,-3.234,-3.1815,-3.1805,0.0,0.0,0.0,-3.0333,-2.9922,-2.9686,-2.9213,-2.8576,-2.8208,-2.7831,-2.7581,-2.7246,-2.7073,-2.7073,-2.638,-2.6075,-2.6075,-2.5349,-2.5111,-2.5079,-2.4762,-2.4642,-2.4595,-2.4305,-2.4169,-2.4161,0.0,0.0,0.0,0.0,0.0,0.0,0.0,-2.439,-2.403,-2.353,-2.3595,-2.3684,-2.3735,-2.3905,-2.4059,-2.4108,-2.3813,-2.328,0.0,0.0,-2.2692,-2.2771,-2.3179,-2.3602,-2.4039,-2.4143,-2.42,-2.42,-2.5107,-2.5566,-2.5578,-2.66,-2.7041,-2.7082,-2.7144,-2.719,-2.719,-2.719,-2.719,-2.719,-2.719,-2.719,-2.7179,-2.7116,-2.7122,-2.7099,-2.7226,-2.7004,-2.6655,-2.6913,-2.6638,-2.6229,-2.6229,0.0,0.0,0.0,0.0,0.0,0.0,0.0,0.0,0.0,0.0,0.0,0.0,0.0,0.0,0.0,0.0,0.0,0.0,0.0,0.0,-3.245,-3.2886,-3.3227,-3.3269,-3.3281,-3.3181,-3.2942,-3.283,-3.2819,-3.2745,-3.2763,-3.2868,-3.3006,-3.3064,-3.3,-3.2886,-3.2436,-3.2076,-3.173,-3.1325,-3.0743,-2.9931,-2.9863,-2.9509,-2.8925,-2.8259,0.0,-2.79,-2.7366,-2.7073,-2.7073,-2.638,-2.6075,-2.6075,-2.5349,-2.5111,-2.5103,-2.5032,-2.5008,-2.496,-2.4611,-2.4476,-2.4436,0.0,0.0,0.0,0.0,0.0,0.0,0.0,-2.4795,-2.4472,-2.4114,-2.4171,-2.4197,-2.4024,-2.4399,-2.4571,-2.4378,-2.4008,0.0,0.0,-2.3098,-2.323,-2.3056,-2.3618,-2.4019,-2.4189,-2.42,-2.42,-2.42,-2.521,-2.5716,-2.5739,-2.6709,-2.719,-2.719,-2.719,-2.719,-2.719,-2.719,-2.719,-2.719,-2.719,-2.719,-2.719,-2.719,-2.719,-2.7231,-2.7301,-2.7169,-2.6961,-2.7093,-2.6825,-2.6384,-2.6384,-2.6209,-2.6012,0.0,0.0,0.0,0.0,0.0,0.0,0.0,0.0,0.0,0.0,0.0,0.0,0.0,0.0,-3.0894,-3.1483,0.0,-3.2647,-3.2538,-3.2937,-3.3281,-3.3281,-3.3281,-3.3231,-3.3142,-3.2992,-3.2972,-3.32,-3.3221,-3.3332,-3.3529,-3.3471,-3.3353,-3.3193,-3.2602,-3.2133,-3.1787,-3.1441,-3.0918,-3.0157,-2.9981,-2.9686,-2.9213,-2.8567,-2.8148,-2.796,-2.7539,-2.7246,-2.7073,-2.638,-2.6075,-2.6075,-2.5349,-2.5111,-2.5111,-2.5111,-2.5111,-2.5087,-2.4913,-2.4841,-2.4817,0.0,0.0,0.0,0.0,0.0,0.0,0.0,0.0,0.0,-2.4645,-2.4758,-2.4736,-2.4365,-2.4844,-2.5018,-2.4579,0.0,0.0,0.0,-2.37,-2.3779,-2.3337,-2.4073,-2.4418,-2.4273,-2.4236,-2.42,-2.42,-2.5107,-2.5612,-2.5739,-2.6645,-2.7087,-2.719,-2.719,-2.719,-2.719,-2.719,-2.719,-2.719,-2.719,-2.719,-2.719,-2.7219,-2.7231,-2.719,-2.719,-2.719,-2.719,-2.719,-2.6955,-2.6651,-2.6651,-2.6335,-2.6003,-2.6003,-2.6131,0.0,0.0,0.0,0.0,0.0,0.0,0.0,0.0,-2.8724,-2.9183,-2.9929,-3.0508,-3.1067,-3.1727,-3.2305,-3.2638,-3.2638,-3.3005,-3.3281,-3.3281,-3.3281,-3.3281,-3.3281,-3.3081,-3.3123,-3.3549,-3.3511,-3.3566,-3.3868,-3.3609,-3.3427,-3.3296,-3.2716,-3.2201,-3.1787,-3.1556,-3.1092,-3.0392,-3.0098,-2.9745,-2.9499,-2.8815,-2.8328,-2.802,-2.7642,-2.7349,-2.7073,-2.638,-2.6014,-2.5831,-2.5349,-2.5111,-2.5111,-2.5111,-2.5111,-2.5111,-2.5111,-2.5111,-2.5111,0.0,0.0,0.0,0.0,0.0,0.0,0.0,0.0,0.0,-2.5088,-2.4898,-2.488,-2.5065,-2.4904,-2.4849,0.0,0.0,0.0,-2.3771,-2.4098,-2.4141,-2.367,-2.4179,-2.4502,-2.4454,-2.4309,-2.42,-2.42,-2.474,-2.5245,-2.5727,-2.629,-2.6795,-2.719,-2.719,-2.719,-2.719,-2.719,-2.719,-2.719,-2.719,-2.719,-2.7231,-2.7412,-2.7371,-2.719,-2.719,-2.719,-2.719,-2.719,-2.7156,-2.711,-2.711,-2.7064,-2.7018,-2.7018,-2.7059,-2.7174,-2.772,-2.8099,-2.8441,-2.8932,-2.8846,-2.8903,0.0,-2.9976,-3.0166,-3.0659,-3.1393,-3.195,-3.2056,-3.2697,-3.3201,-3.3201,-3.3247,-3.3281,-3.3281,-3.3281,-3.3281,-3.3281,-3.3281,-3.3325,-3.36,-3.3393,-3.3506,-3.4096,-3.3396,-3.3122,-3.3547,-3.2955,-3.2373,-3.1845,-3.1787,-3.1325,-3.0382,-3.0098,-2.9745,-2.9499,-2.8815,-2.8328,-2.802,-2.7642,-2.7349,-2.7073,-2.638,-2.577,-2.5234,-2.5103,-2.5111,-2.5111,-2.5111,-2.5111,-2.5111,-2.5111,-2.5111,-2.5111,0.0,0.0,0.0,0.0,0.0,0.0,0.0,0.0,0.0,0.0,0.0,-2.5226,-2.5152,-2.5302,-2.5478,0.0,0.0,0.0,-2.4498,-2.4611,-2.4526,-2.4186,-2.4458,-2.4684,-2.4778,-2.4622,-2.4538,-2.4538,-2.5026,-2.5301,-2.5419,-2.5939,-2.6258,-2.6347,-2.6347,-2.6347,-2.6347,-2.6347,-2.6386,-2.654,-2.6828,-2.7035,-2.719,-2.7602,-2.7679,-2.7598,-2.7598,-2.7598,0.0,0.0,-2.7505,-2.7371,-2.7371,-2.7301,-2.719,-2.719,-2.7438,-2.7798,-2.8448,-2.8726,-2.8833,-2.906,-2.9235,-2.9464,-2.9722,-2.9984,-3.0385,-3.1018,-3.1421,-3.1804,-3.2456,-3.2833,-3.3142,-3.3281,-3.3281,-3.3281,-3.3281,-3.3281,-3.3281,-3.3281,-3.3281,-3.3311,-3.3417,-3.3436,-3.3454,-3.3607,-3.3213,-3.305,-3.3189,-3.2763,-3.2323,-3.1835,-3.1787,-3.1441,-3.0704,-3.0167,-2.9863,-2.9745,-2.9103,-2.8507,-2.802,-2.7831,-2.7349,-2.651,-2.6197,-2.5709,-2.5111,-2.5111,-2.5111,-2.5111,-2.5111,-2.5111,-2.5111,-2.5111,-2.5111,-2.5111,0.0,0.0,0.0,0.0,0.0,0.0,0.0,0.0,0.0,0.0,0.0,0.0,0.0,0.0,0.0,0.0,0.0,0.0,0.0,-2.5146,-2.5018,-2.4789,-2.4867,-2.5022,-2.5252,-2.5087,-2.4992,-2.4957,-2.5203,-2.5341,-2.5382,-2.5704,-2.5846,-2.5858,-2.5858,-2.5858,-2.5858,-2.5858,-2.5935,-2.6135,-2.6508,-2.6765,-2.6952,-2.7549,-2.7749,-2.7761,-2.7874,-2.7893,0.0,0.0,-2.7788,-2.7615,-2.7522,-2.7412,-2.7283,-2.7392,-2.7897,-2.8508,-2.8955,-2.9161,-2.9173,-2.9131,-2.9374,-2.9686,-2.9711,-3.0008,-3.0488,-3.1218,-3.1417,-3.1778,-3.2611,-3.283,-3.2992,-3.3281,-3.3281,-3.3281,-3.3281,-3.3281,-3.3281,-3.3281,-3.3281,-3.3281,-3.3281,-3.335,-3.3356,-3.3234,-3.2953,-3.276,-3.27,-3.2506,-3.2168,-3.1596,-3.1727,-3.1508,-3.0898,-3.0343,-2.9981,-2.9863,-2.939,-2.8797,-2.8148,-2.796,-2.7289,-2.6258,-2.6136,-2.577,-2.5234,-2.5173,-2.5111,-2.5111,-2.5111,-2.5111,-2.5111,-2.5111,-2.5111,-2.5111,0.0,0.0,0.0,0.0,0.0,0.0,0.0,0.0,0.0,0.0,0.0,0.0,0.0,0.0,0.0,0.0,0.0,0.0,0.0,-2.5724,-2.5615,-2.549,-2.5461,-2.5605,-2.5863,-2.5688,-2.55,-2.5276,-2.5099,-2.5277,-2.5763,-2.5591,-2.5787,-2.6268,-2.6268,-2.6268,-2.6268,-2.6268,-2.6306,-2.6306,-2.6318,-2.6329,-2.6415,-2.7138,-2.7418,-2.745,-2.7785,0.0,0.0,-2.7893,-2.7881,-2.7841,-2.7563,-2.7522,0.0,-2.7888,-2.8666,-2.9402,-2.9148,-2.9274,-2.9428,-2.9163,-2.9128,-2.9332,-3.0041,-3.035,-3.0716,-3.1458,-3.1801,-3.2106,-3.2443,-3.2718,-3.2992,-3.3281,-3.3281,-3.3281,-3.3281,-3.3281,-3.3281,-3.3281,-3.3281,-3.3281,-3.3281,-3.3053,-3.3005,-3.3211,-3.2622,-3.2263,-3.22,-3.2327,-3.2023,-3.1144,-3.1566,-3.1508,-3.0898,-3.0577,-3.0216,-2.9922,-2.9627,-2.9153,-2.8457,-2.7831,-2.7159,-2.6571,-2.6258,-2.59,-2.5549,-2.5234,-2.5111,-2.5111,-2.5111,-2.5111,-2.5111,-2.5111,-2.5111,-2.5111,0.0,0.0,0.0,0.0,0.0,0.0,0.0,0.0,0.0,0.0,0.0,0.0,0.0,0.0,0.0,0.0,0.0,0.0,0.0,-2.6359,-2.6077,-2.597,-2.6043,-2.6193,-2.6363,-2.6566,-2.6517,-2.622,-2.6151,-2.6042,-2.585,-2.5779,-2.572,-2.5624,-2.5624,-2.5624,-2.5624,-2.5624,-2.5708,-2.5853,-2.6238,-2.6456,-2.6638,-2.7246,-2.7709,-2.7999,0.0,0.0,-2.8323,-2.8323,-2.8191,-2.807,-2.7829,-2.7655,-2.7644,-2.8249,-2.8811,-2.9227,-2.9331,-2.9316,-2.9128,-2.8721,-2.8856,-2.9101,-2.9203,-2.9897,-3.0551,-3.0813,-3.1349,-3.1874,-3.2392,-3.2555,-3.2768,-3.3231,-3.3281,-3.3281,-3.3281,-3.3281,-3.3281,-3.3281,-3.3281,-3.3281,-3.3281,-3.3231,-3.3049,-3.274,-3.2547,-3.2233,-3.1764,-3.1784,-3.1573,-3.0994,-3.1226,-3.1117,-3.0726,-3.048,-3.0216,-2.9863,-2.9163,-2.8627,-2.8148,-2.7702,-2.7159,-2.6571,-2.6258,-2.59,-2.5549,-2.5234,-2.5111,-2.5111,-2.5111,-2.5111,-2.5111,-2.5111,-2.5111,-2.5111,0.0,0.0,0.0,0.0,0.0,0.0,0.0,0.0,0.0,0.0,0.0,0.0,0.0,0.0,0.0,0.0,0.0,-2.7469,0.0,0.0,-2.6701,-2.6638,-2.6581,-2.6627,-2.6769,-2.6944,-2.6883,-2.6588,-2.6437,-2.6184,-2.5816,-2.5614,-2.5509,-2.5463,-2.5453,-2.5516,-2.5687,-2.5687,-2.5769,-2.591,-2.6254,-2.6473,-2.6654,-2.7138,-2.7533,0.0,0.0,0.0,-2.8364,-2.8557,-2.8419,-2.8179,-2.7962,-2.7743,-2.7663,-2.8374,-2.8761,-2.9049,-2.9214,-2.9117,-2.8896,-2.8384,-2.856,-2.8769,-2.871,-2.9454,-3.0149,-3.0249,-3.0697,-3.1322,-3.2101,-3.2235,-3.2442,-3.3197,-3.3281,-3.3281,-3.3281,-3.3281,-3.3281,-3.3281,-3.3281,-3.3281,-3.3281,-3.3281,-3.3069,-3.2544,-3.2493,-3.2119,-3.1295,-3.1412,-3.1263,-3.0656,-3.0817,-3.0794,-3.0613,-3.0421,-3.0179,-2.9863,-2.9163,-2.8567,-2.802,-2.7771,-2.7349,-2.6761,-2.6319,-2.5953,-2.5725,-2.5296,-2.5111,-2.5111,-2.498,-2.4919,-2.4926,-2.4795,-2.4795,-2.4919,0.0,0.0,0.0,0.0,0.0,0.0,0.0,0.0,0.0,0.0,0.0,0.0,0.0,0.0,0.0,0.0,0.0,0.0,0.0,0.0,0.0,-2.7429,-2.7142,-2.7031,-2.7108,-2.6922,-2.6664,-2.6455,-2.6021,-2.5772,-2.5741,-2.5205,-2.5261,-2.58,-2.5686,-2.5908,-2.6373,-2.6399,-2.6411,-2.6411,-2.6449,-2.6449,-2.649,-2.6866,0.0,0.0,0.0,0.0,-2.8125,-2.8621,-2.8526,-2.8139,-2.7921,-2.7718,-2.7708,-2.8241,-2.8564,-2.8756,-2.8811,-2.8803,-2.8606,-2.8092,-2.81,-2.8351,-2.8572,-2.8991,-2.9419,-2.9704,-2.9981,-3.0499,-3.1493,-3.1692,-3.202,-3.3116,-3.3269,-3.3281,-3.3281,-3.3281,-3.3281,-3.3281,-3.3281,-3.3281,-3.3281,-3.3281,-3.3069,-3.2544,-3.2493,-3.1986,-3.0879,-3.1232,-3.1052,-3.0217,-3.0372,-3.0474,-3.0574,-3.0329,-3.0094,-2.9922,-2.9627,-2.8966,-2.802,-2.802,-2.7668,-2.7073,-2.638,-2.6075,-2.6075,-2.5349,-2.5111,-2.505,-2.4734,-2.461,-2.4548,-2.4232,-2.4293,-2.461,0.0,0.0,0.0,0.0,0.0,0.0,0.0,0.0,0.0,0.0,0.0,0.0,0.0,0.0,0.0,0.0,0.0,0.0,0.0,0.0,0.0,0.0,0.0,0.0,0.0,0.0,0.0,-2.7294,-2.7175,-2.6889,-2.6434,-2.6162,-2.5993,-2.5926,-2.5767,-2.5736,-2.5923,-2.6369,-2.655,-2.6601,0.0,-2.7053,-2.7079,0.0,0.0,0.0,0.0,0.0,-2.8495,-2.8726,-2.8419,-2.7921,-2.7482,-2.75,-2.7654,-2.7991,-2.8144,-2.8282,-2.8672,-2.8513,-2.8139,-2.7773,-2.7725,-2.7762,-2.7666,-2.8311,-2.8881,-2.8978,-2.9607,-3.0389,-3.1035,-3.1457,-3.1896,-3.2574,-3.3028,-3.3281,-3.3281,-3.3281,-3.3281,-3.3281,-3.3281,-3.3281,-3.3281,-3.3281,-3.3069,-3.2544,-3.2493,-3.1986,-3.0879,-3.0882,-3.0684,-3.0065,-3.0015,-3.0123,-3.0444,-3.0361,-3.0218,-2.9922,-2.9627,-2.8966,-2.802,-2.802,-2.7668,-2.7073,-2.638,-2.6075,-2.6075,-2.5349,-2.5111,-2.505,-2.4734,-2.461,-2.4548,-2.4232,-2.417,-2.4293,0.0,0.0,0.0,0.0,0.0,0.0,0.0,0.0,0.0,0.0,0.0,0.0,0.0,0.0,0.0,0.0,0.0,0.0,0.0,0.0,0.0,0.0,0.0,0.0,0.0,0.0,0.0,0.0,0.0,0.0,-2.652,-2.6231,-2.6117,-2.6119,-2.5895,-2.5888,-2.6078,-2.6408,0.0,0.0,0.0,0.0,0.0,0.0,0.0,0.0,0.0,0.0,-2.8433,-2.8225,-2.7977,-2.7667,-2.7208,-2.702,-2.7054,-2.7321,-2.7327,-2.7354,-2.7853,-2.7804,-2.7566,-2.7484,-2.7452,-2.7452,-2.7309,-2.7878,-2.8391,-2.8391,-2.9046,-2.9833,-3.0569,-3.0886,-3.1405,-3.236,-3.2741,-3.3017,-3.3247,-3.3281,-3.3281,-3.3281,-3.3281,-3.3281,-3.3281,-3.3281,-3.3069,-3.2544,-3.2493,-3.1986,-3.0879,-3.0786,-3.0568,-2.9994,-2.9809,-2.987,-3.0228,-3.0291,-3.0199,-2.9922,-2.9745,-2.9085,-2.802,-2.802,-2.7668,-2.7073,-2.638,-2.6075,-2.6075,-2.5349,-2.5111,-2.505,-2.4548,-2.4363,-2.4293,-2.386,-2.3736,-2.3922,0.0,0.0,0.0,0.0,0.0,0.0,0.0,0.0,0.0,0.0,0.0,0.0,0.0,0.0,0.0,0.0,0.0,0.0,0.0,0.0,0.0,0.0,0.0,0.0,0.0,0.0,0.0,0.0,0.0,0.0,0.0,0.0,0.0,0.0,0.0,0.0,0.0,0.0,0.0,0.0,0.0,0.0,0.0,0.0,0.0,0.0,0.0,0.0,0.0,-2.7555,-2.7439,-2.7482,-2.7015,-2.6561,-2.6287,-2.6495,-2.639,-2.6345,-2.6771,-2.6865,-2.6913,-2.7076,-2.7123,-2.7133,-2.7195,-2.7573,-2.7913,-2.7977,-2.842,-2.9075,-3.0032,-3.0261,-3.0728,-3.2096,-3.2397,-3.265,-3.3109,-3.3247,-3.3281,-3.3281,-3.3281,-3.3281,-3.3281,-3.3281,-3.3069,-3.2544,-3.2493,-3.1986,-3.0879,-3.0786,-3.0516,-2.9942,-2.972,-2.9702,-2.9937,-3.014,-3.0045,-2.9846,-2.9893,-2.9272,-2.808,-2.802,-2.7668,-2.7133,-2.638,-2.6075,-2.6075,-2.5349,-2.5111,-2.505,-2.4363,-2.4108,-2.4046,-2.3362,-2.33,-2.3611,0.0,0.0,0.0,0.0,0.0,0.0,0.0,0.0,0.0,0.0,0.0,0.0,0.0,0.0,0.0,0.0,0.0,0.0,0.0,0.0,0.0,0.0,0.0,0.0,0.0,-2.8332,-2.8137,-2.786,-2.7585,0.0,0.0,0.0,0.0,0.0,0.0,0.0,0.0,0.0,0.0,0.0,0.0,0.0,0.0,0.0,0.0,0.0,0.0,0.0,0.0,0.0,-2.7869,-2.7667,-2.6891,-2.6603,-2.6496,-2.6389,-2.6184,-2.604,-2.6325,-2.6236,-2.6111,-2.6138,-2.6159,-2.6262,-2.6646,-2.709,-2.7519,-2.7913,-2.842,-2.8965,-2.9562,-3.0025,-3.0514,-3.1144,-3.1961,-3.2512,-3.2615,-3.3005,-3.3281,-3.3281,-3.3281,-3.3281,-3.3281,-3.3281,-3.3069,-3.2544,-3.2493,-3.1986,-3.0879,-3.0786,-3.0453,-2.9711,-2.9708,-2.9657,-2.9511,-2.9983,-2.9901,-2.9429,-2.9761,-2.94,-2.8397,-2.8148,-2.7771,-2.7401,-2.6493,-2.6075,-2.6075,-2.5349,-2.5111,-2.505,-2.4363,-2.4108,-2.4046,-2.3362,-2.3113,-2.3238,0.0,0.0,0.0,0.0,0.0,0.0,0.0,0.0,0.0,0.0,-2.7023,-2.6991,0.0,0.0,0.0,0.0,0.0,0.0,0.0,0.0,0.0,0.0,0.0,0.0,0.0,-2.8724,-2.851,-2.821,0.0,-2.7815,-2.7397,-2.7115,-2.6829,-2.6566,-2.6258,-2.5988,0.0,0.0,0.0,0.0,0.0,0.0,0.0,0.0,0.0,0.0,0.0,0.0,0.0,0.0,-2.7493,-2.7676,-2.6976,-2.6603,-2.6315,-2.601,-2.5765,-2.5604,-2.5862,-2.5722,-2.5595,-2.5823,-2.5875,-2.5982,-2.6154,-2.6795,-2.7349,-2.7572,-2.8247,-2.8943,-2.9393,-2.9687,-3.0131,-3.088,-3.141,-3.1892,-3.2408,-3.2707,-3.302,-3.3446,-3.353,-3.353,-3.353,-3.353,-3.322,-3.2544,-3.2493,-3.1986,-3.0879,-3.0527,-3.0203,-2.9827,-2.9556,-2.9521,-2.9599,-2.9557,-2.9312,-2.8984,-2.9174,-2.8749,-2.7845,-2.7534,-2.7346,-2.7165,-2.6396,-2.6092,-2.6075,-2.5541,-2.5234,-2.505,-2.4548,-2.4232,-2.4046,-2.3542,-2.323,-2.3168,0.0,0.0,0.0,0.0,0.0,0.0,0.0,-2.6975,-2.704,-2.7136,-2.7119,-2.7123,-2.7147,-2.7572,0.0,0.0,0.0,0.0,0.0,0.0,0.0,0.0,0.0,0.0,0.0,0.0,0.0,-2.8484,-2.8436,0.0,0.0,0.0,0.0,0.0,-2.6698,-2.6392,-2.6084,-2.5975,0.0,0.0,0.0,-2.6519,0.0,0.0,0.0,0.0,0.0,0.0,-2.7128,0.0,-2.7115,-2.7517,-2.7128,-2.6719,-2.6313,-2.5812,-2.5506,-2.537,-2.5442,-2.5286,-2.5205,-2.5502,-2.5595,-2.5661,-2.5809,-2.6451,-2.7086,-2.7334,-2.8055,-2.8822,-2.9371,-2.9485,-2.9804,-3.0674,-3.0939,-3.1283,-3.2064,-3.24,-3.2834,-3.3447,-3.3659,-3.3779,-3.3729,-3.3679,-3.3369,-3.2656,-3.2342,-3.1794,-3.0827,-3.0308,-2.9994,-2.9994,-2.9406,-2.9303,-2.9655,-2.9149,-2.8761,-2.8539,-2.8625,-2.8276,-2.7374,-2.7039,-2.6911,-2.6842,-2.6228,-2.6012,-2.6029,-2.5753,-2.5418,-2.5173,-2.4734,-2.4417,-2.4046,-2.3736,-2.3417,-2.3168,0.0,0.0,0.0,0.0,0.0,0.0,0.0,-2.7008,-2.7073,-2.725,-2.7184,-2.7328,-2.7913,-2.7981,0.0,0.0,0.0,0.0,0.0,0.0,0.0,0.0,0.0,0.0,0.0,0.0,0.0,-2.8747,-2.8532,0.0,0.0,0.0,0.0,0.0,0.0,-2.6753,-2.67,-2.626,0.0,0.0,0.0,0.0,0.0,0.0,0.0,0.0,0.0,-2.7273,-2.7028,-2.7115,-2.7187,-2.7256,-2.7275,-2.7167,-2.6951,-2.6104,-2.5853,-2.5696,-2.5126,-2.4966,-2.4902,-2.4697,-2.4621,-2.4811,-2.5488,-2.5834,-2.6319,-2.7454,-2.7887,-2.838,-2.9315,-2.9485,-2.968,-3.0194,-3.0698,-3.1042,-3.1134,-3.2106,-3.2889,-3.2936,-3.3623,-3.3977,-3.3729,-3.3679,-3.3481,-3.2891,-3.1896,-3.1178,-3.0838,-3.0308,-2.9994,-2.9994,-2.9406,-2.9099,-2.9139,-2.8992,-2.8607,-2.8048,-2.8482,-2.8389,-2.7708,-2.7145,-2.6885,-2.6871,-2.6236,-2.5998,-2.5989,-2.5716,-2.561,-2.548,-2.4857,-2.4417,-2.4046,-2.3736,-2.3417,-2.3106,0.0,0.0,0.0,0.0,0.0,0.0,0.0,-2.6991,-2.7073,-2.7266,-2.758,-2.7842,-2.8083,-2.8762,0.0,0.0,0.0,0.0,0.0,0.0,0.0,0.0,0.0,0.0,0.0,0.0,-2.8982,-2.8865,-2.8708,0.0,0.0,0.0,0.0,0.0,0.0,-2.6963,-2.6779,-2.6459,0.0,0.0,0.0,0.0,0.0,0.0,0.0,0.0,0.0,0.0,-2.7138,-2.6967,-2.7012,-2.7163,-2.7093,-2.7237,-2.7366,-2.6719,-2.6229,-2.5853,-2.5559,-2.5295,-2.5031,-2.4956,-2.4914,-2.4998,-2.5306,-2.5754,-2.6292,-2.6756,-2.7236,-2.7887,-2.888,-2.9071,-2.9331,-3.0079,-3.0399,0.0,-3.0973,-3.1587,-3.2287,-3.3038,-3.3561,-3.3929,-3.4115,-3.4014,-3.3568,-3.2706,-3.1742,-3.1075,-3.0827,-3.0308,-2.9994,-2.9994,-2.9406,-2.9079,-2.9079,-2.8725,-2.8221,-2.7614,-2.7848,-2.7594,-2.7059,-2.6437,-2.6291,-2.6539,-2.6119,-2.594,-2.5998,-2.5935,-2.5786,-2.5549,-2.5111,-2.4548,-2.4108,-2.3922,-2.3549,-2.3106,0.0,0.0,0.0,0.0,0.0,0.0,-2.6942,-2.6992,-2.7057,-2.7186,-2.7773,-2.822,-2.8373,-2.9351,-2.9991,-3.0051,0.0,0.0,0.0,0.0,0.0,0.0,0.0,0.0,0.0,0.0,-2.9367,-2.9234,-2.9147,-2.8995,0.0,0.0,-2.794,-2.7715,0.0,0.0,0.0,0.0,0.0,0.0,0.0,0.0,0.0,0.0,0.0,0.0,0.0,0.0,0.0,0.0,0.0,-2.7201,0.0,0.0,0.0,0.0,-2.6633,-2.6218,-2.5979,-2.5644,-2.5369,-2.5242,-2.52,-2.52,-2.5285,-2.5733,-2.6152,-2.6336,-2.6791,-2.747,-2.8366,-2.8757,-2.9105,0.0,0.0,-3.0342,-3.0721,-3.1148,-3.1786,-3.2923,-3.3422,-3.3874,-3.4337,-3.4162,-3.3568,-3.2544,-3.1783,-3.1178,-3.0838,-3.0308,-2.9942,-2.9879,-2.9343,-2.9079,-2.8983,-2.8504,-2.8023,-2.753,-2.7431,-2.7161,-2.6691,-2.6072,-2.5949,-2.6131,-2.5952,-2.5927,-2.5957,-2.595,-2.5863,-2.5725,-2.5296,-2.4672,-2.4108,-2.4108,-2.3673,-2.3106,0.0,0.0,0.0,0.0,0.0,0.0,0.0,-2.6959,-2.6991,-2.6991,-2.764,-2.8339,-2.9017,-2.958,-3.0169,-3.0828,0.0,0.0,0.0,0.0,0.0,0.0,0.0,0.0,0.0,0.0,-3.0116,-2.9988,-2.985,-2.9728,-2.9565,-2.8639,-2.8128,-2.798,0.0,0.0,0.0,0.0,0.0,0.0,0.0,0.0,0.0,0.0,0.0,0.0,0.0,0.0,0.0,0.0,0.0,0.0,0.0,0.0,0.0,0.0,-2.7185,-2.6981,-2.6135,-2.5895,-2.577,-2.5327,-2.52,-2.5285,-2.5559,-2.5612,-2.5795,-2.6443,-2.6734,-2.7124,-2.7873,-2.8587,-2.9203,-2.946,-2.9906,0.0,-3.0227,-3.0916,-3.1658,-3.243,-3.3232,-3.3898,-3.4337,-3.3965,-3.3369,-3.2544,-3.1936,-3.1373,-3.0827,-3.0308,-2.9879,-2.9606,-2.929,-2.8983,-2.8727,-2.8461,-2.8184,-2.7906,-2.7584,-2.726,-2.6989,-2.6391,-2.5962,-2.5714,-2.5769,-2.582,-2.5861,-2.5636,-2.5753,-2.6014,-2.5349,-2.4672,-2.4108,-2.4108,-2.3673,-2.3106,0.0,0.0,0.0,0.0,0.0,0.0,0.0,-2.6926,-2.6959,-2.6991,-2.8049,-2.883,-2.8942,-2.9921,-3.0603,-3.0634,0.0,0.0,0.0,0.0,0.0,0.0,0.0,0.0,0.0,0.0,-3.018,-3.0132,-3.0369,-3.023,-2.9728,-2.9166,-2.8555,-2.798,-2.7715,-2.7499,0.0,0.0,0.0,0.0,0.0,0.0,0.0,0.0,0.0,0.0,0.0,0.0,0.0,0.0,0.0,0.0,0.0,0.0,0.0,-2.7567,-2.7364,-2.7144,-2.6857,-2.6467,-2.6063,-2.5937,-2.577,-2.5686,-2.577,-2.5812,-2.5866,-2.6103,-2.6293,-2.6648,-2.7393,-2.8102,-2.8817,-2.9391,-2.9894,-3.0216,-3.0216,-3.0593,-3.111,-3.1855,-3.3113,-3.3958,-3.4164,-3.4075,-3.3568,-3.2544,-3.2128,-3.1578,-3.0827,-3.0464,-3.0088,-2.9606,-2.929,-2.8983,-2.8684,-2.8451,-2.8184,-2.7906,-2.7584,-2.726,-2.6989,-2.64,-2.6072,-2.598,-2.5872,-2.5974,-2.6183,-2.5687,-2.5753,-2.6014,-2.5349,-2.4672,-2.4108,-2.4108,-2.3673,-2.3106,0.0,0.0,0.0,0.0,0.0,0.0,0.0,-2.6859,-2.6909,-2.6875,-2.8185,-2.9047,-2.8884,-3.0082,-3.0794,-3.051,0.0,0.0,0.0,0.0,0.0,0.0,0.0,0.0,0.0,-3.0141,-3.0575,-3.0575,-3.098,-3.0963,-3.0541,-2.994,-2.9348,-2.8824,-2.8606,-2.8415,0.0,0.0,0.0,0.0,0.0,0.0,-2.9067,0.0,0.0,0.0,0.0,0.0,0.0,0.0,0.0,0.0,0.0,0.0,0.0,0.0,-2.7763,-2.751,-2.7267,-2.6828,-2.6396,-2.624,-2.6115,-2.599,-2.5906,-2.5895,-2.5895,-2.5895,-2.6146,-2.6496,-2.6965,-2.7838,-2.8653,-2.9104,-2.9768,-3.0216,-3.0216,-3.0352,-3.0845,-3.1878,-3.3137,-3.3958,-3.4078,-3.4125,-3.3668,-3.2594,-3.2179,-3.1669,-3.0827,-3.0557,-3.0078,-2.9448,-2.9237,-2.892,-2.8568,-2.8398,-2.8237,-2.8077,-2.7745,-2.7422,-2.7152,-2.6663,-2.6345,-2.6081,-2.5834,-2.6022,0.0,-2.5713,-2.5689,-2.6075,-2.5472,-2.4857,-2.4293,-2.417,-2.3736,-2.3293,0.0,0.0,0.0,0.0,0.0,0.0,0.0,0.0,0.0,0.0,-2.8098,-2.9012,-2.8811,-3.0043,0.0,0.0,0.0,0.0,0.0,0.0,0.0,0.0,0.0,0.0,0.0,-3.0544,-3.1198,-3.1198,-3.1643,-3.1841,-3.1779,-3.0871,-3.038,-3.0188,-3.0072,-2.9875,0.0,0.0,0.0,0.0,0.0,0.0,0.0,0.0,0.0,0.0,0.0,0.0,0.0,0.0,0.0,0.0,0.0,0.0,0.0,0.0,0.0,0.0,0.0,-2.7074,-2.6809,-2.6354,-2.6229,-2.6146,-2.5948,-2.5895,0.0,-2.5895,-2.6271,-2.6561,-2.6603,-2.7739,-2.8657,-2.87,-2.955,-3.0216,-3.0216,-3.0216,-3.0755,-3.2265,-3.3126,-3.3707,-3.4007,-3.4052,-3.3618,-3.2606,-3.2229,-3.1669,-3.0879,-3.0557,-3.0026,-2.9185,-2.9132,-2.8814,-2.8291,-2.8291,-2.8291,-2.8291,-2.8014,-2.7745,-2.7431,-2.7152,-2.6663,-2.6127,-2.5852,-2.5972,-2.6357,-2.5693,-2.5661,-2.6075,-2.5725,-2.5173,-2.4548,-2.4232,-2.3922,-2.3549,0.0,0.0,0.0,0.0,0.0,0.0,0.0,0.0,0.0,0.0,0.0,-2.8938,-2.868,-3.0004,0.0,0.0,0.0,0.0,0.0,0.0,0.0,0.0,0.0,0.0,0.0,-3.0496,-3.1149,-3.1049,-3.2133,-3.2287,-3.1637,-3.1323,-3.081,-3.0188,-3.0162,-2.994,0.0,0.0,0.0,0.0,0.0,0.0,0.0,0.0,0.0,0.0,-2.8112,-2.7848,0.0,0.0,0.0,0.0,0.0,0.0,0.0,0.0,-2.792,-2.8139,-2.7829,0.0,-2.7074,-2.6809,-2.649,-2.6199,0.0,0.0,0.0,0.0,0.0,0.0,0.0,-2.7623,-2.8507,-2.8657,-2.955,-3.0216,-3.0216,-3.0397,-3.0776,-3.1565,-3.2312,-3.2876,-3.3151,-3.3534,-3.353,-3.288,-3.2555,-3.1986,-3.1127,-3.0827,-3.0349,-2.9501,-2.9237,-2.8814,-2.8291,-2.8291,-2.8291,-2.8291,-2.8014,-2.7853,-2.7745,-2.726,-2.6935,-2.6772,-2.6008,-2.6066,-2.6619,-2.5751,-2.5661,-2.6075,-2.5725,-2.5173,-2.4548,-2.4232,-2.3922,-2.3549,0.0,0.0,0.0,0.0,0.0,0.0,0.0,0.0,0.0,0.0,0.0,0.0,0.0,0.0,0.0,0.0,0.0,0.0,0.0,0.0,0.0,0.0,0.0,0.0,-2.9098,-3.0472,-3.1124,-3.0999,-3.2279,-3.2613,-3.2064,-3.1913,-3.1632,-3.1198,-3.1079,-3.0822,0.0,0.0,0.0,0.0,-3.006,0.0,0.0,0.0,0.0,0.0,-2.8112,-2.7848,0.0,-2.7113,-2.699,-2.6956,0.0,0.0,0.0,0.0,-2.79,-2.8299,-2.807,-2.7696,-2.7278,-2.6962,-2.6685,-2.6437,-2.6229,0.0,0.0,0.0,0.0,0.0,0.0,-2.7399,-2.8236,-2.8355,-2.9238,-2.9897,-3.0057,-3.0182,-3.0559,-3.1321,-3.1751,-3.2253,-3.2845,-3.3182,-3.3215,-3.2919,-3.2656,-3.219,-3.1424,-3.1034,-3.0464,-2.9827,-2.9343,-2.892,-2.8514,-2.8344,-2.8291,-2.8291,-2.8121,-2.8014,-2.7906,-2.7422,-2.7098,-2.6935,-2.6063,-2.6025,-2.6544,-2.5915,-2.5679,-2.5844,-2.5835,-2.541,-2.4795,-2.4293,-2.3984,-2.3736,0.0,0.0,0.0,0.0,0.0,0.0,0.0,0.0,0.0,0.0,0.0,0.0,0.0,0.0,0.0,0.0,0.0,0.0,0.0,0.0,0.0,0.0,0.0,-2.9213,-2.9075,-3.0448,-3.1083,-3.0923,-3.2211,-3.2746,-3.2578,-3.2453,-3.2398,-3.2398,-3.215,-3.1853,0.0,0.0,-3.0955,-3.0598,-3.0264,0.0,0.0,0.0,0.0,0.0,0.0,0.0,0.0,-2.7113,-2.699,-2.6956,-2.6602,0.0,0.0,0.0,0.0,0.0,-2.8259,-2.7886,-2.7482,-2.7097,-2.6933,-2.6768,-2.6354,0.0,0.0,0.0,0.0,0.0,0.0,-2.7199,-2.7997,-2.8107,-2.888,-2.9588,-2.9794,-2.984,-3.0182,-3.1067,-3.124,-3.1646,-3.2621,-3.2783,-3.2854,-3.2946,-3.2667,-3.224,-3.1669,-3.1127,-3.062,-3.0099,-2.9511,-2.9089,-2.8834,-2.8451,-2.8291,-2.8291,-2.8291,-2.8184,-2.796,-2.7593,-2.726,-2.6989,-2.6118,-2.5918,-2.6261,-2.6019,-2.5746,-2.552,-2.5935,-2.5709,-2.5042,-2.4417,-2.417,-2.3984,0.0,0.0,0.0,0.0,0.0,0.0,0.0,0.0,0.0,0.0,0.0,0.0,0.0,0.0,0.0,0.0,0.0,0.0,0.0,0.0,0.0,0.0,-2.919,-2.9075,-2.8943,-3.0302,-3.0898,-3.0654,-3.1982,-3.2578,-3.2425,-3.2425,-3.2398,-3.2398,-3.2247,-3.2094,-3.1896,-3.1596,-3.119,-3.0732,-3.0387,0.0,0.0,0.0,0.0,0.0,0.0,0.0,0.0,-2.7113,-2.699,-2.6956,-2.6602,0.0,0.0,0.0,0.0,0.0,-2.8259,-2.803,-2.7748,-2.7493,-2.7167,-2.685,-2.6603,0.0,0.0,0.0,0.0,0.0,0.0,-2.7302,-2.7955,-2.8489,-2.9116,-2.9531,-2.9542,-2.9542,-2.9714,-3.0079,-3.0501,-3.1074,-3.1918,-3.2345,-3.2756,-3.3197,-3.2757,-3.2342,-3.1964,-3.1424,-3.0868,-3.0349,-3.0036,-2.9722,-2.9448,-2.8717,-2.8291,-2.8291,-2.8291,-2.8291,-2.8237,-2.7647,-2.7377,-2.726,-2.6172,-2.5918,-2.6261,-2.6019,-2.5746,-2.552,-2.5935,-2.5709,-2.505,-2.4672,-2.4355,-2.3984,0.0,0.0,0.0,0.0,0.0,0.0,0.0,0.0,0.0,0.0,0.0,0.0,0.0,0.0,0.0,0.0,0.0,0.0,0.0,0.0,0.0,-2.919,-2.9059,-2.8967,-2.8904,-3.0277,-3.0873,-3.0603,-3.194,-3.2523,-3.2398,-3.2398,-3.2398,-3.2398,-3.2274,-3.2122,-3.1996,-3.1638,-3.1307,-3.0925,0.0,0.0,0.0,0.0,0.0,0.0,0.0,0.0,0.0,0.0,-2.699,-2.6956,-2.6602,0.0,0.0,0.0,0.0,0.0,-2.8391,-2.8231,-2.799,-2.7788,-2.7383,-2.7026,0.0,0.0,0.0,0.0,0.0,0.0,0.0,-2.7349,-2.8052,-2.8662,-2.8973,-2.9163,-2.9255,-2.9255,-2.9405,-2.9646,-2.9872,-3.0256,-3.0929,-3.1417,-3.1905,-3.2426,-3.2297,-3.2179,-3.2026,-3.1476,-3.1023,-3.0609,-3.0203,-2.9879,-2.9606,-2.9026,-2.8664,-2.8514,-2.8354,-2.8291,-2.8291,-2.7701,-2.7377,-2.7323,-2.6172,-2.5794,-2.5933,-2.5708,-2.5325,-2.4935,-2.5349,-2.5131,-2.4503,-2.4199,-2.3841,-2.351,0.0,0.0,0.0,0.0,0.0,0.0,0.0,0.0,0.0,0.0,0.0,0.0,0.0,0.0,0.0,0.0,0.0,0.0,0.0,0.0,-2.9389,-2.9144,-2.899,-2.8881,-2.8873,-3.0203,-3.0797,-3.0567,-3.1886,-3.2496,-3.2398,-3.2398,-3.2398,-3.2398,-3.2287,-3.2135,-3.1996,-3.1739,-3.1423,-3.1043,0.0,0.0,0.0,0.0,0.0,0.0,0.0,0.0,0.0,0.0,0.0,0.0,0.0,0.0,0.0,-2.7483,-2.7989,-2.851,-2.851,-2.8339,-2.8139,-2.7962,0.0,0.0,0.0,0.0,0.0,0.0,0.0,0.0,-2.6933,-2.7598,-2.8331,-2.8738,-2.8803,-2.885,-2.8989,-2.9035,-2.9128,-2.9393,-2.9393,-2.9641,-3.0261,-3.0642,-3.1054,-3.167,-3.1801,-3.1905,-3.2015,-3.1578,-3.1178,-3.0879,-3.0412,-3.0047,-2.9816,-2.9396,-2.9079,-2.8781,-2.8514,-2.8398,-2.8344,-2.7809,-2.7485,-2.7323,-2.6336,-2.5844,-2.5714,-2.5544,-2.5085,-2.4441,-2.4854,-2.4643,-2.4035,-2.3715,-2.343,-2.3185,0.0,0.0,0.0,0.0,0.0,0.0,0.0,0.0,0.0,0.0,0.0,0.0,0.0,0.0,0.0,0.0,0.0,0.0,0.0,0.0,-2.945,-2.9282,-2.9036,-2.8865,-2.8818,-2.9996,-3.0567,-3.0428,-3.1751,-3.2425,-3.2398,-3.2398,-3.2398,-3.2398,-3.2398,-3.2247,-3.1996,-3.1968,-3.1626,-3.1087,-3.0732,0.0,0.0,0.0,0.0,0.0,0.0,0.0,0.0,0.0,0.0,0.0,0.0,0.0,-2.7483,-2.7483,-2.7989,-2.851,-2.851,-2.8339,-2.8139,-2.7962,-2.7708,0.0,-2.6974,-2.7232,0.0,-2.6956,0.0,-2.769,-2.7861,-2.8353,-2.876,-2.8792,-2.8803,-2.8803,-2.8803,-2.8803,-2.8896,-2.9128,-2.9128,-2.942,-3.0214,-3.0339,-3.0706,-3.1647,-3.1501,-3.1562,-3.1993,-3.1721,-3.1476,-3.1178,-3.0879,-3.062,-3.0339,-2.9816,-2.9396,-2.9079,-2.8781,-2.8674,-2.8674,-2.813,-2.7691,-2.7377,-2.6772,-2.6227,-2.5714,-2.5769,-2.5199,-2.4441,-2.4854,-2.4643,-2.4035,-2.3715,-2.3604,-2.3528,0.0,0.0,0.0,0.0,0.0,0.0,0.0,0.0,0.0,0.0,0.0,0.0,0.0,0.0,0.0,0.0,0.0,0.0,0.0,0.0,-2.9434,-2.9305,-2.9044,-2.8865,-2.8794,-2.9971,-3.0541,-3.0402,-3.1751,-3.2398,-3.2398,-3.2398,-3.2398,-3.2398,-3.2398,-3.2247,-3.1996,-3.1996,-3.1655,-3.1087,-3.0821,-3.0431,0.0,0.0,0.0,0.0,0.0,0.0,0.0,0.0,-2.699,-2.6956,0.0,-2.697,-2.7483,-2.7483,-2.7989,-2.851,-2.851,-2.8431,-2.8339,-2.8151,-2.8145,0.0,0.0,-2.7565,-2.7654,-2.7811,-2.8009,-2.8231,-2.8442,-2.8683,-2.8803,-2.8803,-2.8664,-2.8535,-2.8535,-2.843,-2.8326,-2.842,-2.842,-2.8589,-2.9077,-2.9372,-2.9869,-3.0722,-3.0943,-3.1267,-3.175,-3.168,-3.1476,-3.123,-3.1075,-3.0817,-3.0391,-3.0183,-2.9921,-2.9669,-2.9195,-2.8887,-2.8684,-2.8291,-2.7853,-2.7368,-2.6817,-2.6282,-2.5697,-2.5497,-2.4897,-2.4087,-2.3812,-2.364,-2.3417,-2.3345,-2.3306,-2.3263,0.0,0.0,0.0,0.0,0.0,0.0,0.0,0.0,0.0,0.0,0.0,0.0,0.0,0.0,0.0,0.0,0.0,0.0,0.0,-2.9637,-2.9473,-2.9366,-2.9059,-2.8865,-2.8794,-2.9971,-3.0541,-3.0402,-3.1751,-3.2398,-3.2398,-3.2398,-3.2398,-3.2398,-3.2398,-3.2247,-3.1996,-3.1996,-3.1655,-3.1087,-3.0895,-3.0536,0.0,0.0,0.0,0.0,0.0,0.0,0.0,0.0,-2.7079,0.0,0.0,0.0,0.0,0.0,-2.7867,-2.8294,-2.8462,-2.851,-2.8471,-2.8259,0.0,0.0,-2.8341,-2.8248,-2.8282,-2.8536,-2.8601,-2.8684,-2.8784,-2.8803,-2.8757,-2.871,-2.8535,-2.8395,-2.8301,-2.8139,-2.7998,-2.7998,-2.7998,-2.8092,-2.8243,-2.8544,-2.9138,-3.0008,-3.0395,-3.0852,-3.1534,-3.1618,-3.1527,-3.1322,-3.123,-3.1023,-3.0651,-3.0495,-3.0297,-3.0141,-2.9617,-2.9195,-2.8834,-2.8568,-2.8023,-2.7377,-2.6989,-2.6391,-2.5688,-2.545,-2.4795,-2.3865,-2.3247,-2.3085,-2.3138,-2.3094,-2.3192,-2.3232,0.0,0.0,0.0,0.0,0.0,0.0,0.0,0.0,0.0,0.0,0.0,0.0,0.0,0.0,0.0,0.0,0.0,0.0,-3.0017,-2.9681,-2.9496,-2.9496,-2.9121,-2.8865,-2.8794,-2.9971,-3.0541,-3.0417,-3.1751,-3.2398,-3.2398,-3.2398,-3.2398,-3.2398,-3.2398,-3.2247,-3.1996,-3.1996,-3.1655,-3.1087,-3.0895,-3.0536,-3.008,0.0,0.0,0.0,0.0,0.0,0.0,0.0,-2.7268,-2.6977,0.0,0.0,0.0,-2.7324,-2.7612,-2.7837,-2.8366,-2.851,-2.8471,-2.8259,0.0,0.0,-2.8939,-2.9245,-2.9404,-2.9159,-2.9104,-2.9035,-2.885,-2.8803,-2.871,-2.8441,-2.8395,-2.829,-2.8034,-2.7987,-2.7987,-2.7987,-2.7987,-2.7987,-2.7998,-2.7998,-2.8476,-2.972,-2.9785,-3.0305,-3.1524,-3.1618,-3.1618,-3.1618,-3.1322,-3.1178,-3.1178,-3.0651,-3.0391,-3.0391,-3.0141,-2.9669,-2.9079,-2.8834,-2.8247,-2.7431,-2.7377,-2.6772,-2.5688,-2.5688,-2.497,-2.3865,-2.3239,-2.3228,-2.3462,-2.3178,-2.3329,-2.3521,0.0,0.0,0.0,0.0,0.0,0.0,0.0,0.0,0.0,0.0,0.0,0.0,0.0,0.0,0.0,0.0,0.0,0.0,-3.0146,-2.9748,-2.9496,-2.9496,-2.919,-2.8975,-2.8794,-2.9886,-3.09,-3.1813,-3.2198,-3.2398,-3.2398,-3.2398,-3.2398,-3.2398,-3.2398,-3.2287,-3.215,-3.2038,-3.1754,-3.1365,-3.1117,-3.0806,-3.0431,0.0,0.0,0.0,0.0,0.0,0.0,0.0,0.0,0.0,0.0,0.0,0.0,-2.7361,-2.7713,-2.8019,-2.8406,-2.851,-2.8471,-2.8431,0.0,0.0,0.0,-2.9398,0.0,0.0,-2.9385,-2.9255,-2.8896,-2.8675,-2.8488,-2.8395,-2.8066,-2.7831,-2.7726,-2.7584,-2.7489,-2.7489,-2.7489,-2.7584,-2.7726,-2.7726,-2.82,-2.9437,-2.9698,-3.0255,-3.1278,-3.1476,-3.1618,-3.1618,-3.1527,-3.1373,-3.1178,-3.1023,-3.0754,-3.0391,-3.0339,-2.9973,-2.9448,-2.9142,-2.8601,-2.8023,-2.7593,-2.6989,-2.6273,-2.5395,-2.4629,-2.3865,-2.3528,-2.3255,-2.313,-2.3094,-2.3192,-2.3225,0.0,0.0,0.0,0.0,0.0,0.0,0.0,0.0,0.0,0.0,0.0,0.0,0.0,0.0,0.0,0.0,0.0,0.0,0.0,0.0,-2.9496,-2.9496,-2.9252,-2.9265,-2.9606,-3.0114,-3.1074,-3.2398,-3.2398,-3.2398,-3.2398,-3.2398,-3.2398,-3.2398,-3.2398,-3.2315,-3.2191,-3.2066,-3.1796,-3.1495,-3.122,-3.0895,-3.0568,0.0,0.0,0.0,0.0,0.0,0.0,0.0,0.0,0.0,0.0,0.0,0.0,-2.7114,-2.7421,-2.7768,-2.8093,-2.8354,-2.851,-2.851,-2.9099,-2.9728,-2.9851,0.0,-2.9737,-2.9521,-2.9485,-2.9301,-2.8757,-2.8488,-2.8348,-2.8113,-2.7831,-2.7584,-2.7489,-2.7404,-2.7309,-2.7309,-2.7309,-2.7357,-2.7452,-2.7499,-2.7971,-2.913,-2.9511,-3.0127,-3.1124,-3.1476,-3.1618,-3.1618,-3.1618,-3.1527,-3.1373,-3.123,-3.0972,-3.0557,-3.0443,-3.0183,-2.9722,-2.929,-2.8814,-2.8237,-2.7422,-2.6772,-2.6172,-2.5229,-2.4462,-2.3857,-2.3585,-2.3392,-2.3178,-2.3101,-2.3207,-2.327,0.0,0.0,0.0,0.0,0.0,0.0,0.0,0.0,0.0,0.0,0.0,0.0,0.0,0.0,0.0,0.0,0.0,0.0,0.0,0.0,-2.9496,-2.9496,-2.9293,-2.9674,-3.0756,-3.0593,-3.1136,-3.2398,-3.2398,-3.2398,-3.2398,-3.2459,-3.249,-3.249,-3.2552,-3.2527,-3.2402,-3.2249,-3.2021,-3.1703,-3.1427,-3.1057,-3.0685,-3.038,0.0,0.0,0.0,0.0,0.0,0.0,0.0,0.0,-2.7146,-2.6748,-2.6471,-2.668,-2.6944,-2.7259,-2.7637,-2.8065,-2.845,-2.8498,-2.9099,-2.9851,-3.0479,-3.0397,-3.0034,-2.9577,-2.9485,-2.9255,-2.8535,-2.8395,-2.8207,-2.7678,-2.7547,-2.7452,-2.7309,-2.7262,-2.7262,-2.7262,-2.7262,-2.7262,-2.7309,-2.7309,-2.7779,-2.8872,-2.9275,-2.9938,-3.1073,-3.1424,-3.1567,-3.1618,-3.1618,-3.1618,-3.1618,-3.1373,-3.1075,-3.0786,-3.0557,-3.0297,-2.9994,-2.9406,-2.8814,-2.8184,-2.7152,-2.6336,-2.5743,-2.5119,-2.4518,-2.3968,-2.3641,-2.3505,-2.3488,-2.3222,-2.3306,-2.349,0.0,0.0,0.0,0.0,0.0,0.0,0.0,0.0,0.0,0.0,0.0,0.0,0.0,0.0,0.0,0.0,0.0,0.0,0.0,0.0,-2.9496,-2.9496,-2.9596,-2.9955,-3.0629,-3.0999,-3.1567,-3.2398,-3.2398,-3.2398,-3.2398,-3.2936,-3.3183,-3.3213,-3.3783,-3.4029,-3.4,-3.3708,-3.353,-3.3426,-3.3004,-3.2373,-3.1674,-3.1382,-3.074,0.0,0.0,0.0,0.0,0.0,0.0,0.0,-2.749,-2.7053,-2.669,-2.6987,-2.7071,-2.7175,-2.7784,-2.8009,0.0,-2.8442,-2.8987,-2.9703,-3.0693,-3.0432,-2.9874,-2.9577,-2.9485,-2.9255,-2.8535,-2.8243,-2.7998,-2.7631,-2.7309,-2.7034,-2.6986,-2.6794,-2.6736,-2.6948,-2.6996,-2.7081,-2.7262,-2.7309,-2.7683,-2.8645,-2.8956,-2.9616,-3.0826,-3.1127,-3.1373,-3.1567,-3.1618,-3.1618,-3.1618,-3.1516,-3.127,-3.0786,-3.0724,-3.0464,-2.9994,-2.9406,-2.8708,-2.796,-2.7422,-2.6935,-2.6382,-2.5789,-2.5174,-2.4565,-2.4024,-2.369,-2.3497,-2.3196,-2.3169,-2.3194,0.0,0.0,0.0,0.0,0.0,0.0,0.0,0.0,0.0,0.0,0.0,0.0,0.0,0.0,0.0,0.0,0.0,0.0,0.0,0.0,0.0,-2.9213,-2.9579,-3.0061,-3.0603,-3.1059,-3.1612,-3.2287,-3.2287,-3.2511,-3.289,-3.3244,-3.3583,-3.3937,-3.4335,-3.4505,-3.4475,-3.4134,-3.4015,-3.3955,-3.3484,-3.3029,-3.258,-3.2192,-3.1693,-3.1217,-3.087,0.0,0.0,0.0,0.0,0.0,0.0,0.0,-2.7037,-2.687,-2.6949,-2.7206,-2.763,0.0,0.0,-2.8878,0.0,-2.9718,-3.0432,-3.0303,-2.9954,-2.9577,-2.9393,-2.9071,-2.8326,-2.8092,-2.7857,-2.7536,-2.7129,-2.69,-2.69,-2.6651,-2.6602,-2.6853,-2.69,-2.6996,-2.7262,-2.7309,-2.7552,-2.8235,-2.8721,-2.941,-3.0404,-3.0957,-3.1322,-3.1578,-3.1618,-3.1618,-3.1618,-3.1618,-3.1322,-3.0786,-3.0786,-3.036,-2.9564,-2.9237,-2.8654,-2.7906,-2.753,-2.7098,-2.6545,-2.5953,-2.5348,-2.4723,-2.4136,-2.3753,-2.3481,-2.3154,-2.3045,-2.308,0.0,0.0,0.0,0.0,0.0,0.0,0.0,0.0,0.0,0.0,0.0,0.0,0.0,0.0,0.0,0.0,0.0,0.0,0.0,0.0,0.0,0.0,-2.963,-3.0183,-3.0696,-3.1148,-3.1641,-3.2178,-3.2285,-3.2767,-3.3554,-3.3583,-3.3967,-3.469,-3.4797,-3.4859,-3.4814,-3.4515,-3.4349,-3.4304,-3.3874,-3.3597,-3.34,-3.2962,-3.2652,-3.2469,-3.2195,-3.1543,-3.0799,-3.0461,0.0,0.0,0.0,0.0,-2.7456,-2.6803,-2.688,-2.7266,-2.7408,0.0,-2.85,-2.9366,-2.9677,0.0,-3.0134,-3.0184,-3.0034,-2.9577,-2.9266,-2.8839,-2.8139,-2.7951,-2.7809,-2.7357,-2.7034,-2.6853,-2.6853,-2.6554,-2.6448,-2.6747,-2.6805,-2.6938,-2.7214,-2.7262,-2.7448,-2.7883,-2.8536,-2.9255,-3.0043,-3.0766,-3.1281,-3.1578,-3.1618,-3.1618,-3.1618,-3.1618,-3.1322,-3.0786,-3.0734,-3.0088,-2.9079,-2.9079,-2.8708,-2.796,-2.7593,-2.7152,-2.6718,-2.6063,-2.5459,-2.4898,-2.4295,-2.3865,-2.3521,-2.3239,-2.306,-2.3117,0.0,0.0,0.0,0.0,0.0,0.0,0.0,0.0,0.0,0.0,0.0,0.0,0.0,0.0,0.0,0.0,0.0,0.0,0.0,0.0,0.0,-2.9677,-3.0198,-3.0685,-3.1098,-3.1744,-3.2043,-3.2025,-3.2602,-3.3297,-3.41,-3.4263,-3.472,-3.5398,-3.5953,-3.6215,-3.6215,-3.6013,-3.5857,-3.57,-3.5463,-3.4863,-3.407,-3.4006,-3.3365,-3.2501,-3.2437,-3.2169,-3.1671,-3.0827,-3.0331,0.0,0.0,0.0,-2.7842,-2.7456,-2.732,-2.7297,-2.7253,0.0,-2.85,0.0,-2.9789,-2.9995,-3.0166,-3.0074,-2.9886,-2.9542,-2.9163,-2.8653,-2.8081,-2.7809,-2.7584,-2.7357,-2.688,-2.6544,-2.6544,-2.612,-2.5927,-2.6149,-2.64,-2.6651,-2.6948,-2.7167,-2.7448,-2.7883,-2.8349,-2.9065,-3.0053,-3.0572,-3.1075,-3.1567,-3.1618,-3.1618,-3.1618,-3.1618,-3.1322,-3.0776,-3.0308,-2.9774,-2.9079,-2.9079,-2.8814,-2.8237,-2.7647,-2.7377,-2.7215,-2.64,-2.5852,-2.5514,-2.4898,-2.4351,-2.3794,-2.3526,-2.3302,-2.3117,0.0,0.0,0.0,0.0,0.0,0.0,0.0,0.0,0.0,0.0,0.0,0.0,0.0,0.0,0.0,0.0,0.0,0.0,0.0,0.0,0.0,-3.0245,-3.0742,-3.1094,-3.1182,-3.1703,-3.194,-3.1898,-3.2504,-3.3258,-3.4105,-3.4636,-3.5323,-3.6061,-3.6353,0.0,0.0,-3.6226,-3.6053,-3.5973,-3.5686,-3.5327,-3.4912,-3.48,-3.446,-3.3983,-3.3885,-3.3423,-3.2764,-3.2346,-3.1432,-3.0345,-2.9758,0.0,0.0,0.0,-2.7623,-2.7483,-2.7921,-2.831,-2.8772,0.0,-2.9626,-2.9761,-2.9742,-2.9679,-2.9624,-2.9521,-2.8885,-2.8279,-2.8034,-2.7762,-2.7536,-2.7309,-2.6832,-2.6496,-2.6496,-2.6024,-2.5781,-2.6052,-2.6352,-2.6602,-2.6853,-2.7129,-2.7382,-2.7541,-2.8214,-2.8961,-2.9732,-3.0434,-3.1034,-3.1567,-3.1618,-3.1618,-3.1618,-3.1476,-3.1116,-3.0557,-3.0203,-2.9669,-2.9079,-2.9079,-2.8814,-2.8291,-2.7647,-2.7377,-2.7323,-2.6455,-2.5962,-2.5633,-2.5064,-2.4454,-2.3881,-2.3594,-2.3302,-2.3063,0.0,0.0,0.0,0.0,0.0,0.0,0.0,0.0,0.0,0.0,0.0,0.0,0.0,0.0,0.0,0.0,0.0,0.0,0.0,0.0,0.0,-3.0815,-3.1151,-3.1343,-3.1348,-3.1641,-3.1756,-3.1727,-3.2524,-3.3276,-3.3985,-3.4958,-3.5768,0.0,-3.6676,-3.6722,0.0,-3.659,-3.6506,-3.641,-3.6228,-3.6097,-3.6064,-3.595,-3.5869,-3.5773,-3.5429,-3.4828,-3.4123,-3.3689,-3.2558,-3.1257,-3.0797,-2.9933,0.0,0.0,0.0,-2.7644,0.0,0.0,-2.8925,-2.9198,-2.9492,-2.9662,-2.9349,-2.9369,-2.9484,-2.9319,-2.8705,-2.8186,-2.8034,-2.7715,-2.7489,-2.7299,-2.6928,-2.6602,-2.6496,-2.611,-2.5868,-2.5955,-2.6304,-2.6602,-2.6805,-2.7071,-2.7309,-2.7309,-2.8149,-2.8917,-2.9494,-3.0378,-3.1127,-3.1578,-3.1618,-3.1618,-3.1618,-3.1281,-3.0868,-3.0391,-3.0141,-2.9669,-2.9079,-2.9079,-2.8814,-2.8291,-2.7647,-2.7377,-2.7323,-2.6564,-2.6017,-2.5688,-2.5174,-2.4629,-2.3977,-2.3697,-2.3415,-2.3115,0.0,0.0,0.0,0.0,0.0,0.0,0.0,0.0,0.0,0.0,0.0,0.0,0.0,0.0,-3.2062,-3.1922,0.0,0.0,0.0,0.0,0.0,-3.1351,-3.1263,0.0,-3.1752,-3.1784,-3.1698,0.0,0.0,0.0,-3.3849,-3.5289,-3.6054,-3.6258,-3.709,-3.7335,-3.7189,0.0,0.0,-3.765,-3.78,-3.7767,-3.7617,-3.7804,-3.7755,-3.7481,-3.6697,-3.6257,-3.5818,-3.4229,-3.3543,-3.3155,-3.197,-3.1114,-3.0345,0.0,0.0,0.0,0.0,-2.8566,0.0,-2.89,-2.9534,-2.9958,-2.9123,-2.9359,-2.9602,-2.888,-2.875,-2.8606,-2.8081,-2.7631,-2.7309,-2.7309,-2.7081,-2.6794,-2.6544,-2.6245,-2.6004,-2.5732,-2.6169,-2.6496,-2.6496,-2.6976,-2.7309,-2.7309,-2.8335,-2.9155,-2.9494,-3.0571,-3.1333,-3.1578,-3.1618,-3.1618,-3.1618,-3.1075,-3.0672,-3.0391,-3.0141,-2.9669,-2.9079,-2.9079,-2.8814,-2.8291,-2.7647,-2.7377,-2.7377,-2.68,-2.6245,-2.5688,-2.5688,-2.5136,-2.432,-2.3977,-2.3699,-2.3373,0.0,0.0,0.0,0.0,0.0,0.0,0.0,0.0,0.0,0.0,0.0,0.0,0.0,-3.2159,-3.2035,-3.1894,-3.1981,0.0,0.0,0.0,0.0,-3.1907,-3.1784,-3.1754,-3.1784,-3.167,-3.1568,0.0,0.0,-3.3591,-3.3834,-3.5179,-3.5894,-3.6131,-3.6946,-3.7284,-3.7218,-3.7673,0.0,-3.7906,-3.7824,-3.7842,-3.7895,-3.7962,-3.7962,-3.7849,-3.7555,-3.733,-3.6997,-3.5848,-3.5034,-3.4281,-3.3198,-3.2125,-3.1073,-2.9843,-2.9153,-2.8766,0.0,0.0,0.0,-2.9234,-2.9618,-2.9801,-2.9301,-2.9082,-2.897,-2.8756,-2.8466,-2.8252,-2.8023,-2.7713,-2.7452,-2.7309,-2.7081,-2.6853,-2.6747,-2.64,-2.6149,-2.6207,-2.64,-2.6554,-2.6747,-2.7081,-2.7309,-2.7309,-2.8383,-2.9155,-2.9494,-3.0571,-3.1322,-3.1578,-3.1618,-3.1424,-3.1075,-3.0713,-3.0401,-3.0141,-3.0047,-2.9669,-2.9079,-2.9079,-2.8814,-2.8291,-2.7647,-2.7377,-2.7377,-2.68,-2.6245,-2.5688,-2.5688,-2.52,-2.4376,-2.4033,-2.3722,-2.3415,0.0,0.0,0.0,0.0,0.0,0.0,0.0,0.0,0.0,0.0,0.0,0.0,0.0,0.0,-3.249,-3.2334,-3.2303,-3.2232,-3.194,-3.2303,-3.2441,-3.2219,-3.2122,-3.1981,-3.187,0.0,0.0,0.0,0.0,0.0,0.0,-3.5085,-3.5752,-3.594,-3.6932,-3.736,0.0,-3.8096,-3.8454,-3.8557,-3.8489,-3.8591,-3.8781,-3.88,-3.8849,-3.8803,-3.8522,-3.8363,-3.8122,-3.7288,-3.6327,-3.5385,-3.4659,-3.332,-3.1797,-3.0547,-3.0035,-2.9834,-2.9477,0.0,0.0,-2.9714,-2.9845,-2.9867,-2.9426,-2.9066,-2.8769,-2.8572,-2.835,-2.8165,-2.7841,-2.7602,-2.7507,-2.74,-2.7167,-2.6986,-2.69,-2.6592,-2.64,-2.6496,-2.6602,-2.6699,-2.69,-2.7129,-2.7309,-2.7309,-2.8443,-2.9264,-2.9494,-3.0662,-3.1424,-3.1567,-3.1527,-3.123,-3.0786,-3.0557,-3.0297,-2.9994,-2.9994,-2.9722,-2.9237,-2.9132,-2.8877,-2.8408,-2.7701,-2.7377,-2.7377,-2.68,-2.6245,-2.5688,-2.5688,-2.5191,-2.4487,-2.4089,-2.3809,-2.3561,0.0,0.0,0.0,0.0,0.0,0.0,0.0,0.0,0.0,0.0,0.0,0.0,0.0,0.0,0.0,-3.3293,-3.2866,-3.2594,-3.2578,-3.2453,-3.2342,-3.2219,0.0,0.0,0.0,0.0,0.0,0.0,0.0,0.0,0.0,0.0,-3.5688,-3.5748,-3.7104,-3.7673,-3.7763,-3.9124,-3.9681,-3.9732,-3.994,-4.0132,-4.0342,-4.0516,-4.0551,-4.0474,-3.9692,-3.9412,-3.9256,-3.8351,-3.7416,-3.6543,-3.6265,-3.4641,-3.259,-3.1787,-3.1171,-3.0685,0.0,0.0,0.0,-3.0266,-3.0269,-3.0241,-2.9574,-2.9365,-2.9104,-2.8349,-2.8484,-2.8409,-2.747,-2.7304,-2.7352,-2.7536,-2.7421,-2.7204,-2.6948,-2.69,-2.6805,-2.6544,-2.6757,-2.69,-2.69,-2.7177,-2.7309,-2.7309,-2.8648,-2.9473,-2.9494,-3.0813,-3.1618,-3.1618,-3.1333,-3.1086,-3.0786,-3.0557,-3.0297,-2.9994,-2.9994,-2.9879,-2.9606,-2.9237,-2.893,-2.8631,-2.7755,-2.7377,-2.7377,-2.68,-2.6245,-2.5688,-2.5688,-2.5302,-2.471,-2.4144,-2.3921,-2.3809,0.0,0.0,0.0,0.0,0.0,0.0,0.0,0.0,0.0,0.0,0.0,0.0,-3.3684,-3.3424,-3.3134,-3.2812,-3.266,-3.2551,-3.2453,-3.2425,-3.2342,-3.2219,-3.2191,0.0,0.0,0.0,0.0,0.0,0.0,0.0,0.0,0.0,0.0,0.0,-3.6903,-3.7488,-3.7578,-3.8912,-3.9661,-3.997,-4.0527,-4.0939,-4.13,-4.1812,-4.2104,-4.2215,-4.1994,-4.1663,-4.119,-4.0201,-3.9339,-3.8373,-3.6552,-3.5356,-3.4329,-3.265,-3.2036,-3.1768,-3.0985,0.0,0.0,0.0,0.0,0.0,-3.0241,-2.9738,-2.9221,-2.8743,-2.8645,-2.8425,-2.7864,-2.7598,-2.7491,-2.7396,-2.7183,-2.7066,-2.7173,-2.7034,-2.6938,-2.7071,-2.6986,-2.6996,-2.7177,-2.7262,-2.7309,-2.7309,-2.8332,-2.911,-2.9473,-3.0813,-3.1618,-3.1618,-3.1333,-3.1086,-3.0786,-3.0557,-3.0297,-2.9994,-2.9994,-2.9879,-2.9606,-2.9237,-2.893,-2.8631,-2.7755,-2.7377,-2.7377,-2.68,-2.6245,-2.5688,-2.5688,-2.5302,-2.471,-2.4144,-2.3921,-2.3809,0.0,0.0,0.0,0.0,0.0,0.0,0.0,0.0,0.0,0.0,0.0,0.0,-3.365,-3.3732,-3.3696,-3.3501,-3.3416,-3.3236,-3.2829,-3.2813,-3.2662,-3.2302,-3.2287,-3.2247,0.0,0.0,0.0,0.0,0.0,0.0,0.0,0.0,0.0,0.0,0.0,0.0,0.0,-3.8912,-3.9711,-4.0071,-4.0832,-4.1337,-4.1678,-4.2355,-4.271,-4.2891,-4.2891,-4.2754,-4.2393,-4.143,-4.0343,-3.9072,-3.7165,-3.6133,-3.5355,-3.4034,-3.3306,-3.2748,0.0,0.0,0.0,-3.1604,0.0,0.0,-3.0496,-2.9705,-2.8963,-2.8545,-2.8482,-2.8298,-2.765,-2.7527,-2.75,-2.7281,-2.6985,-2.6801,-2.6852,-2.6905,-2.6935,-2.7019,-2.7053,-2.7129,-2.7262,-2.7404,-2.7452,-2.7452,-2.8301,-2.9117,-2.9758,-3.0769,-3.1323,-3.1323,-3.1224,-3.1127,-3.0983,-3.0609,-3.0339,-3.0151,-3.0047,-2.9942,-2.9774,-2.929,-2.9026,-2.8824,-2.796,-2.753,-2.7377,-2.6954,-2.6345,-2.5688,-2.5688,-2.5302,-2.4765,-2.4256,-2.4033,-2.3809,0.0,0.0,0.0,0.0,0.0,0.0,0.0,0.0,0.0,0.0,0.0,-3.3459,-3.3945,-3.4395,0.0,0.0,-3.4563,-3.4227,-3.3567,-3.3521,-3.326,-3.2659,-3.2628,-3.2582,-3.2505,0.0,0.0,0.0,0.0,0.0,0.0,0.0,0.0,0.0,0.0,0.0,0.0,-3.9119,-3.9884,-4.0178,-4.1046,-4.1597,-4.1894,-4.2571,-4.2978,-4.3159,-4.3159,-4.3241,-4.3231,-4.219,-4.0809,-3.9325,-3.8034,-3.695,-3.6089,-3.556,-3.4655,0.0,0.0,0.0,0.0,-3.2458,-3.1726,0.0,-3.0609,-2.9634,-2.8692,-2.8194,-2.8213,-2.8069,-2.7183,-2.7245,-2.7325,-2.7121,-2.6792,-2.6487,-2.6296,-2.6638,-2.6819,-2.6635,-2.6952,-2.7222,-2.7274,-2.7463,-2.7579,-2.7631,-2.8551,-2.9397,-3.0111,-3.057,-3.0843,-3.0898,-3.107,-3.1176,-3.1178,-3.0713,-3.0443,-3.0391,-3.0141,-3.0047,-2.9994,-2.9355,-2.9061,-2.9009,-2.8154,-2.7611,-2.7236,-2.7013,-2.6463,-2.5688,-2.5688,-2.5302,-2.4765,-2.4487,-2.42,-2.3865,0.0,0.0,0.0,0.0,0.0,0.0,0.0,0.0,0.0,0.0,0.0,0.0,-3.4534,0.0,0.0,0.0,-3.4505,-3.4443,-3.4305,-3.4289,-3.4243,-3.4104,-3.4104,-3.3798,-3.3213,-3.3071,0.0,0.0,0.0,0.0,0.0,0.0,0.0,0.0,0.0,0.0,0.0,-3.9436,-4.0279,-4.0861,-4.1748,-4.2548,-4.33,-4.3925,-4.4427,-4.474,-4.474,-4.4585,-4.4146,-4.2575,-4.1635,-4.0835,-3.9027,-3.8212,-3.7585,-3.5892,-3.5236,-3.486,-3.4025,-3.3536,-3.3206,-3.31,-3.2599,0.0,-3.1289,-3.0681,-2.9977,-2.8947,-2.8645,-2.8308,-2.7457,-2.709,-2.6816,-2.6434,-2.6274,-2.6313,-2.6711,-2.6689,-2.6663,-2.6618,-2.6703,-2.6858,-2.7239,-2.7327,-2.7522,-2.7872,-2.8646,-2.9256,-2.962,-3.0078,-3.0515,-3.0887,-3.0946,-3.1034,-3.1219,-3.1127,-3.0806,-3.0391,-3.0339,-3.0193,-2.9984,-2.9259,-2.8826,-2.8537,-2.7619,-2.6895,-2.6447,-2.6471,-2.6216,-2.5688,-2.5688,-2.5302,-2.4765,-2.4487,-2.42,-2.3865,0.0,0.0,0.0,0.0,0.0,0.0,0.0,0.0,0.0,0.0,0.0,0.0,0.0,0.0,0.0,0.0,0.0,0.0,0.0,-3.5146,-3.4962,-3.4622,-3.4534,-3.4335,-3.3966,-3.3792,0.0,0.0,0.0,0.0,0.0,0.0,0.0,0.0,0.0,0.0,0.0,-3.9551,-4.0572,-4.1565,-4.2193,-4.2913,-4.3685,-4.4363,-4.4852,-4.5182,-4.5182,-4.4877,-4.4317,-4.3434,-4.2446,-4.1377,-4.0213,-3.9249,-3.8327,-3.7128,-3.6131,-3.5299,-3.4773,-3.4111,-3.357,-3.3466,-3.2919,0.0,0.0,-3.0719,-2.9948,-2.8834,-2.8677,-2.8524,-2.7729,-2.7483,-2.7261,-2.6875,-2.6429,-2.6256,-2.6498,-2.6656,-2.6703,-2.6627,-2.6776,-2.7002,-2.725,-2.7362,-2.7702,-2.8307,-2.8937,-2.9352,-2.9493,-2.9837,-3.0163,-3.0394,-3.0477,-3.0738,-3.1055,-3.0914,-3.067,-3.0261,-3.0096,-2.9775,-2.9301,-2.8778,-2.8411,-2.8136,-2.7508,-2.6839,-2.6191,-2.6253,-2.6,-2.5639,-2.5663,-2.5404,-2.497,-2.4535,-2.42,-2.3865,0.0,0.0,0.0,0.0,0.0,0.0,0.0,0.0,0.0,0.0,0.0,0.0,0.0,-3.6677,-3.7157,0.0,0.0,0.0,-3.6639,-3.6426,-3.6055,-3.5343,-3.5194,-3.4997,-3.4705,-3.4467,-3.4317,0.0,0.0,0.0,0.0,0.0,0.0,0.0,0.0,0.0,0.0,-3.9748,-4.0891,-4.2051,-4.2594,-4.3171,-4.3855,-4.4409,-4.4814,-4.5129,-4.5182,-4.4861,-4.4377,-4.42,-4.3221,-4.194,-4.1269,-4.0188,-3.9038,-3.8411,-3.7137,-3.5915,-3.5715,-3.4978,-3.4192,-3.3984,-3.3328,-3.2506,0.0,0.0,0.0,-2.8845,-2.8738,-2.8637,-2.7963,-2.7834,-2.7709,-2.7322,-2.672,-2.6255,-2.6243,-2.6577,-2.6761,-2.6545,-2.6789,-2.7031,-2.7217,-2.7513,-2.7922,-2.8545,-2.9071,-2.9351,-2.9351,-2.9658,-2.9839,-2.9891,-3.0075,-3.0346,-3.0756,-3.0567,-3.0328,-3.0037,-2.9775,-2.9312,-2.8668,-2.8285,-2.7994,-2.7683,-2.7342,-2.6789,-2.6047,-2.6072,-2.5791,-2.5413,-2.5558,-2.5452,-2.5119,-2.459,-2.42,-2.3865,-3.3882,-3.371,0.0,0.0,0.0,0.0,0.0,0.0,0.0,0.0,0.0,-3.7545,-3.7545,-3.8308,-3.8824,-3.8824,-3.8872,-3.884,-3.8747,-3.8715,-3.834,-3.7483,-3.7437,-3.6786,-3.5429,-3.508,-3.4896,0.0,0.0,0.0,0.0,0.0,0.0,0.0,-3.7758,0.0,0.0,-4.0423,-4.1316,-4.2082,-4.307,-4.3901,-4.4502,-4.4594,-4.4723,-4.4964,-4.5129,-4.5173,-4.498,-4.4173,-4.3805,-4.3355,-4.1776,-4.1035,-4.0419,-3.8842,-3.8162,-3.7712,-3.6945,-3.6069,-3.5365,-3.5221,-3.4571,-3.3684,-3.2738,0.0,-3.1016,-3.0002,0.0,-2.8487,-2.808,0.0,0.0,-2.6835,-2.6641,-2.6517,-2.6384,-2.6542,-2.6508,-2.6187,-2.6208,-2.6498,-2.7216,-2.7696,-2.7986,-2.8086,-2.8522,-2.8791,-2.8791,-2.926,-2.9648,-2.988,-2.9899,-3.0068,-3.0286,-3.0248,-3.0101,-2.9816,-2.9547,-2.9267,-2.8917,-2.8242,-2.7674,-2.7221,-2.6818,-2.6162,-2.5408,-2.5521,-2.5389,-2.5154,-2.5147,-2.516,-2.5119,-2.459,-2.42,-2.3865,-3.3684,-3.3503,0.0,0.0,0.0,0.0,0.0,0.0,0.0,0.0,0.0,-3.7964,-3.8336,-3.8998,-3.9377,-3.9377,-3.9472,-3.9503,-3.9503,-3.933,0.0,-3.8542,-3.8431,-3.8008,-3.7261,-3.6926,-3.6535,0.0,-3.5819,0.0,0.0,0.0,0.0,0.0,-3.7934,-3.8531,-3.9294,-4.0492,-4.1392,-4.2082,-4.3162,-4.4009,-4.461,-4.461,-4.4723,-4.4911,-4.5129,-4.5129,-4.4971,-4.4601,-4.4134,-4.3568,-4.2726,-4.1876,-4.102,-4.0156,-3.9254,-3.8367,-3.7908,-3.7149,-3.6399,-3.5825,-3.5312,-3.4641,-3.3441,-3.2811,-3.2193,-3.1228,0.0,0.0,0.0,0.0,0.0,0.0,-2.6972,-2.6731,-2.6452,-2.6379,-2.6371,-2.6387,-2.6287,-2.6459,-2.7117,-2.7594,-2.8008,-2.8307,-2.8801,-2.9171,-2.9314,-2.9397,-2.9568,-2.9868,-2.96,-2.9645,-2.9998,-2.9891,-2.965,-2.937,-2.9106,-2.8714,-2.817,-2.7769,-2.7359,-2.7021,-2.6635,-2.6149,-2.5528,-2.526,-2.512,-2.5061,-2.4607,-2.4704,-2.5105,-2.4569,-2.42,-2.3865,-3.3424,0.0,0.0,0.0,0.0,0.0,0.0,0.0,-3.6622,-3.7062,-3.788,-3.8666,-3.9245,-4.0007,-4.0531,-4.0563,-4.0801,-4.0944,-4.0944,-4.0672,-4.024,-3.9589,-3.9475,-3.9141,-3.8523,-3.8159,-3.7764,0.0,0.0,0.0,0.0,0.0,0.0,0.0,0.0,-3.8676,-3.9453,-4.0713,-4.165,-4.237,-4.3422,-4.4178,-4.461,-4.461,-4.4685,-4.4836,-4.4964,-4.4927,-4.4799,-4.4799,-4.4399,-4.3818,-4.3484,-4.2689,-4.179,-4.1462,-4.0385,-3.9285,-3.9159,-3.8402,-3.7515,-3.6852,-3.6246,-3.556,-3.4482,-3.3769,-3.3114,-3.2391,-3.1563,0.0,0.0,0.0,-2.8542,-2.8047,0.0,-2.7007,-2.6701,-2.6461,-2.6406,-2.6549,-2.6477,-2.66,-2.6975,-2.7329,-2.7766,-2.8326,-2.8787,-2.9179,-2.9542,-2.9528,-2.9597,-2.975,-2.9475,-2.9455,-2.9681,-2.9481,-2.9245,-2.9007,-2.8663,-2.8232,-2.7726,-2.7441,-2.7177,-2.69,-2.6602,-2.6245,-2.5742,-2.5177,-2.4954,-2.4986,-2.4296,-2.441,-2.4889,-2.4412,-2.4117,-2.3865,-3.3203,-3.3112,0.0,0.0,0.0,0.0,0.0,-3.665,-3.7254,-3.746,-3.8956,-4.0156,-4.0482,-4.1895,-4.2871,-4.3069,-4.3559,-4.3872,-4.3872,-4.3667,-4.2792,-4.1104,-4.1042,-4.0251,-3.8539,-3.8159,-3.8007,-3.7977,0.0,0.0,0.0,0.0,0.0,0.0,-3.8414,-3.9269,-4.0159,-4.1444,-4.2348,-4.3054,-4.4128,-4.4594,-4.461,-4.461,-4.461,-4.461,-4.4625,-4.4625,-4.461,-4.461,-4.4594,-4.4433,-4.3809,-4.3429,-4.3127,-4.2432,-4.1614,-4.0937,-4.0937,-3.995,-3.8884,-3.8666,-3.753,-3.6417,-3.6157,-3.4846,-3.3623,-3.3474,-3.2663,-3.1846,-3.15,-3.0516,-2.9627,0.0,-2.8212,0.0,0.0,-2.693,-2.6618,-2.6432,-2.6624,-2.6786,-2.681,-2.6822,-2.7062,-2.769,-2.7981,-2.8383,-2.8905,-2.9492,-2.969,-2.9437,-2.9715,-2.9611,-2.915,-2.9104,-2.9011,-2.8779,-2.8254,-2.8008,-2.7998,-2.7489,-2.7177,-2.69,-2.6602,-2.6352,-2.6042,-2.5226,-2.4892,-2.485,-2.445,-2.4387,-2.4465,-2.4002,-2.3828,-2.3865,0.0,0.0,0.0,-3.4359,-3.4719,-3.5309,-3.6478,-3.7082,-3.7735,-3.8692,-3.9745,-4.0827,-4.1874,-4.2778,-4.3489,-4.4004,-4.4093,-4.412,-4.412,-4.3844,-4.3327,-4.2478,-4.2412,-4.1833,-4.057,-4.0296,-3.968,-3.8679,0.0,0.0,0.0,0.0,0.0,0.0,0.0,-3.9106,-3.9979,-4.1138,-4.2138,-4.3085,-4.4159,-4.461,-4.461,-4.461,-4.461,-4.461,-4.461,-4.461,-4.461,-4.461,-4.461,-4.4579,-4.4348,-4.3888,-4.3451,-4.322,-4.2625,-4.1939,-4.1372,-4.0863,-4.0263,-3.9176,-3.8512,-3.785,-3.666,-3.5955,-3.5344,-3.46,-3.3671,-3.2879,-3.2502,-3.1594,0.0,0.0,0.0,-2.8505,0.0,-2.71,-2.6837,-2.6621,-2.6364,-2.6335,-2.6688,-2.6724,-2.709,-2.8029,-2.8183,-2.8524,-2.9121,-2.9338,-2.9553,-2.9656,-2.9597,-2.9478,-2.9347,-2.9174,-2.8989,-2.8803,-2.843,-2.8186,-2.7998,-2.7631,-2.7404,-2.7129,-2.6688,-2.6448,-2.6294,-2.5528,-2.5088,-2.4852,-2.4339,-2.4137,-2.4103,-2.4267,-2.415,-2.3809,-3.3123,-3.3701,-3.4353,-3.4645,-3.5229,-3.6013,-3.7035,-3.7628,-3.8409,-3.9639,-4.0711,-4.1735,-4.2787,-4.3695,-4.4409,-4.4844,-4.4948,-4.4955,-4.4886,-4.4519,-4.4106,-4.3519,-4.3432,-4.2942,-4.1971,-4.1745,-4.1122,-4.0076,-3.9622,-3.911,0.0,0.0,0.0,0.0,0.0,-3.9088,-4.0106,-4.1016,-4.2046,-4.3173,-4.4098,-4.4549,-4.461,-4.461,-4.461,-4.461,-4.461,-4.461,-4.461,-4.461,-4.461,-4.461,-4.461,-4.4317,-4.3963,-4.3963,-4.3464,-4.2848,-4.2257,-4.1761,-4.1178,-4.0165,-3.9501,-3.8819,-3.7752,-3.7191,-3.6645,-3.5674,-3.4916,-3.4266,-3.3571,-3.2644,-3.1622,0.0,0.0,0.0,0.0,-2.7369,-2.7079,-2.6829,-2.6452,-2.6278,-2.6602,-2.6639,-2.7011,-2.7866,-2.8051,-2.8392,-2.9038,-2.9209,-2.9397,-2.9597,-2.9581,-2.953,-2.9444,-2.9315,-2.9128,-2.8896,-2.8581,-2.8243,-2.7998,-2.7726,-2.7489,-2.7262,-2.6832,-2.6602,-2.6448,-2.5713,-2.5226,-2.4883,-2.443,-2.4181,-2.4063,-2.4333,-2.4195,-2.3809,-3.3052,-3.4036,-3.4914,-3.4816,-3.5782,-3.6769,-3.7446,-3.8317,-3.9226,-4.027,-4.1743,-4.2865,-4.3277,-4.4663,-4.5635,-4.5667,-4.6019,-4.6243,-4.6096,-4.5698,-4.5107,-4.4268,-4.407,-4.3525,-4.2679,-4.245,-4.2236,-4.1999,-4.1148,0.0,0.0,0.0,0.0,0.0,-3.8491,0.0,-4.0559,-4.1162,-4.2162,-4.3369,-4.405,-4.4396,-4.4587,-4.4587,-4.461,-4.461,-4.461,-4.461,-4.461,-4.461,-4.461,-4.461,-4.461,-4.461,-4.461,-4.461,-4.4163,-4.3639,-4.3624,-4.2684,-4.1678,-4.1617,-4.0512,-3.9378,-3.9317,-3.8527,-3.7538,-3.6727,-3.6376,-3.5866,-3.4675,-3.3672,-3.2644,0.0,0.0,0.0,-2.7967,-2.7656,-2.7403,-2.7045,-2.6829,-2.6658,-2.6499,-2.6499,-2.6725,-2.7278,-2.7602,-2.804,-2.8574,-2.9013,-2.9285,-2.9304,-2.9585,-2.9633,-2.9425,-2.9444,-2.9325,-2.9082,-2.8628,-2.829,-2.7998,-2.7715,-2.7489,-2.7309,-2.7034,-2.6747,-2.6496,-2.5945,-2.5411,-2.4932,-2.4627,-2.444,-2.4251,-2.4123,-2.4045,-2.384,-3.3794,-3.4693,-3.5608,-3.5967,-3.6708,-3.754,-3.8333,-3.9208,-4.0277,-4.1682,-4.256,-4.3515,-4.4637,-4.5257,-4.5812,-4.6293,-4.6218,-4.606,-4.588,-4.5625,-4.5274,-4.4738,-4.4663,-4.4242,-4.3377,-4.3273,-4.2842,-4.1999,-4.1579,0.0,-4.056,0.0,0.0,0.0,0.0,-4.0232,-4.1188,-4.1465,-4.2386,-4.3636,-4.4127,-4.432,-4.4396,-4.4549,-4.461,-4.461,-4.461,-4.461,-4.461,-4.461,-4.461,-4.461,-4.461,-4.461,-4.461,-4.461,-4.4486,-4.424,-4.3747,-4.3362,-4.2869,-4.1848,-4.1289,-4.0696,-3.9566,-3.9096,-3.8606,-3.7586,-3.6892,-3.6186,-3.5434,-3.4608,-3.36,-3.2351,0.0,0.0,-2.8146,-2.7855,-2.7523,-2.7045,-2.6943,-2.6807,-2.6533,-2.6499,-2.6725,-2.7278,-2.7383,-2.7763,-2.8549,-2.8577,-2.8803,-2.9268,-2.9059,-2.9087,-2.9414,-2.9049,-2.8991,-2.9082,-2.885,-2.8571,-2.8301,-2.7998,-2.7773,-2.7499,-2.7081,-2.6853,-2.6747,-2.6197,-2.58,-2.546,-2.4971,-2.449,-2.4021,-2.4111,-2.4051,-2.3769,-3.4644,-3.5308,-3.6023,-3.6631,-3.7513,-3.8319,-3.8852,-3.9652,-4.0788,-4.2406,-4.3153,-4.3994,-4.5165,-4.5669,-4.6022,-4.6337,-4.6458,-4.6432,-4.6124,-4.6184,-4.6077,-4.5795,-4.568,-4.5395,-4.4933,-4.4526,-4.3999,-4.3305,-4.2394,0.0,-4.117,0.0,0.0,0.0,0.0,-4.0466,-4.1186,-4.1865,-4.2684,-4.3557,-4.391,-4.4104,0.0,-4.4396,-4.4473,-4.4473,-4.4572,-4.461,-4.4587,-4.4511,-4.4473,-4.4473,-4.4358,-4.4358,-4.4358,-4.4358,-4.4358,-4.4266,-4.3959,-4.369,-4.3251,-4.2258,-4.1817,-4.1274,-4.0079,-3.978,-3.9444,-3.8485,-3.7843,-3.712,-3.5962,-3.5293,-3.4244,-3.2213,-3.0652,-2.9331,-2.8258,-2.7934,-2.759,-2.7045,-2.6909,-2.6773,-2.6521,-2.6499,-2.6625,-2.6939,-2.7178,-2.7509,-2.8013,-2.8287,-2.8551,-2.8861,-2.8889,-2.9063,-2.941,-2.9134,-2.9094,-2.9255,-2.9035,-2.8757,-2.8395,-2.8243,-2.7961,-2.7594,-2.7309,-2.7081,-2.6853,-2.6448,-2.6052,-2.5645,-2.4971,-2.443,-2.4,-2.4044,-2.3956,-2.3775,-3.5589,-3.5888,-3.6388,-3.7015,-3.82,-3.9122,-3.9264,-4.005,-4.119,-4.2801,-4.3697,-4.4466,-4.5323,-4.5911,-4.6255,-4.6223,-4.6727,-4.6909,-4.663,-4.6966,-4.706,-4.6865,-4.6683,-4.6548,-4.6548,-4.5782,-4.5294,-4.5071,-4.3422,0.0,0.0,0.0,0.0,0.0,0.0,0.0,0.0,-4.2184,-4.289,-4.329,-4.3557,-4.3754,-4.3988,-4.4166,-4.4243,-4.4281,-4.4473,-4.4549,-4.4534,-4.4358,-4.4281,-4.4243,-4.4065,-4.3988,-4.3988,-4.3988,-4.3988,-4.4026,-4.4205,-4.3853,-4.3227,-4.2677,-4.2083,-4.1474,-4.0639,-4.0366,-4.0058,-3.9256,-3.8886,-3.8137,-3.635,-3.5673,-3.4466,-3.1691,-3.0632,-2.9657,-2.8304,-2.7934,-2.759,-2.7045,-2.6829,0.0,-2.6499,-2.6499,-2.6499,-2.6499,-2.6939,-2.7241,-2.7281,-2.8063,-2.8435,-2.8281,-2.8878,-2.9213,-2.9284,-2.93,-2.9351,-2.9385,-2.9187,-2.885,-2.8441,-2.8395,-2.8113,-2.7631,-2.7631,-2.7357,-2.6948,-2.6651,-2.6197,-2.5645,-2.4873,-2.4381,-2.4071,-2.3982,-2.3852,-2.3724,-3.6207,-3.6727,-3.7285,-3.7763,-3.8748,-3.9677,-4.0261,-4.1462,-4.2584,-4.3456,-4.4429,-4.532,-4.5897,-4.6052,-4.6355,-4.6875,-4.674,-4.674,-4.7075,-4.6998,-4.6865,-4.6667,-4.6444,-4.6364,-4.6364,-4.6016,-4.5698,-4.5479,-4.4306,-4.3582,0.0,0.0,0.0,0.0,0.0,0.0,-4.2109,-4.2348,-4.2688,-4.3076,-4.329,-4.3503,-4.3754,-4.3988,-4.4065,-4.4065,-4.4104,-4.4205,-4.4358,-4.432,-4.4166,-4.4065,-4.4026,-4.3988,-4.3988,-4.3988,-4.3988,-4.4026,-4.405,-4.3974,-4.3594,-4.2415,-4.2129,-4.1826,-4.0426,-4.0207,-4.0161,-3.9672,-3.9114,-3.8287,-3.6976,-3.5354,-3.3582,-3.1768,-3.1046,-3.0123,-2.8357,-2.7934,-2.759,-2.7045,-2.6829,-2.6658,-2.6499,-2.6499,-2.6499,-2.6499,-2.6587,-2.6839,-2.7291,-2.769,-2.8064,-2.8269,-2.8515,-2.8652,-2.8762,-2.878,-2.8807,-2.8835,-2.902,-2.8989,-2.871,-2.8488,-2.8243,-2.7904,-2.7678,-2.7452,-2.7214,-2.6938,-2.64,-2.5645,-2.5323,-2.4735,-2.4093,-2.4058,-2.3838,-2.3557,-3.7313,-3.7791,-3.8291,-3.8489,-3.9563,-4.0498,-4.0817,-4.2345,-4.3568,-4.3934,-4.4639,-4.5391,-4.6032,-4.6233,-4.6455,-4.6771,-4.7164,-4.7458,-4.7573,-4.7827,-4.7827,-4.7487,-4.7405,-4.7282,-4.7159,-4.6561,-4.6173,-4.595,-4.4849,-4.4204,0.0,0.0,0.0,0.0,0.0,-4.2379,0.0,-4.3303,-4.3497,-4.3661,-4.3664,-4.3747,-4.3838,-4.385,-4.3832,-4.3871,-4.3949,-4.3988,-4.3988,-4.3988,-4.391,-4.3832,-4.366,-4.366,-4.366,-4.366,-4.366,-4.366,-4.3793,-4.3832,-4.3553,-4.2333,-4.2058,-4.1782,-4.035,-4.0066,-4.0066,-3.9753,-3.9369,-3.856,-3.6902,-3.5111,-3.3431,-3.2041,-3.1237,-3.0289,-2.8786,-2.7953,-2.7403,-2.7045,-2.6671,-2.643,-2.6339,-2.6258,-2.6292,-2.6487,-2.6499,-2.6612,-2.6876,-2.719,-2.7532,-2.7889,-2.8123,-2.8355,-2.8621,-2.8908,-2.8944,-2.8712,-2.9113,-2.9128,-2.8803,-2.8664,-2.8477,-2.8196,-2.7904,-2.7678,-2.7404,-2.688,-2.64,-2.5849,-2.547,-2.4981,-2.448,-2.4183,-2.3913,-2.3644,-3.8258,-3.8682,-3.9127,-3.9241,-4.0299,-4.1276,-4.1564,-4.3135,-4.4237,-4.417,-4.4782,-4.5472,-4.6131,-4.6376,-4.6614,-4.6837,-4.7692,-4.818,-4.8047,-4.8548,-4.8692,-4.8244,-4.816,-4.8091,-4.7922,-4.7138,-4.6656,-4.6444,-4.5348,-4.4698,-4.4498,0.0,0.0,0.0,-4.2438,-4.2868,-4.3617,-4.4008,-4.4223,-4.4307,-4.413,-4.4057,-4.4002,-4.3803,-4.3677,-4.3636,-4.3793,-4.3754,-4.3596,-4.3596,-4.3596,-4.3596,-4.3384,-4.329,-4.329,-4.329,-4.329,-4.3344,-4.3557,-4.3596,-4.332,-4.2168,-4.1888,-4.1576,-4.0192,-3.9889,-3.9889,-3.9696,-3.9221,-3.8341,-3.6633,-3.4971,-3.3496,-3.2283,-3.1405,-3.0433,-2.9187,-2.8108,-2.7343,-2.699,-2.6512,-2.6166,-2.6131,-2.598,-2.605,-2.6361,-2.6396,-2.643,-2.643,-2.6791,-2.7124,-2.7422,-2.7771,-2.811,-2.8457,-2.9031,-2.906,-2.8567,-2.9205,-2.9255,-2.8803,-2.8803,-2.8664,-2.8395,-2.8139,-2.7809,-2.7489,-2.6832,-2.6448,-2.6149,-2.5674,-2.5274,-2.4932,-2.443,-2.4093,-2.3845,-3.8595,-3.8983,-3.9505,-4.0001,-4.0789,-4.1802,-4.3073,-4.3958,-4.4338,-4.4065,-4.5174,-4.6111,-4.6444,-4.6495,-4.6946,-4.8035,-4.7984,-4.8109,-4.8522,-4.8423,-4.826,-4.8049,-4.7794,-4.7681,-4.7624,-4.7364,-4.7118,-4.6827,-4.5943,-4.5417,-4.5157,-4.3863,-4.3079,-4.2844,-4.2844,-4.3107,-4.3574,-4.3675,-4.3921,-4.4294,-4.4278,-4.4164,-4.4005,-4.3987,-4.3707,-4.3329,-4.3369,-4.3329,-4.3329,-4.3329,-4.3329,-4.3329,-4.329,-4.329,-4.329,-4.329,-4.329,-4.329,-4.3329,-4.3329,-4.3015,-4.179,-4.1588,-4.1317,-3.9796,-3.9589,-3.9661,-3.9445,-3.8204,-3.6978,-3.6401,-3.4971,-3.3496,-3.2283,-3.1716,-3.0875,-2.9241,-2.8449,-2.7713,-2.6824,-2.6443,-2.6131,-2.5945,-2.591,-2.591,-2.5945,-2.6131,-2.6236,-2.6236,-2.6733,-2.7088,-2.7224,-2.7543,-2.7797,-2.7951,-2.8664,-2.8703,-2.8086,-2.9048,-2.9255,-2.8803,-2.8803,-2.8664,-2.8395,-2.8139,-2.7762,-2.7309,-2.6986,-2.6699,-2.6448,-2.6149,-2.5713,-2.5235,-2.4932,-2.4538,-2.4099,-3.9583,-4.009,-4.0655,-4.1225,-4.1866,-4.2648,-4.3653,-4.4088,-4.4415,-4.4726,-4.5547,-4.6206,-4.6463,-4.6752,-4.7162,-4.7824,-4.8029,-4.8162,-4.8229,-4.816,-4.8189,-4.8326,-4.827,-4.832,-4.8594,-4.8387,-4.7926,-4.7303,-4.6815,-4.618,-4.5385,-4.4348,-4.3645,-4.3254,-4.3407,-4.3769,-4.4364,-4.462,-4.4844,-4.5023,-4.4894,-4.4905,-4.4894,-4.4235,-4.3964,-4.3828,-4.3439,-4.329,-4.329,-4.329,-4.329,-4.329,-4.329,-4.329,-4.329,-4.329,-4.329,-4.329,-4.329,-4.329,-4.2976,-4.1713,-4.146,-4.1153,-3.9723,-3.9445,-3.9481,-3.925,-3.7902,-3.6564,-3.6101,-3.4831,-3.3589,-3.2632,-3.1865,-3.0961,-2.9722,-2.8656,-2.7674,-2.679,-2.6292,-2.5945,-2.5723,-2.5606,-2.5571,-2.5723,-2.591,-2.6015,-2.6015,-2.6414,-2.6761,-2.7012,-2.7363,-2.7577,-2.7655,-2.8544,-2.868,-2.8019,-2.9026,-2.9255,-2.8803,-2.8803,-2.8571,-2.8139,-2.8045,-2.7715,-2.7262,-2.6996,-2.6853,-2.6699,-2.6245,-2.5849,-2.5509,-2.5235,-2.4784,-2.431,-4.0396,-4.1066,-4.1737,-4.2131,-4.261,-4.3209,-4.4137,-4.425,-4.4523,-4.5469,-4.5953,-4.636,-4.6686,-4.7107,-4.7517,-4.7768,-4.8094,-4.8175,-4.788,-4.788,-4.8054,-4.8501,-4.8487,-4.8714,-4.9164,-4.9012,-4.8547,-4.7742,-4.7483,-4.6826,-4.5777,-4.4812,-4.4163,-4.3764,-4.3934,-4.4266,-4.4844,-4.523,-4.5413,-4.5506,-4.5417,-4.5435,-4.5374,-4.4509,-4.421,-4.4105,-4.3529,-4.329,-4.329,-4.329,-4.329,-4.329,-4.329,-4.329,-4.329,-4.329,-4.329,-4.329,-4.329,-4.329,-4.2976,-4.1713,-4.1422,-4.1025,-3.9636,-3.9301,-3.9228,-3.8995,-3.7636,-3.6351,-3.5899,-3.4668,-3.3486,-3.281,-3.2003,-3.1137,-3.0192,-2.8943,-2.7812,-2.6892,-2.6206,-2.5723,-2.5465,-2.5253,-2.5218,-2.5371,-2.5489,-2.563,-2.5723,-2.6045,-2.637,-2.6723,-2.7044,-2.7277,-2.751,-2.8449,-2.8626,-2.815,-2.9071,-2.9301,-2.8896,-2.885,-2.856,-2.8092,-2.8034,-2.7762,-2.7357,-2.7129,-2.6948,-2.6853,-2.64,-2.6042,-2.58,-2.543,-2.5088,-2.4686,-4.0836,-4.1721,-4.2489,-4.2489,-4.2714,-4.3372,-4.4772,-4.454,-4.4699,-4.6106,-4.6418,-4.6664,-4.7123,-4.7612,-4.7988,-4.8267,-4.8286,-4.8076,-4.7624,-4.7581,-4.7795,-4.8296,-4.8282,-4.8507,-4.8906,-4.8921,-4.8617,-4.8112,-4.7817,-4.7279,-4.6469,-4.5313,-4.4644,-4.4397,-4.4397,-4.4551,-4.4783,-4.5046,-4.5261,-4.5504,-4.579,-4.5622,-4.5142,-4.4727,-4.4347,-4.3916,-4.3449,-4.329,-4.329,-4.329,-4.329,-4.329,-4.329,-4.329,-4.329,-4.329,-4.329,-4.329,-4.329,-4.329,-4.2976,-4.1713,-4.1422,-4.1003,-3.9438,-3.9104,-3.8995,-3.859,-3.7346,-3.6208,-3.5862,-3.4441,-3.3157,-3.2775,-3.2264,-3.1552,-3.0517,-2.9398,-2.828,-2.714,-2.617,-2.5465,-2.5159,-2.4921,-2.479,-2.479,-2.479,-2.4957,-2.5276,-2.5612,-2.5963,-2.6282,-2.6566,-2.6959,-2.751,-2.828,-2.8582,-2.84,-2.9162,-2.9359,-2.9082,-2.8896,-2.8664,-2.8395,-2.8139,-2.7857,-2.7584,-2.7404,-2.7129,-2.6853,-2.6602,-2.6342,-2.6042,-2.5479,-2.5284,-2.5235,-4.1774,-4.2378,-4.2972,-4.339,-4.3224,-4.3528,-4.4999,-4.4639,-4.4699,-4.6122,-4.6697,-4.7005,-4.7185,-4.7508,-4.7799,-4.8072,-4.7922,-4.7709,-4.7424,-4.7381,-4.7875,-4.8955,-4.882,-4.9206,-5.0184,-4.9899,-4.93,-4.8515,-4.8249,-4.7564,-4.6547,-4.6076,-4.5799,-4.5703,-4.5703,-4.5498,-4.5185,-4.5407,-4.5385,-4.5261,-4.5504,-4.5735,-4.5786,-4.4946,-4.4628,-4.4567,-4.3613,-4.329,-4.329,-4.329,-4.329,-4.329,-4.329,-4.329,-4.329,-4.329,-4.329,-4.325,-4.3115,-4.3115,-4.2763,-4.1353,-4.1003,-4.0609,-3.9203,-3.8811,-3.8664,-3.8516,-3.7237,-3.6014,-3.5826,-3.4441,-3.3171,-3.2775,-3.2264,-3.1529,-3.053,-2.9626,-2.8518,-2.7155,-2.6382,-2.5721,-2.5147,-2.4814,-2.461,-2.461,-2.4632,-2.489,-2.5429,-2.5889,-2.6256,-2.6578,-2.7011,-2.7279,-2.7301,-2.8249,-2.8582,-2.84,-2.9162,-2.9301,-2.8896,-2.885,-2.8664,-2.8395,-2.8139,-2.7857,-2.7584,-2.7394,-2.7262,-2.7177,-2.689,-2.6602,-2.6352,-2.5955,-2.5616,-2.5322,-4.2315,-4.293,-4.3533,-4.3914,-4.3492,-4.3604,-4.5079,-4.4672,-4.4699,-4.6051,-4.6591,-4.6881,-4.7068,-4.7244,-4.7526,-4.7946,-4.7752,-4.7495,-4.7294,-4.7309,-4.7849,-4.9089,-4.9012,-4.9423,-5.0508,-5.0168,-4.9592,-4.8958,-4.831,-4.7606,-4.6798,-4.6441,-4.6293,-4.6293,-4.6293,-4.6069,-4.5675,-4.5675,-4.5618,-4.5467,-4.5513,-4.573,-4.5974,-4.5141,-4.484,-4.4753,-4.389,-4.3474,-4.329,-4.329,-4.329,-4.329,-4.329,-4.329,-4.329,-4.329,-4.325,-4.3155,-4.3036,-4.2941,-4.2564,-4.1159,-4.0811,-4.0418,-3.9017,-3.8538,-3.8366,-3.8292,-3.7205,-3.612,-3.565,-3.4409,-3.3259,-3.2616,-3.2046,-3.1412,-3.0614,-2.9688,-2.8662,-2.752,-2.6748,-2.6016,-2.5377,-2.5022,-2.48,-2.4714,-2.4748,-2.4997,-2.5574,-2.5923,-2.6196,-2.6359,-2.6892,-2.7126,-2.7097,-2.8091,-2.8539,-2.8519,-2.9195,-2.9255,-2.8803,-2.8803,-2.871,-2.8535,-2.829,-2.7998,-2.7726,-2.7489,-2.7357,-2.7262,-2.6986,-2.6805,-2.6602,-2.6245,-2.5907,-2.5635,-4.2541,-4.3383,-4.4097,-4.4097,-4.3535,-4.3604,-4.5079,-4.4672,-4.4665,-4.5945,-4.6139,-4.6375,-4.6826,-4.6951,-4.7281,-4.7946,-4.7752,-4.751,-4.7294,-4.7354,-4.7806,-4.8862,-4.892,-4.9297,-5.0057,-4.9829,-4.9537,-4.9256,-4.8162,-4.7497,-4.7263,-4.6687,-4.642,-4.642,-4.642,-4.6392,-4.6321,-4.5957,-4.5898,-4.6052,-4.5669,-4.5683,-4.5808,-4.5376,-4.4936,-4.4531,-4.4161,-4.3696,-4.329,-4.329,-4.329,-4.329,-4.329,-4.329,-4.329,-4.329,-4.3155,-4.2981,-4.2981,-4.2835,-4.2379,-4.1081,-4.0698,-4.0238,-3.8793,-3.8315,-3.8127,-3.7929,-3.7238,-3.6347,-3.5376,-3.4353,-3.334,-3.235,-3.168,-3.1123,-3.0736,-2.9656,-2.8699,-2.8051,-2.7184,-2.6391,-2.5754,-2.5511,-2.5266,-2.501,-2.5004,-2.5228,-2.5719,-2.5775,-2.5838,-2.5838,-2.6356,-2.6685,-2.6891,-2.789,-2.8553,-2.8772,-2.9274,-2.9255,-2.8803,-2.8803,-2.8803,-2.8803,-2.8535,-2.8243,-2.7998,-2.7726,-2.7499,-2.7262,-2.7044,-2.69,-2.6853,-2.6294,-2.611,-2.6103,-4.2671,-4.3422,-4.4097,-4.4097,-4.3535,-4.3604,-4.5079,-4.4672,-4.4665,-4.5945,-4.6139,-4.6375,-4.6826,-4.6951,-4.7281,-4.7946,-4.7639,-4.7337,-4.7309,-4.7583,-4.809,-4.8892,-4.9012,-4.9267,-4.9752,-4.9551,-4.9143,-4.8695,-4.8203,-4.7959,-4.7895,-4.7754,-4.7684,-4.7684,-4.7684,-4.7431,-4.6982,-4.6891,-4.6452,-4.5799,-4.5891,-4.5812,-4.5582,-4.5273,-4.4849,-4.4334,-4.4078,-4.3615,-4.3076,-4.325,-4.329,-4.329,-4.329,-4.329,-4.329,-4.329,-4.3155,-4.2996,-4.2795,-4.2607,-4.2111,-4.0635,-3.9532,-3.8655,-3.8138,-3.8005,-3.7929,-3.7701,-3.6921,-3.6033,-3.5339,-3.408,-3.2944,-3.2314,-3.1582,-3.0936,-3.052,-2.9782,-2.8929,-2.7881,-2.7287,-2.6624,-2.5789,-2.5394,-2.5072,-2.4803,-2.501,-2.5205,-2.5337,-2.5689,-2.6063,-2.6382,-2.6535,-2.6633,-2.6685,-2.7804,-2.8818,-2.9624,-2.9522,-2.9347,-2.9035,-2.8896,-2.8803,-2.8803,-2.8535,-2.8243,-2.7998,-2.7726,-2.7499,-2.7309,-2.7214,-2.7081,-2.6853,-2.6554,-2.6455,-2.6596,-4.268,-4.3449,-4.4097,-4.4097,-4.3535,-4.3573,-4.4934,-4.4606,-4.4596,-4.5694,-4.5776,-4.601,-4.6678,-4.658,-4.6917,-4.7931,-4.7553,-4.7251,-4.7121,-4.7629,-4.8104,-4.8542,-4.877,-4.9126,-4.9522,-4.9143,-4.8745,-4.8308,-4.817,-4.812,-4.812,-4.812,-4.812,-4.812,-4.812,-4.7937,-4.76,-4.7333,-4.6792,-4.6115,-4.5974,-4.5756,-4.5475,-4.5385,-4.5084,-4.4659,-4.427,-4.3856,-4.3452,-4.322,-4.321,-4.329,-4.329,-4.329,-4.329,-4.321,-4.3036,-4.2835,-4.2729,-4.2474,-4.1922,-4.0463,-3.9069,-3.8028,-3.7929,-3.7815,-3.7701,-3.738,-3.688,-3.6143,-3.4857,-3.4002,-3.3046,-3.1864,-3.1211,-3.0685,-3.019,-2.9638,-2.8929,-2.8023,-2.7644,-2.7091,-2.6189,-2.5915,-2.5623,-2.5301,-2.5431,-2.5502,-2.5502,-2.5753,-2.6032,-2.6271,-2.6271,-2.6313,-2.6396,-2.7719,-2.8899,-2.9886,-2.9737,-2.9508,-2.9082,-2.8989,-2.8896,-2.8803,-2.8675,-2.843,-2.8149,-2.7904,-2.7631,-2.7441,-2.7357,-2.7214,-2.7034,-2.6794,-2.6778,-2.6904,-4.2663,-4.3365,-4.3963,-4.408,-4.3535,-4.3542,-4.4805,-4.4539,-4.4527,-4.5389,-4.53,-4.5546,-4.6449,-4.6163,-4.6466,-4.7801,-4.76,-4.7313,-4.708,-4.7629,-4.8071,-4.8243,-4.8617,-4.8938,-4.9242,-4.8695,-4.8358,-4.812,-4.812,-4.812,-4.812,-4.812,-4.812,-4.812,-4.812,-4.812,-4.8078,-4.7474,-4.694,-4.6486,-4.5926,-4.557,-4.5413,-4.5458,-4.534,-4.504,-4.4485,-4.4137,-4.3779,-4.3178,-4.309,-4.321,-4.325,-4.325,-4.317,-4.3036,-4.285,-4.2648,-4.2648,-4.2246,-4.1526,-4.0354,-3.8967,-3.7891,-3.7777,-3.7625,-3.738,-3.6993,-3.6861,-3.6211,-3.4355,-3.3908,-3.3171,-3.132,-3.0773,-3.0356,-2.9818,-2.9339,-2.8816,-2.8219,-2.8002,-2.7557,-2.6727,-2.6603,-2.6437,-2.599,-2.5906,-2.5895,-2.5895,-2.5895,-2.5895,-2.5895,-2.5895,-2.6098,-2.6493,-2.7712,-2.8899,-2.9931,-2.9886,-2.9657,-2.9231,-2.9128,-2.8989,-2.885,-2.8803,-2.8664,-2.8395,-2.8092,-2.7857,-2.7584,-2.7404,-2.7309,-2.7272,-2.7068,-2.7073,-2.7202,-4.2586,-4.297,-4.3361,-4.3997,-4.3535,-4.3542,-4.4805,-4.4539,-4.4527,-4.5389,-4.53,-4.5508,-4.6251,-4.6082,-4.6384,-4.7561,-4.7744,-4.7792,-4.7748,-4.8176,-4.8566,-4.8945,-4.9107,-4.9106,-4.8959,-4.8409,-4.812,-4.812,-4.812,-4.812,-4.812,-4.812,-4.812,-4.812,-4.812,-4.812,-4.8078,-4.7474,-4.6855,-4.6334,-4.5878,-4.5397,-4.4968,-4.5367,-4.516,-4.4659,-4.4398,-4.3941,-4.3324,-4.2909,-4.2769,-4.2809,-4.2996,-4.2915,-4.2809,-4.2955,-4.2729,-4.2433,-4.2433,-4.1452,-4.0325,-3.9939,-3.8865,-3.7777,-3.7264,-3.7109,-3.6993,-3.6589,-3.6178,-3.5503,-3.424,-3.3405,-3.2476,-3.1207,-3.0394,-2.9818,-2.9509,-2.9118,-2.8605,-2.8002,-2.7921,-2.7638,-2.6933,-2.6685,-2.6479,-2.6199,-2.599,-2.5895,-2.5895,-2.5895,-2.5895,-2.5895,-2.5895,-2.6501,-2.7805,-2.8049,-2.8832,-3.0136,-2.9977,-2.9851,-2.9748,-2.9324,-2.9082,-2.9035,-2.8896,-2.8664,-2.8395,-2.8092,-2.7857,-2.7584,-2.7404,-2.7309,-2.7303,-2.7444,-2.7579,-2.7723,-4.2569,-4.2912,-4.3311,-4.3963,-4.3535,-4.3542,-4.4805,-4.4539,-4.4527,-4.5389,-4.5649,-4.5896,-4.6257,-4.6432,-4.6792,-4.7548,-4.779,-4.8,-4.8221,-4.8595,-4.8846,-4.8869,-4.9009,-4.8909,-4.8459,-4.8221,-4.812,-4.812,-4.812,-4.812,-4.812,-4.812,-4.812,-4.812,-4.812,-4.812,-4.8078,-4.7474,-4.6855,-4.6237,-4.5687,-4.5209,-4.4844,-4.5184,-4.518,-4.503,-4.4734,-4.4267,-4.3767,-4.3192,-4.286,-4.2729,-4.2795,-4.2769,-4.2688,-4.2688,-4.2541,-4.2392,-4.2284,-4.112,-3.9921,-3.9816,-3.8592,-3.7341,-3.707,-3.6705,-3.6389,-3.6098,-3.5764,-3.5076,-3.358,-3.2962,-3.2241,-3.0752,-3.0126,-2.9663,-2.9275,-2.9,-2.8605,-2.8111,-2.7962,-2.7679,-2.7115,-2.688,-2.6685,-2.6437,-2.6313,-2.6271,-2.6271,-2.6271,-2.6271,-2.6271,-2.6157,-2.6705,-2.8073,-2.8215,-2.892,-3.0216,-3.0091,-3.0011,-2.9897,-2.9497,-2.922,-2.9082,-2.8896,-2.871,-2.8571,-2.8186,-2.7951,-2.7762,-2.7441,-2.7309,-2.7361,-2.7662,-2.7879,-2.8036,-4.2561,-4.2857,-4.3239,-4.3975,-4.3565,-4.3573,-4.4789,-4.4539,-4.4527,-4.5389,-4.5915,-4.6183,-4.6207,-4.6681,-4.7159,-4.7617,-4.7881,-4.8221,-4.861,-4.9036,-4.9149,-4.8943,-4.8934,-4.866,-4.812,-4.812,-4.812,-4.812,-4.812,-4.812,-4.812,-4.812,-4.812,-4.812,-4.812,-4.812,-4.8078,-4.7319,-4.6715,-4.6223,-4.5436,-4.4927,-4.4737,-4.4954,-4.5184,-4.5372,-4.4948,-4.4676,-4.4325,-4.348,-4.3006,-4.2772,-4.2666,-4.2581,-4.2541,-4.2433,-4.2351,-4.2284,-4.2078,-4.0932,-3.9776,-3.9656,-3.8303,-3.6993,-3.6875,-3.6389,-3.5871,-3.5669,-3.5386,-3.4659,-3.2974,-3.2579,-3.1966,-3.0368,-2.9856,-2.9507,-2.9131,-2.8895,-2.8605,-2.8259,-2.807,-2.7829,-2.74,-2.7115,-2.6921,-2.6757,-2.6644,-2.6603,-2.6603,-2.6603,-2.6603,-2.6603,-2.6396,-2.6917,-2.816,-2.8302,-2.902,-3.0216,-3.0216,-3.0136,-2.9977,-2.9737,-2.9451,-2.9174,-2.8943,-2.885,-2.8757,-2.8233,-2.7998,-2.794,-2.7489,-2.7309,-2.7372,-2.7883,-2.8119,-2.8269,-4.2484,-4.2513,-4.2726,-4.3903,-4.3717,-4.3744,-4.4821,-4.4539,-4.4527,-4.5389,-4.5915,-4.6145,-4.5966,-4.6557,-4.7229,-4.7807,-4.825,-4.8639,-4.9018,-4.9455,-4.9659,-4.9611,-4.9164,-4.866,-4.812,-4.812,-4.812,-4.812,-4.812,-4.812,-4.812,-4.812,-4.812,-4.812,-4.812,-4.812,-4.805,-4.6869,-4.6335,-4.6181,-4.4973,-4.4453,-4.4457,-4.4737,-4.4954,-4.5084,-4.4739,-4.4732,-4.4676,-4.3456,-4.3005,-4.2902,-4.2541,-4.2284,-4.2175,-4.2366,-4.2284,-4.2036,-4.1785,-4.0781,-3.9696,-3.9363,-3.8119,-3.6915,-3.6549,-3.6058,-3.5669,-3.548,-3.4936,-3.4086,-3.2908,-3.2247,-3.1489,-3.0291,-2.9573,-2.9131,-2.9091,-2.8788,-2.8419,-2.8219,-2.8179,-2.8099,-2.7881,-2.7452,-2.7185,-2.7144,-2.6787,-2.6603,-2.6603,-2.6603,-2.6603,-2.6603,-2.6603,-2.7158,-2.8377,-2.8389,-2.902,-3.0216,-3.0216,-3.017,-3.017,-2.9966,-2.9737,-2.9439,-2.9174,-2.8989,-2.8757,-2.8233,-2.7998,-2.794,-2.7489,-2.7309,-2.7413,-2.8245,-2.8397,-2.8259,-4.2467,-4.2541,-4.2794,-4.3903,-4.4066,-4.4268,-4.508,-4.5026,-4.5215,-4.6181,-4.6595,-4.6741,-4.6579,-4.7558,-4.8134,-4.7941,-4.8648,-4.9125,-4.9106,-4.948,-4.9634,-4.9453,-4.9108,-4.876,-4.8358,-4.817,-4.812,-4.812,-4.812,-4.812,-4.812,-4.812,-4.812,-4.812,-4.812,-4.812,-4.8078,-4.7221,-4.6645,-4.6223,-4.5338,-4.4748,-4.4411,-4.4705,-4.4908,-4.5095,-4.514,-4.5064,-4.4806,-4.4327,-4.3645,-4.2948,-4.2842,-4.248,-4.2133,-4.2216,-4.2175,-4.2009,-4.1606,-4.0576,-3.9536,-3.9106,-3.7814,-3.6496,-3.6058,-3.5642,-3.5277,-3.5086,-3.4577,-3.3851,-3.2574,-3.2047,-3.1369,-3.011,-2.956,-2.9275,-2.9275,-2.8922,-2.8645,-2.8566,-2.8367,-2.8179,-2.8111,-2.7829,-2.7615,-2.7615,-2.733,-2.7156,-2.7156,-2.7044,-2.6974,-2.6974,-2.6974,-2.7421,-2.8389,-2.8507,-2.9129,-3.0216,-3.0216,-3.0216,-3.017,-2.9966,-2.984,-2.9737,-2.9266,-2.9082,-2.8943,-2.843,-2.8139,-2.7951,-2.7631,-2.7404,-2.7423,-2.8276,-2.8518,-2.8501,-4.2492,-4.2619,-4.2884,-4.3915,-4.4328,-4.4659,-4.5226,-4.548,-4.5904,-4.6682,-4.7229,-4.7468,-4.7319,-4.8329,-4.8858,-4.8431,-4.906,-4.9431,-4.9318,-4.9737,-4.9803,-4.932,-4.9344,-4.9195,-4.8944,-4.8853,-4.8714,-4.8517,-4.8415,-4.8266,-4.812,-4.812,-4.812,-4.812,-4.812,-4.812,-4.8078,-4.7474,-4.6855,-4.6237,-4.5591,-4.4959,-4.4411,-4.4597,-4.4862,-4.5124,-4.5307,-4.5306,-4.5169,-4.4951,-4.4182,-4.3268,-4.3065,-4.2586,-4.2092,-4.2092,-4.2092,-4.2009,-4.1522,-4.061,-3.9658,-3.8944,-3.7572,-3.6272,-3.5804,-3.5399,-3.5044,-3.4839,-3.4369,-3.3601,-3.232,-3.1886,-3.1248,-3.0006,-2.956,-2.9419,-2.9419,-2.9106,-2.8882,-2.8882,-2.8645,-2.8498,-2.8498,-2.8231,-2.8082,-2.8082,-2.7788,-2.7615,-2.7615,-2.7505,-2.7435,-2.7435,-2.7342,-2.7702,-2.8594,-2.8669,-2.9206,-3.0216,-3.0216,-3.0216,-3.0216,-3.0057,-2.9977,-2.9886,-2.9508,-2.9266,-2.9082,-2.8664,-2.8384,-2.8092,-2.7726,-2.7499,-2.7508,-2.8276,-2.8618,-2.8641,-4.2518,-4.268,-4.3017,-4.3961,-4.4451,-4.4832,-4.5226,-4.5866,-4.6426,-4.6745,-4.7667,-4.8196,-4.7931,-4.8559,-4.9147,-4.9459,-4.9498,-4.9574,-4.9688,-5.0307,-5.0295,-4.9349,-4.9974,-5.0169,-4.9946,-5.0223,-5.0134,-4.9524,-4.915,-4.8673,-4.8134,-4.8134,-4.812,-4.812,-4.812,-4.812,-4.8078,-4.7474,-4.6869,-4.6237,-4.5591,-4.4959,-4.4411,-4.4411,-4.4676,-4.5124,-4.5124,-4.5458,-4.5779,-4.5111,-4.4487,-4.3863,-4.3195,-4.2571,-4.2092,-4.2092,-4.2092,-4.2009,-4.1522,-4.0939,-4.0187,-3.8809,-3.7437,-3.6272,-3.5804,-3.5399,-3.5044,-3.4839,-3.4189,-3.3367,-3.2292,-3.1711,-3.1035,-2.9967,-2.9573,-2.9419,-2.9419,-2.9236,-2.9091,-2.9091,-2.9091,-2.9091,-2.9091,-2.8749,-2.851,-2.851,-2.8122,-2.7893,-2.7893,-2.7893,-2.7893,-2.7893,-2.7655,-2.7969,-2.9001,-2.8786,-2.9206,-3.0216,-3.0216,-3.0216,-3.0216,-3.0216,-3.0091,-2.9886,-2.9886,-2.9611,-2.9082,-2.8896,-2.8617,-2.8348,-2.7831,-2.7584,-2.7699,-2.8375,-2.8618,-2.8641,-4.2518,-4.268,-4.3017,-4.3961,-4.482,-4.5393,-4.5291,-4.632,-4.7196,-4.7472,-4.8373,-4.8908,-4.8703,-4.9725,-5.0246,-4.9796,-5.002,-5.0279,-5.0386,-5.0618,-5.0786,-5.0882,-5.0919,-5.0918,-5.0816,-5.0732,-5.0577,-5.0392,-4.9876,-4.9425,-4.9073,-4.8621,-4.8258,-4.812,-4.812,-4.812,-4.812,-4.7937,-4.7249,-4.6279,-4.6083,-4.5366,-4.4411,-4.4411,-4.4676,-4.5124,-4.5124,-4.5458,-4.5851,-4.5648,-4.4879,-4.3805,-4.2702,-4.2237,-4.2092,-4.2092,-4.1953,-4.1758,-4.148,-4.0813,-3.9883,-3.863,-3.7647,-3.6714,-3.5534,-3.5195,-3.499,-3.4618,-3.4063,-3.3495,-3.2806,-3.1978,-3.1173,-3.0482,-2.9991,-2.9702,-2.9702,-2.9482,-2.9314,-2.9314,-2.9197,-2.9091,-2.9091,-2.8973,-2.8934,-2.8934,-2.855,-2.8203,-2.7933,-2.7893,-2.7893,-2.7893,-2.8193,-2.8644,-2.9258,-2.8872,-2.9206,-3.0216,-3.0216,-3.0216,-3.0216,-3.0216,-3.017,-3.0091,-2.9977,-2.9794,-2.9657,-2.9174,-2.8896,-2.8617,-2.8092,-2.7773,-2.7657,-2.7963,-2.8338,-2.865,-4.2637,-4.2988,-4.3459,-4.4368,-4.5186,-4.5791,-4.6078,-4.7061,-4.7877,-4.8168,-4.9078,-4.9605,-4.9387,-5.0347,-5.0774,-5.0275,-5.0534,-5.074,-5.079,-5.1235,-5.1599,-5.1976,-5.2069,-5.198,-5.1786,-5.1707,-5.1618,-5.1359,-5.0603,-5.0072,-4.9663,-4.8944,-4.8509,-4.8258,-4.8258,-4.8221,-4.812,-4.812,-4.7417,-4.6293,-4.6293,-4.5535,-4.4411,-4.4411,-4.4676,-4.5124,-4.5124,-4.5458,-4.588,-4.588,-4.5039,-4.3776,-4.2498,-4.2092,-4.2092,-4.1953,-4.1841,-4.1619,-4.1325,-4.0844,-4.0153,-3.8866,-3.7924,-3.6934,-3.5465,-3.5086,-3.4949,-3.4481,-3.4105,-3.3685,-3.316,-3.2309,-3.1478,-3.0922,-3.0404,-3.0049,-3.0049,-2.9908,-2.9806,-2.9806,-2.9703,-2.9625,-2.9625,-2.9495,-2.93,-2.9091,-2.8855,-2.859,-2.8271,-2.8271,-2.8326,-2.8459,-2.8686,-2.9153,-2.9832,-2.9476,-2.9633,-3.0352,-3.0352,-3.0306,-3.0216,-3.0216,-3.0216,-3.017,-3.0045,-2.9977,-2.9886,-2.9554,-2.9231,-2.8896,-2.8466,-2.8092,-2.7778,-2.8,-2.816,-2.8382,-4.2841,-4.3433,-4.4157,-4.5039,-4.5455,-4.6071,-4.7191,-4.7965,-4.853,-4.8825,-4.9768,-5.0313,-5.0041,-5.0666,-5.1046,-5.0905,-5.0983,-5.1066,-5.1076,-5.2042,-5.2652,-5.271,-5.321,-5.3239,-5.271,-5.2977,-5.29,-5.2324,-5.1417,-5.0632,-5.0003,-4.9345,-4.8852,-4.8545,-4.8545,-4.8409,-4.812,-4.812,-4.7417,-4.6293,-4.6293,-4.5535,-4.4411,-4.4411,-4.4676,-4.5124,-4.5124,-4.5458,-4.5866,-4.575,-4.4951,-4.3776,-4.2498,-4.2092,-4.2051,-4.1785,-4.1702,-4.1563,-4.1128,-4.1001,-4.0689,-3.9407,-3.8228,-3.7002,-3.5532,-3.5153,-3.4949,-3.4481,-3.4243,-3.3962,-3.3444,-3.2697,-3.1983,-3.1445,-3.0881,-3.0483,-3.0483,-3.0483,-3.0483,-3.0483,-3.0522,-3.0548,-3.0548,-3.0189,-2.9774,-2.9357,-2.9278,-2.9187,-2.8977,-2.8977,-2.9088,-2.9393,-2.9277,-2.9642,-3.0521,-3.0383,-3.0423,-3.0623,-3.0623,-3.0487,-3.0261,-3.0261,-3.0216,-3.0216,-3.0216,-3.0091,-2.9931,-2.9886,-2.9611,-2.9128,-2.8896,-2.8466,-2.8051,-2.821,-2.8098,-2.7999,-4.2841,-4.3312,-4.4003,-4.501,-4.5379,-4.5896,-4.7006,-4.7858,-4.8646,-4.9355,-5.0381,-5.1053,-5.1007,-5.1455,-5.1682,-5.1433,-5.1527,-5.165,-5.1754,-5.2493,-5.3011,-5.3283,-5.3442,-5.3457,-5.3312,-5.339,-5.3352,-5.3207,-5.2518,-5.1778,-5.0874,-5.0292,-4.9581,-4.8795,-4.8795,-4.8645,-4.8395,-4.8395,-4.7603,-4.6293,-4.6293,-4.5535,-4.4411,-4.4411,-4.4676,-4.5124,-4.5124,-4.5458,-4.5735,-4.4734,-4.4211,-4.3776,-4.2498,-4.2092,-4.2051,-4.1785,-4.1591,-4.1381,-4.1085,-4.0887,-4.0504,-3.9378,-3.8546,-3.7634,-3.6149,-3.5447,-3.4949,-3.4481,-3.4243,-3.4037,-3.3962,-3.3251,-3.2662,-3.2534,-3.1675,-3.1022,-3.1022,-3.1022,-3.1022,-3.1022,-3.1446,-3.1715,-3.1715,-3.1489,-3.1248,-3.0913,-3.0764,-3.056,-3.0384,-3.0384,-3.031,-3.0184,-3.0543,-3.0755,-3.0824,-3.1189,-3.1243,-3.0927,-3.0927,-3.0781,-3.0532,-3.0532,-3.0397,-3.0216,-3.0216,-3.017,-3.0136,-2.9977,-2.9691,-2.9347,-2.8943,-2.8617,-2.8265,-2.7889,-2.7971,-2.8223,-4.3433,-4.4141,-4.488,-4.5596,-4.5893,-4.6504,-4.7916,-4.8292,-4.8805,-4.9936,-5.0804,-5.1285,-5.131,-5.1773,-5.2139,-5.2101,-5.2196,-5.2413,-5.2815,-5.3224,-5.3531,-5.3696,-5.3568,-5.3515,-5.3515,-5.3515,-5.3515,-5.3515,-5.2891,-5.2186,-5.1396,-5.076,-4.9974,-4.9108,-4.9108,-4.8945,-4.8695,-4.8545,-4.7723,-4.6474,-4.6342,-4.5535,-4.4411,-4.4411,-4.4676,-4.5124,-4.5124,-4.5458,-4.5692,-4.4414,-4.3993,-4.3776,-4.2498,-4.1995,-4.1856,-4.1633,-4.1367,-4.1156,-4.093,-4.0773,-4.0489,-3.9738,-3.9084,-3.8184,-3.6391,-3.554,-3.4949,-3.4481,-3.4314,-3.4243,-3.4243,-3.3693,-3.3234,-3.3234,-3.2497,-3.1927,-3.1927,-3.1927,-3.1927,-3.1927,-3.2186,-3.2367,-3.2247,-3.214,-3.1939,-3.1602,-3.148,-3.1288,-3.0947,-3.0947,-3.0947,-3.0966,-3.1235,-3.1387,-3.1426,-3.1704,-3.1673,-3.1318,-3.1184,-3.1005,-3.0769,-3.0769,-3.0724,-3.0601,-3.0601,-3.0499,-3.0397,-3.0273,-3.0011,-2.9646,-2.9266,-2.8896,-2.8535,-2.8008,-2.7925,-2.8074,-4.4121,-4.5056,-4.5872,-4.6237,-4.6542,-4.7291,-4.8972,-4.8985,-4.9251,-5.0596,-5.121,-5.1514,-5.1582,-5.2015,-5.2352,-5.2599,-5.283,-5.3179,-5.3783,-5.3965,-5.4023,-5.3904,-5.371,-5.3568,-5.3515,-5.3515,-5.3515,-5.3515,-5.2992,-5.2354,-5.1614,-5.1091,-5.0324,-4.9355,-4.9355,-4.9207,-4.8945,-4.8745,-4.7871,-4.6687,-4.6474,-4.5583,-4.4411,-4.4411,-4.4676,-4.5124,-4.5124,-4.5458,-4.5692,-4.4414,-4.3993,-4.3776,-4.2498,-4.1897,-4.166,-4.148,-4.1198,-4.0958,-4.073,-4.0702,-4.0616,-4.0126,-3.9554,-3.8596,-3.6648,-3.5687,-3.511,-3.459,-3.4439,-3.4397,-3.4397,-3.4031,-3.3731,-3.3731,-3.3234,-3.2842,-3.2842,-3.2882,-3.2922,-3.2922,-3.3053,-3.3026,-3.2839,-3.2758,-3.2584,-3.222,-3.2138,-3.1893,-3.1522,-3.1452,-3.1538,-3.1797,-3.1809,-3.189,-3.2081,-3.2081,-3.1937,-3.1761,-3.1528,-3.1273,-3.1062,-3.1062,-3.1017,-3.0984,-3.0984,-3.0871,-3.0668,-3.0623,-3.0363,-2.9931,-2.968,-2.9255,-2.8803,-2.8233,-2.7957,-2.781,-4.4121,-4.4975,-4.5756,-4.622,-4.6844,-4.7694,-4.8858,-4.9732,-5.0524,-5.1413,-5.1961,-5.239,-5.281,-5.2531,-5.2352,-5.2599,-5.3134,-5.3586,-5.3783,-5.4366,-5.4466,-5.3904,-5.3852,-5.3762,-5.3515,-5.3515,-5.3515,-5.3515,-5.3428,-5.2789,-5.1614,-5.1541,-5.0844,-4.9634,-4.9634,-4.9488,-4.9256,-4.9207,-4.823,-4.6687,-4.6639,-4.576,-4.4411,-4.4411,-4.4676,-4.5124,-4.5124,-4.5458,-4.5692,-4.4414,-4.3993,-4.3776,-4.2498,-4.1897,-4.166,-4.148,-4.1198,-4.0958,-4.073,-4.0702,-4.0616,-4.0126,-3.9554,-3.8748,-3.7356,-3.644,-3.5643,-3.4903,-3.4577,-3.4397,-3.4397,-3.4332,-3.4293,-3.4293,-3.3822,-3.347,-3.347,-3.3618,-3.3739,-3.3739,-3.4337,-3.4682,-3.4477,-3.4258,-3.4038,-3.3801,-3.3423,-3.317,-3.3085,-3.2928,-3.2752,-3.2568,-3.2568,-3.2488,-3.2356,-3.2356,-3.2213,-3.195,-3.1937,-3.1673,-3.1261,-3.1261,-3.1139,-3.0984,-3.0984,-3.0984,-3.0927,-3.0724,-3.0442,-3.0136,-2.992,-2.9508,-2.8989,-2.8279,-2.7852,-2.763,-4.5206,-4.5829,-4.6351,-4.6823,-4.7522,-4.825,-4.8904,-4.9839,-5.0802,-5.157,-5.2229,-5.2688,-5.3038,-5.2976,-5.2993,-5.3317,-5.3869,-5.4288,-5.455,-5.4726,-5.4619,-5.4149,-5.4008,-5.3762,-5.3515,-5.3515,-5.3515,-5.3515,-5.3515,-5.2862,-5.1614,-5.1614,-5.0931,-4.9717,-4.9717,-4.9634,-4.9488,-4.9355,-4.8425,-4.7057,-4.6832,-4.5855,-4.4597,-4.4457,-4.4676,-4.5124,-4.5458,-4.57,-4.5692,-4.4414,-4.3993,-4.3776,-4.2498,-4.1829,-4.1507,-4.1438,-4.1128,-4.0802,-4.073,-4.0702,-4.0616,-4.0126,-3.9802,-3.9231,-3.7702,-3.6986,-3.6318,-3.5078,-3.4577,-3.4397,-3.4397,-3.4397,-3.4397,-3.4397,-3.4201,-3.4086,-3.4263,-3.4345,-3.4455,-3.4537,-3.4885,-3.5086,-3.4962,-3.4743,-3.4535,-3.4285,-3.3992,-3.3696,-3.3398,-3.3313,-3.3154,-3.2939,-3.2939,-3.281,-3.255,-3.255,-3.2463,-3.2213,-3.2213,-3.1981,-3.1528,-3.1528,-3.1484,-3.1407,-3.1407,-3.1318,-3.1139,-3.1038,-3.0758,-3.0397,-3.0182,-2.9588,-2.885,-2.8233,-2.7809,-2.7584]},{"header":{"parameterUnit":"m.s-1","parameterCategory":1,"la1":30.6,"la2":28.766,"lo1":-90.7593,"lo2":-88.6598,"dy":0.0162,"dx":0.0183,"nx":116,"ny":114,"refTime":"2023-05-06T12:00:00:Z","depth":0,"parameterNumber":3,"parameterNumberName":"V-component_of_WINDS"},"data":[0.0,0.0,0.0,0.0,0.0,0.0,0.0,0.0,0.0,0.0,0.0,0.0,0.0,0.0,0.0,0.0,0.0,0.0,0.0,0.0,0.0,0.0,0.0,0.0,0.0,0.0,0.0,0.0,0.0,0.0,0.0,0.0,0.0,0.0,0.0,0.0,0.0,0.0,0.0,0.0,0.0,0.0,0.0,0.0,0.0,0.0,0.0,0.0,0.0,0.0,0.0,0.0,0.0,0.0,0.0,0.0,0.0,0.0,0.0,0.0,0.0,0.0,0.0,0.0,0.0,0.0,0.0,0.0,0.0,0.0,0.0,0.0,0.0,0.0,0.0,0.0,0.0,0.0,0.0,0.0,0.0,0.0,0.0,0.0,0.0,0.0,0.0,0.0,0.0,0.0,0.0,0.0,0.0,0.0,0.0,0.0,0.0,0.0,0.0,0.0,0.0,0.0,0.0,0.0,0.0,0.0,0.0,0.0,0.0,0.0,0.0,0.0,0.0,0.0,0.0,0.0,0.0,0.0,0.0,0.0,0.0,0.0,0.0,0.0,0.0,0.0,0.0,0.0,0.0,0.0,0.0,0.0,0.0,0.0,0.0,0.0,0.0,0.0,0.0,0.0,0.0,0.0,0.0,0.0,0.0,0.0,0.0,0.0,0.0,0.0,0.0,0.0,0.0,0.0,0.0,0.0,0.0,0.0,0.0,0.0,0.0,0.0,0.0,0.0,0.0,0.0,0.0,0.0,0.0,0.0,0.0,0.0,0.0,0.0,0.0,0.0,0.0,0.0,0.0,0.0,0.0,0.0,0.0,0.0,0.0,0.0,0.0,0.0,0.0,0.0,0.0,0.0,0.0,0.0,0.0,0.0,0.0,0.0,0.0,0.0,0.0,0.0,0.0,0.0,0.0,0.0,0.0,0.0,0.0,0.0,0.0,0.0,0.0,0.0,0.0,0.0,0.0,0.0,0.0,0.0,0.0,0.0,0.0,0.0,0.0,0.0,0.0,0.0,0.0,0.0,0.0,0.0,0.0,0.0,0.0,0.0,0.0,0.0,0.0,0.0,0.0,0.0,0.0,0.0,0.0,0.0,0.0,0.0,0.0,0.0,0.0,0.0,0.0,0.0,0.0,0.0,0.0,0.0,0.0,0.0,0.0,0.0,0.0,0.0,0.0,0.0,0.0,0.0,0.0,0.0,0.0,0.0,0.0,0.0,0.0,0.0,0.0,0.0,0.0,0.0,0.0,0.0,0.0,0.0,0.0,0.0,0.0,0.0,0.0,0.0,0.0,0.0,0.0,0.0,0.0,0.0,0.0,0.0,0.0,0.0,0.0,0.0,0.0,0.0,0.0,0.0,0.0,0.0,0.0,0.0,0.0,0.0,0.0,0.0,0.0,0.0,0.0,0.0,0.0,0.0,0.0,0.0,0.0,0.0,0.0,0.0,0.0,0.0,0.0,0.0,0.0,0.0,0.0,0.0,0.0,0.0,0.0,0.0,0.0,0.0,0.0,0.0,0.0,0.0,0.0,0.0,0.0,0.0,0.0,0.0,0.0,0.0,0.0,0.0,0.0,0.0,0.0,0.0,0.0,0.0,0.0,0.0,0.0,0.0,0.0,0.0,0.0,0.0,0.0,0.0,0.0,0.0,0.0,0.0,0.0,0.0,0.0,0.0,0.0,0.0,0.0,0.0,0.0,0.0,0.0,0.0,0.0,0.0,0.0,0.0,0.0,0.0,0.0,0.0,0.0,0.0,0.0,0.0,0.0,0.0,0.0,0.0,0.0,0.0,0.0,0.0,0.0,0.0,0.0,0.0,0.0,0.0,0.0,0.0,0.0,0.0,0.0,0.0,0.0,0.0,0.0,0.0,0.0,0.0,0.0,0.0,0.0,0.0,0.0,0.0,0.0,0.0,0.0,0.0,0.0,0.0,0.0,0.0,0.0,0.0,0.0,0.0,0.0,0.0,0.0,0.0,0.0,0.0,0.0,0.0,0.0,0.0,0.0,0.0,0.0,0.0,0.0,0.0,0.0,0.0,0.0,0.0,0.0,0.0,0.0,0.0,0.0,0.0,0.0,0.0,0.0,0.0,0.0,0.0,0.0,0.0,0.0,0.0,0.0,0.0,0.0,0.0,0.0,0.0,0.0,0.0,0.0,0.0,0.0,0.0,0.0,0.0,0.0,0.0,0.0,0.0,0.0,0.0,0.0,0.0,0.0,0.0,0.0,0.0,0.0,0.0,0.0,0.0,0.0,0.0,0.0,0.0,0.0,0.0,0.0,0.0,0.0,0.0,0.0,0.0,0.0,0.0,0.0,0.0,0.0,0.0,0.0,0.0,0.0,0.0,0.0,0.0,0.0,0.0,0.0,0.0,0.0,0.0,0.0,0.0,0.0,0.0,0.0,0.0,0.0,0.0,0.0,0.0,0.0,0.0,0.0,0.0,0.0,0.0,0.0,0.0,0.0,0.0,0.0,0.0,0.0,0.0,0.0,0.0,0.0,0.0,0.0,0.0,0.0,0.0,0.0,0.0,0.0,0.0,0.0,0.0,0.0,0.0,0.0,0.0,0.0,0.0,0.0,0.0,0.0,0.0,0.0,0.0,0.0,0.0,0.0,0.0,0.0,0.0,0.0,0.0,0.0,0.0,0.0,0.0,0.0,0.0,0.0,0.0,0.0,0.0,0.0,0.0,0.0,0.0,0.0,0.0,0.0,0.0,0.0,0.0,0.0,0.0,0.0,0.0,0.0,0.0,0.0,0.0,0.0,0.0,0.0,0.0,0.0,0.0,0.0,0.0,0.0,0.0,0.0,0.0,0.0,0.0,0.0,0.0,0.0,0.0,0.0,0.0,0.0,0.0,0.0,0.0,0.0,0.0,0.0,0.0,0.0,0.0,0.0,0.0,0.0,0.0,0.0,0.0,0.0,0.0,0.0,0.0,0.0,0.0,0.0,0.0,0.0,0.0,0.0,0.0,0.0,0.0,0.0,0.0,0.0,0.0,0.0,0.0,0.0,0.0,0.0,0.0,0.0,0.0,0.0,0.0,0.0,0.0,0.0,0.0,0.0,0.0,0.0,0.0,0.0,0.0,0.0,0.0,0.0,0.0,0.0,0.0,0.0,0.0,0.0,0.0,0.0,0.0,0.0,0.0,0.0,0.0,0.0,0.0,0.0,0.0,0.0,0.0,0.0,0.0,0.0,0.0,0.0,0.0,0.0,0.0,0.0,0.0,0.0,0.0,0.0,0.0,0.0,0.0,0.0,0.0,0.0,0.0,0.0,0.0,0.0,0.0,0.0,0.0,0.0,0.0,0.0,0.0,0.0,0.0,0.0,0.0,0.0,0.0,0.0,0.0,0.0,0.0,0.0,0.0,0.0,0.0,0.0,0.0,0.0,0.0,0.0,0.0,0.0,0.0,0.0,0.0,0.0,0.0,0.0,0.0,0.0,0.0,0.0,0.0,0.0,0.0,0.0,0.0,0.0,0.0,0.0,0.0,0.0,0.0,0.0,0.0,0.0,0.0,0.0,0.0,0.0,0.0,0.0,0.0,0.0,0.0,0.0,0.0,0.0,0.0,0.0,0.0,0.0,0.0,0.0,0.0,0.0,0.0,0.0,0.0,0.0,0.0,0.0,0.0,0.0,0.0,0.0,0.0,0.0,0.0,0.0,0.0,0.0,0.0,0.0,0.0,0.0,0.0,0.0,0.0,0.0,0.0,0.0,0.0,0.0,0.0,0.0,0.0,0.0,0.0,0.0,0.0,0.0,0.0,0.0,0.0,0.0,0.0,0.0,0.0,0.0,0.0,0.0,0.0,0.0,0.0,0.0,0.0,0.0,0.0,0.0,0.0,0.0,0.0,0.0,0.0,0.0,0.0,0.0,0.0,0.0,0.0,0.0,0.0,0.0,0.0,0.0,0.0,0.0,0.0,0.0,0.0,0.0,0.0,0.0,0.0,0.0,0.0,0.0,0.0,0.0,0.0,0.0,0.0,0.0,0.0,0.0,0.0,0.0,0.0,0.0,0.0,0.0,0.0,0.0,0.0,0.0,0.0,0.0,0.0,0.0,0.0,0.0,0.0,0.0,0.0,0.0,0.0,0.0,0.0,0.0,0.0,0.0,0.0,0.0,0.0,0.0,0.0,0.0,0.0,0.0,0.0,0.0,0.0,0.0,0.0,0.0,0.0,0.0,0.0,0.0,0.0,0.0,0.0,0.0,0.0,0.0,0.0,0.0,0.0,0.0,0.0,0.0,0.0,0.0,0.0,0.0,0.0,0.0,0.0,0.0,0.0,0.0,0.0,0.0,0.0,0.0,0.0,0.0,0.0,0.0,0.0,0.0,0.0,0.0,0.0,0.0,0.0,0.0,0.0,0.0,0.0,0.0,0.0,0.0,0.0,0.0,0.0,0.0,0.0,0.0,0.0,0.0,0.0,0.0,0.0,0.0,0.0,0.0,0.0,0.0,0.0,0.0,0.0,0.0,0.0,0.0,0.0,0.0,0.0,0.0,0.0,0.0,0.0,0.0,0.0,0.0,0.0,0.0,0.0,0.0,0.0,0.0,0.0,0.0,0.0,0.0,0.0,0.0,0.0,0.0,0.0,0.0,0.0,0.0,0.0,0.0,0.0,0.0,0.0,0.0,0.0,0.0,0.0,0.0,0.0,0.0,0.0,0.0,0.0,0.0,0.0,0.0,0.0,0.0,0.0,0.0,0.0,0.0,0.0,0.0,0.0,0.0,0.0,0.0,0.0,0.0,0.0,0.0,0.0,0.0,0.0,0.0,0.0,0.0,0.0,0.0,0.0,0.0,0.0,0.0,0.0,0.0,0.0,0.0,0.0,0.0,0.0,0.0,0.0,0.0,0.0,0.0,0.0,0.0,0.0,0.0,0.0,0.0,0.0,0.0,0.0,0.0,0.0,0.0,0.0,0.0,0.0,0.0,0.0,0.0,0.0,0.0,0.0,0.0,0.0,0.0,0.0,0.0,0.0,0.0,0.0,0.0,0.0,0.0,0.0,0.0,0.0,0.0,0.0,0.0,0.0,0.0,0.0,0.0,0.0,0.0,0.0,0.0,0.0,0.0,0.0,0.0,0.0,0.0,0.0,0.0,0.0,0.0,0.0,0.0,0.0,0.0,0.0,0.0,0.0,0.0,0.0,0.0,0.0,0.0,0.0,0.0,0.0,0.0,0.0,0.0,0.0,0.0,0.0,0.0,0.0,0.0,0.0,0.0,0.0,0.0,0.0,0.0,0.0,0.0,0.0,0.0,0.0,0.0,0.0,0.0,0.0,0.0,0.0,0.0,0.0,0.0,0.0,0.0,0.0,0.0,0.0,0.0,0.0,0.0,0.0,0.0,0.0,0.0,0.0,0.0,0.0,0.0,0.0,0.0,0.0,0.0,0.0,0.0,0.0,0.0,0.0,0.0,0.0,0.0,0.0,0.0,0.0,0.0,0.0,0.0,0.0,0.0,0.0,0.0,0.0,0.0,0.0,0.0,0.0,0.0,0.0,0.0,0.0,0.0,0.0,0.0,0.0,0.0,0.0,0.0,0.0,0.0,0.0,0.0,0.0,0.0,0.0,0.0,0.0,0.0,0.0,0.0,0.0,0.0,0.0,0.0,0.0,0.0,0.0,0.0,0.0,0.0,0.0,0.0,0.0,0.0,0.0,0.0,0.0,0.0,0.0,0.0,0.0,0.0,0.0,0.0,0.0,0.0,0.0,0.0,0.0,0.0,0.0,0.0,0.0,0.0,0.0,0.0,0.0,0.0,0.0,0.0,0.0,0.0,0.0,0.0,0.0,0.0,0.0,0.0,0.0,0.0,0.0,0.0,0.0,0.0,0.0,0.0,0.0,0.0,0.0,0.0,0.0,0.0,0.0,0.0,0.0,0.0,0.0,0.0,0.0,0.0,0.0,0.0,0.0,0.0,0.0,0.0,0.0,0.0,0.0,0.0,0.0,0.0,0.0,0.0,0.0,0.0,0.0,0.0,0.0,0.0,0.0,0.0,0.0,0.0,0.0,0.0,0.0,0.0,0.0,0.0,0.0,0.0,0.0,0.0,0.0,0.0,0.0,0.0,0.0,0.0,0.0,0.0,0.0,3.8244,3.6995,0.0,0.0,0.0,0.0,0.0,0.0,0.0,0.0,0.0,0.0,0.0,0.0,0.0,0.0,0.0,0.0,0.0,0.0,0.0,0.0,0.0,0.0,0.0,0.0,0.0,0.0,0.0,0.0,0.0,0.0,0.0,0.0,0.0,0.0,0.0,0.0,0.0,0.0,0.0,0.0,0.0,0.0,0.0,0.0,0.0,0.0,0.0,0.0,0.0,0.0,0.0,0.0,0.0,0.0,0.0,0.0,0.0,0.0,0.0,0.0,0.0,0.0,0.0,0.0,0.0,0.0,0.0,0.0,0.0,0.0,0.0,0.0,0.0,0.0,0.0,0.0,0.0,0.0,0.0,0.0,0.0,0.0,0.0,0.0,0.0,0.0,0.0,0.0,0.0,0.0,0.0,0.0,0.0,0.0,0.0,0.0,0.0,0.0,0.0,0.0,0.0,0.0,0.0,0.0,0.0,0.0,0.0,0.0,0.0,0.0,0.0,0.0,0.0,0.0,4.0798,3.9519,0.0,0.0,0.0,0.0,0.0,0.0,0.0,0.0,0.0,0.0,0.0,0.0,0.0,0.0,0.0,0.0,0.0,0.0,0.0,0.0,0.0,0.0,0.0,0.0,0.0,0.0,0.0,0.0,0.0,0.0,0.0,0.0,0.0,0.0,0.0,0.0,0.0,0.0,0.0,0.0,0.0,0.0,0.0,0.0,0.0,0.0,0.0,0.0,0.0,0.0,0.0,0.0,0.0,0.0,0.0,0.0,0.0,0.0,0.0,0.0,0.0,0.0,0.0,0.0,0.0,0.0,0.0,0.0,0.0,0.0,0.0,0.0,0.0,0.0,0.0,0.0,0.0,0.0,0.0,0.0,0.0,0.0,0.0,0.0,0.0,0.0,0.0,0.0,0.0,0.0,0.0,0.0,0.0,0.0,0.0,0.0,0.0,0.0,0.0,0.0,0.0,0.0,0.0,0.0,0.0,0.0,0.0,0.0,4.6588,4.6687,4.6714,4.6815,4.6523,4.5831,4.3546,4.2381,4.1995,4.069,0.0,0.0,0.0,0.0,0.0,0.0,0.0,0.0,0.0,0.0,0.0,0.0,0.0,0.0,0.0,0.0,0.0,0.0,0.0,0.0,0.0,0.0,2.2114,2.2184,2.2572,2.2822,0.0,0.0,0.0,0.0,0.0,0.0,0.0,0.0,0.0,0.0,0.0,2.6899,2.723,2.7235,2.7166,2.7024,2.6852,0.0,0.0,0.0,0.0,0.0,0.0,0.0,0.0,0.0,0.0,0.0,0.0,0.0,0.0,0.0,0.0,0.0,0.0,0.0,0.0,0.0,0.0,0.0,0.0,0.0,0.0,0.0,0.0,0.0,0.0,0.0,0.0,0.0,0.0,0.0,0.0,0.0,0.0,0.0,0.0,0.0,0.0,0.0,3.6384,3.703,0.0,0.0,0.0,0.0,0.0,0.0,0.0,0.0,0.0,0.0,0.0,0.0,0.0,4.6302,4.6532,4.694,4.7265,4.7482,4.7756,4.7881,4.7881,4.789,4.7838,4.7734,4.7368,0.0,4.404,4.3339,0.0,0.0,0.0,0.0,0.0,0.0,0.0,0.0,0.0,0.0,0.0,0.0,0.0,0.0,0.0,0.0,0.0,0.0,0.0,0.0,0.0,2.2184,2.2486,2.2572,2.2859,2.3038,2.3127,0.0,0.0,0.0,0.0,0.0,0.0,0.0,0.0,0.0,2.6973,2.7556,2.8078,2.8141,2.8613,2.9349,2.9195,2.8385,2.7142,2.6928,0.0,0.0,0.0,0.0,0.0,0.0,0.0,0.0,0.0,0.0,0.0,0.0,0.0,0.0,0.0,0.0,0.0,0.0,0.0,0.0,0.0,0.0,0.0,0.0,0.0,0.0,0.0,0.0,0.0,0.0,0.0,0.0,0.0,0.0,0.0,0.0,0.0,0.0,0.0,3.6826,3.7788,3.8273,3.8951,3.9472,0.0,0.0,0.0,0.0,0.0,0.0,0.0,0.0,0.0,4.5689,4.6576,4.7294,4.7894,4.8293,4.8685,4.91,4.9388,4.9507,4.9507,4.9623,4.9668,4.9633,4.9178,4.8382,4.7299,4.6036,4.5045,4.4338,0.0,0.0,0.0,0.0,4.2702,4.2771,0.0,0.0,0.0,0.0,0.0,0.0,0.0,0.0,0.0,0.0,0.0,0.0,2.2208,2.2532,2.2863,2.3235,2.3444,2.3652,2.3926,0.0,0.0,0.0,0.0,0.0,0.0,0.0,0.0,2.7406,2.7944,2.8549,2.9199,2.9496,3.0182,3.1179,3.1048,2.9987,2.8315,2.8199,2.8282,0.0,0.0,0.0,0.0,0.0,0.0,0.0,0.0,0.0,0.0,0.0,0.0,0.0,0.0,0.0,0.0,0.0,0.0,0.0,0.0,0.0,0.0,0.0,0.0,0.0,0.0,0.0,0.0,0.0,0.0,0.0,0.0,0.0,0.0,0.0,0.0,0.0,0.0,3.834,3.9034,3.9358,4.0023,4.0547,0.0,0.0,0.0,0.0,0.0,0.0,4.5856,4.6488,4.689,4.7132,4.7736,4.8419,4.9176,4.9729,5.0309,5.0835,5.1113,5.128,5.128,5.1425,5.147,5.148,5.0865,5.0601,5.0434,4.8277,4.7064,4.6506,4.5963,4.5411,4.4946,4.5032,4.5128,4.5217,0.0,0.0,0.0,0.0,0.0,0.0,0.0,0.0,0.0,0.0,0.0,2.2091,2.237,2.2791,2.3399,2.4153,2.453,2.4987,2.562,2.5796,2.588,0.0,0.0,0.0,0.0,0.0,0.0,2.8252,2.9713,3.0546,3.0807,3.1503,3.1882,3.1923,3.1805,3.1622,3.135,3.1117,3.0863,3.061,0.0,0.0,0.0,0.0,0.0,0.0,0.0,0.0,0.0,0.0,0.0,0.0,0.0,0.0,0.0,0.0,0.0,0.0,0.0,0.0,0.0,0.0,0.0,0.0,0.0,0.0,0.0,0.0,0.0,0.0,0.0,0.0,0.0,0.0,0.0,0.0,0.0,0.0,0.0,4.0466,4.1832,0.0,0.0,0.0,0.0,4.5401,4.5605,4.587,4.6243,4.7144,4.7774,4.801,4.9598,5.0535,5.0772,5.1956,5.2543,5.2578,5.2908,5.3067,5.3067,5.3096,5.3096,5.3096,5.3043,5.3025,5.2769,4.9688,4.8407,4.8372,4.8551,4.8567,4.8557,4.87,4.8749,4.8749,0.0,0.0,0.0,0.0,0.0,0.0,0.0,0.0,0.0,2.1277,2.1864,2.2503,2.3159,2.3772,2.4402,2.508,2.5401,2.5667,2.5909,2.5971,2.5994,0.0,0.0,0.0,0.0,0.0,2.9564,3.0298,3.0927,3.1325,3.1483,3.1741,3.2095,3.2515,3.2368,3.2757,3.338,3.1935,3.1167,3.0917,3.0654,3.0423,0.0,0.0,0.0,0.0,0.0,0.0,0.0,0.0,0.0,0.0,0.0,0.0,0.0,0.0,0.0,0.0,0.0,0.0,0.0,0.0,0.0,0.0,0.0,0.0,0.0,0.0,0.0,0.0,0.0,0.0,0.0,0.0,0.0,0.0,0.0,0.0,0.0,4.1938,4.2995,0.0,4.435,4.4854,4.5472,4.6255,4.6636,4.7087,4.768,4.8683,4.9354,4.9569,5.0694,5.1408,5.1596,5.2265,5.2594,5.2683,5.2898,5.307,5.3201,5.3201,5.3201,5.3201,5.3201,5.3257,5.3236,5.2126,5.106,5.0128,4.978,4.9336,4.8955,4.9079,4.9146,4.9128,0.0,0.0,0.0,0.0,0.0,0.0,0.0,0.0,0.0,2.135,2.2116,2.2946,2.3668,2.4501,2.5295,2.6025,2.632,2.6565,2.6779,2.6841,0.0,0.0,2.7664,0.0,0.0,3.0183,3.07,3.1404,3.174,3.195,3.2079,3.2561,3.3026,3.346,3.3572,3.408,3.4779,3.3355,3.2613,3.2405,3.2221,3.2035,3.1774,0.0,0.0,0.0,0.0,0.0,0.0,0.0,0.0,0.0,0.0,0.0,0.0,0.0,0.0,0.0,0.0,0.0,0.0,0.0,0.0,0.0,0.0,0.0,0.0,0.0,0.0,0.0,0.0,0.0,0.0,0.0,0.0,0.0,0.0,4.1828,4.2839,4.3164,4.4006,4.4759,4.5276,4.5767,4.6339,4.7094,4.7697,4.8286,4.8835,4.9845,5.0522,5.0759,5.1631,5.2195,5.2351,5.2965,5.3346,5.3495,5.3608,5.3783,5.3963,5.3963,5.3963,5.3963,5.402,5.4088,5.4165,5.4002,5.335,5.2325,5.135,5.0667,5.0232,5.009,5.0033,5.0033,0.0,0.0,0.0,0.0,0.0,0.0,0.0,0.0,2.0623,2.1302,2.2405,2.3305,2.3873,2.4938,2.5993,2.6942,2.727,2.7703,2.8365,2.8541,0.0,0.0,0.0,0.0,3.0066,3.0719,3.1173,3.1467,3.2208,3.2593,3.2684,3.4074,3.4729,3.4761,3.5327,3.5617,3.5606,3.5482,3.5357,3.5276,3.5228,3.5026,3.4616,0.0,0.0,0.0,0.0,0.0,0.0,0.0,0.0,0.0,0.0,0.0,0.0,0.0,0.0,0.0,0.0,0.0,0.0,0.0,0.0,0.0,0.0,0.0,0.0,0.0,0.0,0.0,0.0,0.0,0.0,0.0,0.0,0.0,4.215,4.2883,4.3636,4.4152,4.4893,4.5635,4.6356,4.711,4.767,4.8001,4.8845,4.9409,4.9589,5.0506,5.1171,5.1524,5.2416,5.3,5.3124,5.4243,5.4855,5.4992,5.5109,5.5306,5.5478,5.5507,5.5507,5.5507,5.5637,5.5706,5.5682,5.5223,5.5042,5.49,5.3336,5.2758,5.2651,5.1996,5.1762,5.1726,0.0,0.0,0.0,0.0,0.0,0.0,0.0,1.9952,2.0447,2.1033,2.2283,2.3437,2.437,2.5579,2.6708,2.7646,2.7887,2.81,2.8372,2.8541,0.0,0.0,0.0,0.0,3.1504,3.1811,3.2218,3.2776,3.3577,3.3964,3.4006,3.4913,3.5343,3.5343,3.5411,3.5719,3.6166,3.6137,3.6408,3.6758,3.5634,3.514,3.5023,0.0,0.0,0.0,0.0,0.0,0.0,0.0,0.0,0.0,0.0,0.0,0.0,0.0,0.0,0.0,0.0,0.0,0.0,0.0,0.0,0.0,0.0,0.0,0.0,0.0,0.0,0.0,0.0,0.0,0.0,0.0,4.261,4.3639,4.3106,4.378,4.4503,4.4971,4.5613,4.6255,4.6924,4.7746,4.8326,4.8579,4.9526,5.0109,5.0176,5.1212,5.1832,5.1931,5.2922,5.3575,5.377,5.4168,5.4543,5.4873,5.4992,5.5126,5.5277,5.5431,5.5507,5.5507,5.5637,5.5764,5.5861,5.5865,5.5915,5.5864,5.4251,5.3628,5.361,5.3448,5.3028,5.2501,0.0,0.0,0.0,0.0,0.0,0.0,0.0,1.9694,2.0144,2.0747,2.2206,2.3507,2.4358,2.5758,2.6931,2.7675,2.7915,2.8113,2.8299,0.0,0.0,0.0,0.0,3.1344,3.2189,3.254,3.2898,3.3309,3.4053,3.4413,3.4444,3.5459,3.5934,3.595,3.6194,3.6485,3.6864,3.6864,3.7101,3.7401,3.6508,3.6148,3.6117,3.5629,3.5388,3.527,3.4816,3.4328,3.3873,3.3744,0.0,0.0,0.0,0.0,0.0,0.0,0.0,0.0,0.0,0.0,0.0,0.0,0.0,0.0,0.0,0.0,0.0,0.0,0.0,0.0,0.0,0.0,0.0,0.0,4.342,4.4483,4.4413,4.4851,4.5282,4.5617,4.6023,4.6638,4.7434,4.805,4.8633,4.9202,5.0135,5.0704,5.0841,5.1865,5.2488,5.2556,5.328,5.3816,5.398,5.4126,5.4399,5.4797,5.4948,5.5066,5.5199,5.5401,5.5507,5.5507,5.5706,5.5833,5.5918,5.6179,5.6318,5.6276,0.0,0.0,0.0,0.0,5.3742,5.3296,0.0,0.0,0.0,0.0,0.0,0.0,0.0,1.9344,1.9759,2.0409,2.2043,2.3354,2.3935,2.5495,2.6715,2.7258,2.7524,2.7825,0.0,0.0,0.0,3.0097,3.152,3.2339,3.2402,3.2993,3.3309,3.3309,3.4051,3.4415,3.4446,3.5884,3.6519,3.6535,3.7196,3.751,3.751,3.751,3.751,3.751,3.751,3.751,3.7417,3.6636,3.6342,3.6234,3.5433,3.5109,3.5018,3.4889,0.0,0.0,0.0,0.0,0.0,0.0,0.0,0.0,0.0,0.0,0.0,0.0,0.0,0.0,0.0,0.0,0.0,0.0,0.0,0.0,0.0,0.0,0.0,0.0,4.4169,4.4933,4.5692,4.5807,4.588,4.6076,4.6223,4.6728,4.7874,4.8167,4.8737,4.9857,5.0667,5.1256,5.1537,5.2413,0.0,0.0,0.0,5.375,5.398,5.411,5.4367,5.4749,5.4917,5.5066,5.5169,5.5401,5.5507,5.5507,5.5775,5.5918,5.5918,5.6273,5.6401,5.6329,5.5616,5.5348,5.5241,5.4429,5.4126,5.4108,0.0,0.0,0.0,0.0,0.0,0.0,0.0,1.8842,1.933,1.9875,2.1198,2.2426,2.3274,2.4539,2.5688,2.6599,2.6916,2.7378,0.0,0.0,2.9977,3.0773,3.1757,3.256,3.3087,3.323,3.3309,3.3309,3.4557,3.5189,3.5205,3.6611,3.7304,3.7275,3.7447,3.751,3.751,3.751,3.751,3.751,3.751,3.751,3.7494,3.7322,3.7245,3.7214,3.6878,3.6411,3.594,3.5796,3.527,3.4649,3.4649,0.0,0.0,0.0,0.0,0.0,0.0,0.0,0.0,0.0,0.0,0.0,0.0,0.0,0.0,0.0,0.0,0.0,0.0,0.0,0.0,4.4358,4.5056,4.5629,4.5792,4.5807,4.588,4.6076,4.6132,4.6546,4.7645,4.846,4.9307,5.0223,5.128,5.1924,5.1996,5.2416,5.2729,5.2938,5.3179,5.3517,5.3997,5.4013,5.4207,5.4543,5.4869,0.0,5.5053,5.5341,5.5507,5.5507,5.5775,5.5918,5.5918,5.6273,5.6401,5.6383,5.6222,5.6169,5.6062,5.5277,5.4973,5.4884,0.0,0.0,0.0,0.0,0.0,0.0,0.0,1.8306,1.8735,1.9225,2.0327,2.1314,2.2062,2.3459,2.4678,2.5466,2.6373,0.0,0.0,2.9169,3.0206,3.0876,3.2065,3.2909,3.3293,3.3309,3.3309,3.3309,3.4699,3.5394,3.5426,3.6846,3.751,3.751,3.751,3.751,3.751,3.751,3.751,3.751,3.751,3.751,3.751,3.751,3.751,3.748,3.7405,3.7139,3.6855,3.6782,3.6252,3.5655,3.5655,3.542,3.5153,0.0,0.0,0.0,0.0,0.0,0.0,0.0,0.0,0.0,0.0,0.0,0.0,0.0,0.0,4.223,4.2937,0.0,4.4626,4.4682,4.5333,4.5807,4.5807,4.5807,4.5844,4.5932,4.604,4.6438,4.7305,4.8337,4.9301,5.018,5.1296,5.1977,5.2102,5.2428,5.2694,5.2903,5.311,5.3416,5.3849,5.3948,5.411,5.4367,5.4731,5.4948,5.5022,5.5234,5.5401,5.5507,5.5775,5.5918,5.5918,5.6273,5.6401,5.6401,5.6401,5.6401,5.6347,5.5955,5.5794,5.574,0.0,0.0,0.0,0.0,0.0,0.0,0.0,0.0,0.0,1.8572,1.9387,2.0165,2.0763,2.2174,2.3432,2.4365,0.0,0.0,0.0,2.9137,3.0299,3.069,3.2238,3.315,3.3256,3.3282,3.3309,3.3309,3.4557,3.5252,3.5426,3.6674,3.7368,3.751,3.751,3.751,3.751,3.751,3.751,3.751,3.751,3.751,3.751,3.7464,3.748,3.751,3.751,3.751,3.751,3.751,3.7101,3.6598,3.6598,3.6248,3.5789,3.5789,3.572,0.0,0.0,0.0,0.0,0.0,0.0,0.0,0.0,4.1117,4.1677,4.2251,4.287,4.3454,4.387,4.4464,4.4922,4.4922,4.5428,4.5807,4.5807,4.5807,4.5807,4.5807,4.5952,4.633,4.7034,4.797,4.8953,4.9976,5.1019,5.172,5.2013,5.2357,5.2676,5.2903,5.3041,5.3315,5.3717,5.3882,5.4078,5.419,5.4623,5.4855,5.4992,5.5139,5.5306,5.5507,5.5775,5.5947,5.6032,5.6273,5.6401,5.6401,5.6401,5.6401,5.6401,5.6401,5.6401,5.6401,0.0,0.0,0.0,0.0,0.0,0.0,0.0,0.0,0.0,1.7936,1.8298,1.8876,1.9849,2.0484,2.1696,0.0,0.0,0.0,2.6927,2.8783,3.0011,3.0433,3.2159,3.3112,3.3123,3.3229,3.3309,3.3309,3.4051,3.4747,3.541,3.6184,3.688,3.751,3.751,3.751,3.751,3.751,3.751,3.751,3.751,3.751,3.748,3.73,3.7329,3.751,3.751,3.751,3.751,3.751,3.7462,3.7399,3.7399,3.7336,3.7273,3.7273,3.7243,3.7401,3.8066,3.8853,3.969,4.0467,4.0816,4.1277,0.0,4.291,4.3182,4.3887,4.4421,4.4792,4.4837,4.5314,4.5697,4.5697,4.576,4.5807,4.5807,4.5807,4.5807,4.5807,4.5807,4.6185,4.6998,4.736,4.8187,4.9726,5.0456,5.1126,5.1782,5.223,5.257,5.2868,5.2903,5.3179,5.37,5.3882,5.4078,5.419,5.4623,5.4855,5.4992,5.5139,5.5306,5.5507,5.5775,5.606,5.6346,5.6383,5.6401,5.6401,5.6401,5.6401,5.6401,5.6401,5.6401,5.6401,0.0,0.0,0.0,0.0,0.0,0.0,0.0,0.0,0.0,0.0,0.0,1.791,1.8611,1.9991,2.1473,0.0,0.0,0.0,2.6213,2.7696,2.9035,3.0,3.1305,3.2241,3.2807,3.2973,3.3085,3.3085,3.3744,3.427,3.4668,3.5376,3.5893,3.6263,3.6263,3.6263,3.6263,3.6263,3.6235,3.6195,3.6589,3.6704,3.6662,3.6964,3.7151,3.7211,3.7211,3.7211,0.0,0.0,3.7255,3.7329,3.7329,3.7405,3.751,3.751,3.7765,3.8348,3.9517,4.0087,4.061,4.1501,4.2141,4.2671,4.3347,4.3831,4.4314,4.4921,4.5188,4.5421,4.5607,4.5818,4.5932,4.5807,4.5807,4.5807,4.5807,4.5807,4.5807,4.5807,4.5807,4.5954,4.6312,4.6875,4.7556,4.8331,4.924,5.017,5.1106,5.1427,5.198,5.2852,5.2903,5.311,5.3584,5.3866,5.4013,5.4078,5.4448,5.4762,5.4992,5.5066,5.5306,5.5735,5.5861,5.6088,5.6401,5.6401,5.6401,5.6401,5.6401,5.6401,5.6401,5.6401,5.6401,5.6401,0.0,0.0,0.0,0.0,0.0,0.0,0.0,0.0,0.0,0.0,0.0,0.0,0.0,0.0,0.0,0.0,0.0,0.0,0.0,2.6731,2.8092,2.9478,3.0504,3.1457,3.2394,3.2621,3.2718,3.2746,3.3294,3.3704,3.3991,3.4579,3.5008,3.5266,3.5266,3.5266,3.5266,3.5266,3.521,3.5159,3.566,3.5761,3.5767,3.6393,3.6658,3.6674,3.6906,3.7015,0.0,0.0,3.7044,3.715,3.7194,3.73,3.7466,3.7701,3.8397,3.9328,4.0499,4.0976,4.1374,4.2189,4.3041,4.3703,4.3945,4.4593,4.5306,4.585,4.5927,4.5915,4.6143,4.6132,4.604,4.5807,4.5807,4.5807,4.5807,4.5807,4.5807,4.5807,4.5807,4.5807,4.5807,4.6432,4.698,4.7353,4.8284,4.9261,5.0353,5.078,5.1479,5.2585,5.2803,5.3093,5.3518,5.3767,5.3948,5.4013,5.4271,5.4589,5.4948,5.5022,5.5336,5.5833,5.589,5.606,5.6346,5.6373,5.6401,5.6401,5.6401,5.6401,5.6401,5.6401,5.6401,5.6401,0.0,0.0,0.0,0.0,0.0,0.0,0.0,0.0,0.0,0.0,0.0,0.0,0.0,0.0,0.0,0.0,0.0,0.0,0.0,2.612,2.7469,2.8874,3.001,3.1061,3.201,3.215,3.2274,3.2425,3.2563,3.3017,3.3727,3.3883,3.4298,3.4938,3.4938,3.4938,3.4938,3.4938,3.4909,3.4909,3.4925,3.494,3.4974,3.5528,3.5732,3.5855,3.6705,0.0,0.0,3.7015,3.6999,3.703,3.7164,3.7194,0.0,3.8209,3.9455,4.0562,4.0769,4.1422,4.2126,4.2333,4.3184,4.4106,4.4642,4.5422,4.6188,4.6749,4.6705,4.6496,4.6333,4.6187,4.604,4.5807,4.5807,4.5807,4.5807,4.5807,4.5807,4.5807,4.5807,4.5807,4.5807,4.602,4.6486,4.7321,4.78,4.8513,4.9583,5.05,5.1247,5.1832,5.2535,5.3093,5.3518,5.3634,5.3816,5.398,5.4143,5.4399,5.4811,5.5066,5.5378,5.5706,5.5833,5.6021,5.6225,5.6346,5.6401,5.6401,5.6401,5.6401,5.6401,5.6401,5.6401,5.6401,0.0,0.0,0.0,0.0,0.0,0.0,0.0,0.0,0.0,0.0,0.0,0.0,0.0,0.0,0.0,0.0,0.0,0.0,0.0,2.4742,2.585,2.7187,2.8297,2.9347,3.0394,3.0967,3.1393,3.1667,3.1724,3.2016,3.2571,3.2627,3.2847,3.3243,3.3243,3.3243,3.3243,3.3243,3.3203,3.3165,3.3583,3.371,3.3715,3.433,3.4835,3.5278,0.0,0.0,3.6662,3.6662,3.6739,3.6831,3.7014,3.7119,3.7444,3.8792,3.9929,4.0881,4.1502,4.1965,4.2381,4.2681,4.339,4.4071,4.4331,4.5277,4.6157,4.6334,4.6587,4.6703,4.6369,4.6278,4.6152,4.5844,4.5807,4.5807,4.5807,4.5807,4.5807,4.5807,4.5807,4.5807,4.5807,4.5844,4.6119,4.6649,4.6808,4.7451,4.8795,4.9177,4.9799,5.0826,5.1713,5.2303,5.2556,5.333,5.3816,5.4013,5.4416,5.47,5.4948,5.5109,5.5378,5.5706,5.5833,5.6021,5.6225,5.6346,5.6401,5.6401,5.6401,5.6401,5.6401,5.6401,5.6401,5.6401,0.0,0.0,0.0,0.0,0.0,0.0,0.0,0.0,0.0,0.0,0.0,0.0,0.0,0.0,0.0,0.0,0.0,2.1752,0.0,0.0,2.4575,2.5893,2.6755,2.7694,2.8769,2.9405,2.9856,3.0119,3.0278,3.0522,3.0834,3.1003,3.1291,3.1655,3.1713,3.1863,3.2076,3.2076,3.2035,3.1996,3.2421,3.2546,3.255,3.3289,3.3849,0.0,0.0,0.0,3.606,3.6306,3.6538,3.6723,3.6938,3.7322,3.7987,3.9233,4.0229,4.1103,4.2013,4.2365,4.2539,4.2883,4.3562,4.4195,4.421,4.5031,4.5767,4.5701,4.5942,4.611,4.5952,4.593,4.5904,4.5796,4.5807,4.5807,4.5807,4.5807,4.5807,4.5807,4.5807,4.5807,4.5807,4.5807,4.5936,4.6262,4.6298,4.6843,4.8075,4.8371,4.8955,5.0026,5.0911,5.1631,5.2101,5.2823,5.3478,5.4013,5.4416,5.4731,5.4992,5.5096,5.5306,5.5637,5.5804,5.5975,5.6123,5.6318,5.6401,5.6401,5.6437,5.6465,5.6482,5.6519,5.6519,5.6465,0.0,0.0,0.0,0.0,0.0,0.0,0.0,0.0,0.0,0.0,0.0,0.0,0.0,0.0,0.0,0.0,0.0,0.0,0.0,0.0,0.0,2.5024,2.5421,2.6104,2.7168,2.7516,2.7793,2.7939,2.8397,2.8623,2.8651,2.9123,2.9642,3.0208,3.0408,3.0808,3.1361,3.1391,3.1406,3.1406,3.1451,3.1451,3.1569,3.2375,0.0,0.0,0.0,0.0,3.5278,3.5982,3.643,3.6754,3.6969,3.7802,3.8845,3.9593,4.0417,4.1356,4.2314,4.2602,4.2711,4.3052,4.3791,4.4395,4.4207,4.475,4.5194,4.4984,4.487,4.4898,4.5186,4.5261,4.5413,4.5685,4.5792,4.5807,4.5807,4.5807,4.5807,4.5807,4.5807,4.5807,4.5807,4.5807,4.5936,4.6262,4.6298,4.6649,4.7436,4.8092,4.8742,4.931,5.0176,5.1095,5.2034,5.2267,5.2921,5.398,5.4143,5.4477,5.4992,5.4992,5.5191,5.5507,5.5775,5.5918,5.5918,5.6273,5.6401,5.6428,5.6546,5.66,5.6626,5.6742,5.6715,5.66,0.0,0.0,0.0,0.0,0.0,0.0,0.0,0.0,0.0,0.0,0.0,0.0,0.0,0.0,0.0,0.0,0.0,0.0,0.0,0.0,0.0,0.0,0.0,0.0,0.0,0.0,0.0,2.7175,2.7294,2.7603,2.8039,2.824,2.8554,2.8983,2.9124,2.9282,2.943,2.987,3.0075,3.0133,0.0,3.0984,3.1014,0.0,0.0,0.0,0.0,0.0,3.4954,3.5872,3.6538,3.6969,3.7224,3.7937,3.886,3.9698,4.0664,4.1635,4.2408,4.2774,4.3021,4.3281,4.352,4.3682,4.3743,4.412,4.4472,4.4409,4.4626,4.4737,4.4529,4.4925,4.5237,4.5041,4.546,4.5807,4.5807,4.5807,4.5807,4.5807,4.5807,4.5807,4.5807,4.5807,4.5936,4.6262,4.6298,4.6649,4.7436,4.7667,4.7934,4.8348,4.9342,5.0257,5.1044,5.2587,5.3546,5.398,5.4143,5.4477,5.4992,5.4992,5.5191,5.5507,5.5775,5.5918,5.5918,5.6273,5.6401,5.6428,5.6546,5.66,5.6626,5.6742,5.6768,5.6715,0.0,0.0,0.0,0.0,0.0,0.0,0.0,0.0,0.0,0.0,0.0,0.0,0.0,0.0,0.0,0.0,0.0,0.0,0.0,0.0,0.0,0.0,0.0,0.0,0.0,0.0,0.0,0.0,0.0,0.0,2.6347,2.6635,2.7045,2.7584,2.7769,2.8067,2.8397,2.8757,0.0,0.0,0.0,0.0,0.0,0.0,0.0,0.0,0.0,0.0,3.4955,3.5723,3.646,3.7135,3.7449,3.7968,3.8638,3.9475,4.0229,4.1035,4.2181,4.261,4.2857,4.335,4.3509,4.3509,4.3598,4.3655,4.3719,4.3719,4.378,4.3816,4.3759,4.4109,4.4437,4.4642,4.5065,4.5444,4.576,4.5807,4.5807,4.5807,4.5807,4.5807,4.5807,4.5807,4.5936,4.6262,4.6298,4.6649,4.7436,4.752,4.7637,4.8001,4.8644,4.9589,5.0809,5.2334,5.3377,5.398,5.4078,5.4414,5.4992,5.4992,5.5191,5.5507,5.5775,5.5918,5.5918,5.6273,5.6401,5.6428,5.6626,5.6707,5.6715,5.6899,5.6951,5.6873,0.0,0.0,0.0,0.0,0.0,0.0,0.0,0.0,0.0,0.0,0.0,0.0,0.0,0.0,0.0,0.0,0.0,0.0,0.0,0.0,0.0,0.0,0.0,0.0,0.0,0.0,0.0,0.0,0.0,0.0,0.0,0.0,0.0,0.0,0.0,0.0,0.0,0.0,0.0,0.0,0.0,0.0,0.0,0.0,0.0,0.0,0.0,0.0,0.0,3.5428,3.633,3.7224,3.7612,3.7934,3.8338,3.9188,3.9588,4.0087,4.172,4.2169,4.2347,4.3122,4.33,4.3317,4.3416,4.3177,4.2982,4.308,4.2836,4.2702,4.299,4.3116,4.348,4.4278,4.4591,4.4938,4.557,4.576,4.5807,4.5807,4.5807,4.5807,4.5807,4.5807,4.5936,4.6262,4.6298,4.6649,4.7436,4.752,4.7671,4.8033,4.8263,4.9189,5.0823,5.1812,5.2836,5.3844,5.3929,5.4335,5.4961,5.4992,5.5191,5.5478,5.5775,5.5918,5.5918,5.6273,5.6401,5.6428,5.6707,5.6794,5.6821,5.7105,5.713,5.7003,0.0,0.0,0.0,0.0,0.0,0.0,0.0,0.0,0.0,0.0,0.0,0.0,0.0,0.0,0.0,0.0,0.0,0.0,0.0,0.0,0.0,0.0,0.0,0.0,0.0,2.2235,2.2482,2.2763,2.3095,0.0,0.0,0.0,0.0,0.0,0.0,0.0,0.0,0.0,0.0,0.0,0.0,0.0,0.0,0.0,0.0,0.0,0.0,0.0,0.0,0.0,3.6075,3.7135,3.77,3.7905,3.8194,3.9307,3.9748,4.0099,4.1124,4.1481,4.1584,4.1728,4.1761,4.1926,4.2539,4.242,4.2376,4.2982,4.2836,4.254,4.2318,4.2781,4.3177,4.3063,4.399,4.4749,4.4891,4.5428,4.5807,4.5807,4.5807,4.5807,4.5807,4.5807,4.5936,4.6262,4.6298,4.6649,4.7436,4.752,4.7688,4.813,4.8957,4.9603,5.0099,5.1542,5.2581,5.3092,5.369,5.4289,5.4842,5.4948,5.5096,5.5259,5.57,5.5918,5.5918,5.6273,5.6401,5.6428,5.6707,5.6794,5.6821,5.7105,5.7206,5.7156,0.0,0.0,0.0,0.0,0.0,0.0,0.0,0.0,0.0,0.0,1.4902,1.5,0.0,0.0,0.0,0.0,0.0,0.0,0.0,0.0,0.0,0.0,0.0,0.0,0.0,2.1694,2.1975,2.2389,0.0,2.2878,2.3348,2.3675,2.3998,2.429,2.4593,2.4878,0.0,0.0,0.0,0.0,0.0,0.0,0.0,0.0,0.0,0.0,0.0,0.0,0.0,0.0,3.5031,3.6395,3.7472,3.7905,3.82,3.8926,3.9205,3.9521,4.04,4.0767,4.0961,4.1326,4.1409,4.148,4.1856,4.1959,4.2114,4.2458,4.2575,4.2508,4.2174,4.2397,4.2634,4.2699,4.3232,4.3895,4.4606,4.5017,4.5345,4.5614,4.5625,4.5625,4.5625,4.5625,4.5828,4.6262,4.6298,4.6649,4.7436,4.7687,4.7869,4.8082,4.8706,4.9252,4.9751,5.0683,5.1545,5.2289,5.2631,5.3086,5.3632,5.3748,5.4107,5.4635,5.5032,5.5479,5.5918,5.6207,5.6346,5.6428,5.6626,5.6742,5.6821,5.701,5.7138,5.7163,0.0,0.0,0.0,0.0,0.0,0.0,0.0,1.5068,1.4911,1.4695,1.4686,1.4842,1.5242,1.5719,0.0,0.0,0.0,0.0,0.0,0.0,0.0,0.0,0.0,0.0,0.0,0.0,0.0,2.2104,2.2166,0.0,0.0,0.0,0.0,0.0,2.4144,2.445,2.4806,2.492,0.0,0.0,0.0,2.6927,0.0,0.0,0.0,0.0,0.0,0.0,3.2258,0.0,3.3935,3.5458,3.6829,3.7632,3.8107,3.8448,3.8628,3.8881,3.9649,3.9979,4.0238,4.0812,4.0961,4.0966,4.1104,4.1321,4.1609,4.189,4.2187,4.233,4.2142,4.2109,4.2172,4.2414,4.2584,4.3058,4.4132,4.4492,4.478,4.5201,4.5384,4.5442,4.5478,4.5515,4.5719,4.6207,4.6404,4.6805,4.747,4.7803,4.8001,4.8001,4.834,4.8768,4.9354,4.9858,5.0578,5.1486,5.164,5.1943,5.2446,5.2641,5.3101,5.3836,5.4376,5.4998,5.566,5.6024,5.6263,5.6373,5.6546,5.6662,5.6821,5.6951,5.7061,5.7163,0.0,0.0,0.0,0.0,0.0,0.0,0.0,1.5009,1.4891,1.4565,1.4606,1.4915,1.5512,1.571,0.0,0.0,0.0,0.0,0.0,0.0,0.0,0.0,0.0,0.0,0.0,0.0,0.0,2.1761,2.2042,0.0,0.0,0.0,0.0,0.0,0.0,2.4141,2.42,2.4649,0.0,0.0,0.0,0.0,0.0,0.0,0.0,0.0,0.0,3.0895,3.1368,3.2243,3.335,3.4497,3.5546,3.6631,3.761,3.825,3.842,3.8548,3.8969,3.9095,3.9182,3.9427,3.9497,3.9609,4.0105,4.0163,4.0431,4.1578,4.1736,4.178,4.2062,4.2109,4.1996,4.1749,4.2252,4.2726,4.2853,4.3787,4.4448,4.451,4.4924,4.5294,4.5478,4.5515,4.5662,4.6112,4.6735,4.7217,4.7486,4.7803,4.8001,4.8001,4.834,4.8549,4.8616,4.9588,5.0306,5.0731,5.1384,5.1881,5.2248,5.2565,5.2764,5.2881,5.409,5.4659,5.4794,5.5783,5.6197,5.6235,5.6492,5.6662,5.6821,5.6951,5.7061,5.7188,0.0,0.0,0.0,0.0,0.0,0.0,0.0,1.5,1.4891,1.4536,1.4858,1.5235,1.5567,1.6314,0.0,0.0,0.0,0.0,0.0,0.0,0.0,0.0,0.0,0.0,0.0,0.0,2.1348,2.1506,2.1781,0.0,0.0,0.0,0.0,0.0,0.0,2.3907,2.4112,2.4405,0.0,0.0,0.0,0.0,0.0,0.0,0.0,0.0,0.0,0.0,3.1014,3.1575,3.2406,3.3394,3.46,3.5576,3.6482,3.7632,3.8164,3.842,3.8616,3.8766,3.8914,3.8985,3.9013,3.9051,3.9248,3.9563,3.9911,4.0424,4.0761,4.1053,4.1437,4.1517,4.1502,4.1591,4.1841,0.0,4.2631,4.2981,4.3435,4.4142,4.4335,4.462,4.5067,4.5241,4.5573,4.6171,4.6839,4.7285,4.747,4.7803,4.8001,4.8001,4.834,4.8515,4.8515,4.9133,4.9627,4.9945,5.0239,5.0558,5.089,5.1194,5.1598,5.2085,5.3256,5.4081,5.4659,5.5617,5.6095,5.6225,5.6401,5.6626,5.6794,5.6873,5.7028,5.7188,0.0,0.0,0.0,0.0,0.0,0.0,1.5088,1.5039,1.4921,1.4684,1.5119,1.5562,1.5849,1.6818,1.7622,1.8056,0.0,0.0,0.0,0.0,0.0,0.0,0.0,0.0,0.0,0.0,2.1484,2.1632,2.1815,2.2048,0.0,0.0,2.2726,2.3,0.0,0.0,0.0,0.0,0.0,0.0,0.0,0.0,0.0,0.0,0.0,0.0,0.0,0.0,0.0,0.0,0.0,3.2706,0.0,0.0,0.0,0.0,3.786,3.8148,3.8335,3.856,3.8694,3.8777,3.8805,3.8805,3.875,3.9063,3.9418,3.9601,3.9907,4.025,4.07,4.0879,4.1087,0.0,0.0,4.1762,4.2284,4.2383,4.2761,4.3691,4.3852,4.4146,4.4849,4.5129,4.5573,4.6262,4.6789,4.7217,4.7486,4.7803,4.8033,4.8049,4.8356,4.8515,4.8595,4.8877,4.9155,4.9411,4.9488,4.9637,4.9935,5.0217,5.0654,5.1285,5.2337,5.3306,5.4268,5.5179,5.578,5.6123,5.6318,5.6573,5.6794,5.6794,5.6977,5.7188,0.0,0.0,0.0,0.0,0.0,0.0,0.0,1.5098,1.5,1.5,1.536,1.583,1.6417,1.7164,1.7859,1.8432,0.0,0.0,0.0,0.0,0.0,0.0,0.0,0.0,0.0,0.0,2.1981,2.219,2.2341,2.2504,2.2686,2.2476,2.2525,2.2708,0.0,0.0,0.0,0.0,0.0,0.0,0.0,0.0,0.0,0.0,0.0,0.0,0.0,0.0,0.0,0.0,0.0,0.0,0.0,0.0,0.0,0.0,3.7417,3.7565,3.8205,3.8391,3.8476,3.8722,3.8805,3.875,3.8616,3.8604,3.8788,3.9388,3.9357,3.9374,3.99,4.0449,4.0753,4.0641,4.1162,0.0,4.1604,4.2068,4.2589,4.3036,4.3506,4.4078,4.4849,4.5278,4.5719,4.6262,4.6684,4.7064,4.747,4.7803,4.8049,4.8195,4.8388,4.8595,4.8769,4.8925,4.9063,4.9199,4.9381,4.956,4.9708,5.0028,5.0274,5.0467,5.1403,5.2358,5.3317,5.4356,5.5228,5.5947,5.6273,5.6573,5.6794,5.6794,5.6977,5.7188,0.0,0.0,0.0,0.0,0.0,0.0,0.0,1.5156,1.5098,1.5,1.5708,1.6353,1.6668,1.7625,1.8388,1.8865,0.0,0.0,0.0,0.0,0.0,0.0,0.0,0.0,0.0,0.0,2.1927,2.1993,2.2626,2.278,2.2504,2.2787,2.2866,2.2708,2.3,2.3228,0.0,0.0,0.0,0.0,0.0,0.0,0.0,0.0,0.0,0.0,0.0,0.0,0.0,0.0,0.0,0.0,0.0,0.0,0.0,3.5765,3.6728,3.7447,3.7653,3.7976,3.8278,3.8363,3.8476,3.8532,3.8476,3.8448,3.8529,3.8699,3.8617,3.8682,3.9212,3.9763,4.0214,4.0546,4.1146,4.1588,4.1588,4.1628,4.1852,4.2369,4.3154,4.4056,4.503,4.522,4.5573,4.6262,4.6528,4.6927,4.747,4.7704,4.7919,4.8195,4.8388,4.8595,4.8818,4.8909,4.9063,4.9199,4.9381,4.956,4.9708,5.0046,5.0217,5.0309,5.1329,5.2239,5.3094,5.431,5.5228,5.5947,5.6273,5.6573,5.6794,5.6794,5.6977,5.7188,0.0,0.0,0.0,0.0,0.0,0.0,0.0,1.5235,1.5186,1.5167,1.5946,1.6602,1.6845,1.7852,1.864,1.9065,0.0,0.0,0.0,0.0,0.0,0.0,0.0,0.0,0.0,2.1748,2.2214,2.2214,2.3081,2.3332,2.3015,2.3287,2.3344,2.3186,2.3424,2.3685,0.0,0.0,0.0,0.0,0.0,0.0,2.9131,0.0,0.0,0.0,0.0,0.0,0.0,0.0,0.0,0.0,0.0,0.0,0.0,0.0,3.6181,3.7178,3.7358,3.7698,3.8049,3.818,3.8266,3.8351,3.8408,3.8391,3.8391,3.8391,3.8221,3.8194,3.851,3.9208,3.9802,4.0151,4.0972,4.1588,4.1588,4.1489,4.1684,4.24,4.3185,4.4056,4.512,4.5182,4.5499,4.6227,4.6493,4.6842,4.747,4.7621,4.7902,4.8292,4.842,4.861,4.8863,4.894,4.9032,4.9124,4.929,4.9471,4.9619,4.9884,5.0074,5.0235,5.0976,5.1909,0.0,5.3908,5.4934,5.5918,5.6217,5.6492,5.6715,5.6768,5.6951,5.7112,0.0,0.0,0.0,0.0,0.0,0.0,0.0,0.0,0.0,0.0,1.6059,1.6624,1.6971,1.7918,0.0,0.0,0.0,0.0,0.0,0.0,0.0,0.0,0.0,0.0,0.0,2.209,2.2719,2.2719,2.3629,2.4049,2.4001,2.3903,2.3896,2.4013,2.4189,2.4463,0.0,0.0,0.0,0.0,0.0,0.0,0.0,0.0,0.0,0.0,0.0,0.0,0.0,0.0,0.0,0.0,0.0,0.0,0.0,0.0,0.0,0.0,0.0,3.7522,3.7759,3.8078,3.8164,3.8221,3.8379,3.8391,0.0,3.8391,3.8135,3.7934,3.7905,3.8799,3.9534,3.9503,4.0672,4.1588,4.1588,4.1588,4.1944,4.2915,4.3464,4.4126,4.5026,4.5188,4.5536,4.6243,4.6458,4.6842,4.7436,4.7621,4.7935,4.8452,4.8483,4.8673,4.9001,4.9001,4.9001,4.9001,4.9138,4.929,4.9488,4.9619,4.9884,5.0189,5.0331,5.1388,5.3008,5.3268,5.4409,5.5918,5.6123,5.6373,5.6626,5.6742,5.6873,5.7028,0.0,0.0,0.0,0.0,0.0,0.0,0.0,0.0,0.0,0.0,0.0,1.6792,1.719,1.7984,0.0,0.0,0.0,0.0,0.0,0.0,0.0,0.0,0.0,0.0,0.0,2.2157,2.2787,2.2923,2.405,2.4496,2.4221,2.4308,2.4234,2.4013,2.4046,2.4353,0.0,0.0,0.0,0.0,0.0,0.0,0.0,0.0,0.0,0.0,3.008,3.0325,0.0,0.0,0.0,0.0,0.0,0.0,0.0,0.0,3.5416,3.6754,3.7014,0.0,3.7522,3.7759,3.8008,3.8209,0.0,0.0,0.0,0.0,0.0,0.0,0.0,3.8906,3.969,3.9534,4.0672,4.1588,4.1588,4.1456,4.1686,4.2463,4.2977,4.3628,4.4496,4.5112,4.5625,4.6096,4.6278,4.6649,4.7251,4.747,4.7754,4.826,4.842,4.8673,4.9001,4.9001,4.9001,4.9001,4.9138,4.9229,4.929,4.956,4.9737,4.9825,5.0228,5.1296,5.2811,5.324,5.4409,5.5918,5.6123,5.6373,5.6626,5.6742,5.6873,5.7028,0.0,0.0,0.0,0.0,0.0,0.0,0.0,0.0,0.0,0.0,0.0,0.0,0.0,0.0,0.0,0.0,0.0,0.0,0.0,0.0,0.0,0.0,0.0,0.0,2.119,2.219,2.2821,2.299,2.4214,2.4744,2.4659,2.4821,2.4769,2.4594,2.4776,2.5126,0.0,0.0,0.0,0.0,2.7848,0.0,0.0,0.0,0.0,0.0,3.008,3.0325,0.0,3.0984,3.1117,3.1146,0.0,0.0,0.0,0.0,3.5232,3.6631,3.6831,3.7089,3.7373,3.7626,3.7847,3.802,3.8164,0.0,0.0,0.0,0.0,0.0,0.0,3.904,3.986,3.9752,4.0896,4.1818,4.1752,4.1637,4.1773,4.2328,4.2617,4.3192,4.4286,4.4741,4.5299,4.6044,4.6207,4.6509,4.703,4.7335,4.7704,4.8082,4.8356,4.861,4.8894,4.897,4.9001,4.9001,4.9077,4.9138,4.9199,4.9471,4.9649,4.9737,5.02,5.1076,5.2236,5.2986,5.4141,5.5423,5.5879,5.6245,5.6519,5.6715,5.6847,5.6951,0.0,0.0,0.0,0.0,0.0,0.0,0.0,0.0,0.0,0.0,0.0,0.0,0.0,0.0,0.0,0.0,0.0,0.0,0.0,0.0,0.0,0.0,0.0,2.1031,2.1221,2.2223,2.2843,2.3092,2.4272,2.4957,2.5111,2.5241,2.5312,2.5312,2.5688,2.6025,0.0,0.0,2.7146,2.749,2.7914,0.0,0.0,0.0,0.0,0.0,0.0,0.0,0.0,3.0984,3.1117,3.1146,3.1424,0.0,0.0,0.0,0.0,0.0,3.6662,3.6922,3.7224,3.7553,3.7671,3.7788,3.8078,0.0,0.0,0.0,0.0,0.0,0.0,3.9299,4.0076,4.0142,4.1245,4.2061,4.1963,4.1931,4.2022,4.2273,4.2412,4.2962,4.4185,4.4405,4.491,4.5977,4.6223,4.6474,4.6842,4.7251,4.7604,4.7935,4.8276,4.8532,4.8707,4.8909,4.9001,4.9001,4.9001,4.9063,4.9168,4.9398,4.956,4.9708,5.0171,5.0867,5.1679,5.2761,5.3827,5.4884,5.5617,5.6088,5.641,5.6662,5.6768,5.6847,0.0,0.0,0.0,0.0,0.0,0.0,0.0,0.0,0.0,0.0,0.0,0.0,0.0,0.0,0.0,0.0,0.0,0.0,0.0,0.0,0.0,0.0,2.1063,2.1221,2.1368,2.2422,2.3125,2.3416,2.4541,2.5111,2.5276,2.5276,2.5312,2.5312,2.5535,2.5758,2.6002,2.6336,2.6816,2.7369,2.7723,0.0,0.0,0.0,0.0,0.0,0.0,0.0,0.0,3.0984,3.1117,3.1146,3.1424,0.0,0.0,0.0,0.0,0.0,3.6662,3.6862,3.7075,3.724,3.7478,3.773,3.7905,0.0,0.0,0.0,0.0,0.0,0.0,3.9725,4.0391,4.0876,4.1581,4.2077,4.2093,4.2093,4.2044,4.1976,4.2466,4.3065,4.3731,4.4315,4.4982,4.5796,4.6136,4.6404,4.6617,4.703,4.742,4.7754,4.7951,4.8147,4.8292,4.8753,4.9001,4.9001,4.9001,4.9001,4.9032,4.9367,4.9518,4.956,5.0143,5.0867,5.1679,5.2761,5.3827,5.4884,5.5617,5.6088,5.6428,5.6573,5.6689,5.6847,0.0,0.0,0.0,0.0,0.0,0.0,0.0,0.0,0.0,0.0,0.0,0.0,0.0,0.0,0.0,0.0,0.0,0.0,0.0,0.0,0.0,2.1063,2.121,2.1336,2.1388,2.2455,2.3159,2.3482,2.4564,2.5182,2.5312,2.5312,2.5312,2.5312,2.55,2.5723,2.591,2.6255,2.6679,2.718,0.0,0.0,0.0,0.0,0.0,0.0,0.0,0.0,0.0,0.0,3.1117,3.1146,3.1424,0.0,0.0,0.0,0.0,0.0,3.6585,3.6708,3.6892,3.7044,3.7345,3.7628,0.0,0.0,0.0,0.0,0.0,0.0,0.0,4.0261,4.12,4.1801,4.2156,4.2333,4.227,4.227,4.219,4.2045,4.2267,4.2713,4.3361,4.4045,4.4729,4.546,4.6125,4.6493,4.6598,4.6996,4.7319,4.7588,4.7869,4.8049,4.8195,4.8547,4.8784,4.8894,4.8987,4.9001,4.9001,4.9337,4.9518,4.9547,5.0143,5.0624,5.1035,5.2131,5.2946,5.3627,5.4361,5.4827,5.5196,5.582,5.6165,5.641,0.0,0.0,0.0,0.0,0.0,0.0,0.0,0.0,0.0,0.0,0.0,0.0,0.0,0.0,0.0,0.0,0.0,0.0,0.0,0.0,2.0818,2.1126,2.1305,2.142,2.1463,2.2554,2.326,2.3561,2.4633,2.5218,2.5312,2.5312,2.5312,2.5312,2.5453,2.5676,2.591,2.6164,2.6543,2.7045,0.0,0.0,0.0,0.0,0.0,0.0,0.0,0.0,0.0,0.0,0.0,0.0,0.0,0.0,0.0,3.4015,3.5187,3.6492,3.6492,3.66,3.6754,3.6938,0.0,0.0,0.0,0.0,0.0,0.0,0.0,0.0,3.993,4.1012,4.2002,4.2505,4.2602,4.2571,4.2476,4.2445,4.2381,4.2174,4.2174,4.243,4.3116,4.366,4.4349,4.5229,4.5947,4.6421,4.6582,4.6927,4.7217,4.7436,4.7737,4.7968,4.8065,4.8324,4.8515,4.8738,4.8894,4.894,4.897,4.9277,4.9458,4.9547,5.0057,5.0313,5.0467,5.1514,5.2152,5.2564,5.3299,5.3762,5.4143,5.5199,5.5703,5.5974,0.0,0.0,0.0,0.0,0.0,0.0,0.0,0.0,0.0,0.0,0.0,0.0,0.0,0.0,0.0,0.0,0.0,0.0,0.0,0.0,2.0765,2.0935,2.1242,2.1506,2.1667,2.2861,2.3561,2.3773,2.4807,2.5276,2.5312,2.5312,2.5312,2.5312,2.5312,2.5535,2.591,2.5945,2.6361,2.7024,2.7369,0.0,0.0,0.0,0.0,0.0,0.0,0.0,0.0,0.0,0.0,0.0,0.0,0.0,3.4015,3.4015,3.5187,3.6492,3.6492,3.66,3.6754,3.6938,3.7105,0.0,3.7642,3.8177,0.0,3.9039,0.0,4.0478,4.1306,4.2035,4.2538,4.2586,4.2602,4.2602,4.2602,4.2602,4.2539,4.2381,4.2381,4.2607,4.3149,4.3228,4.3853,4.5197,4.5514,4.5922,4.655,4.6807,4.6996,4.7217,4.7436,4.7604,4.7737,4.8065,4.8324,4.8515,4.8738,4.8801,4.8801,4.9094,4.932,4.9518,4.9825,5.0114,5.0467,5.1403,5.2097,5.2564,5.3299,5.3762,5.4143,5.5199,5.5608,5.5767,0.0,0.0,0.0,0.0,0.0,0.0,0.0,0.0,0.0,0.0,0.0,0.0,0.0,0.0,0.0,0.0,0.0,0.0,0.0,0.0,2.0754,2.0903,2.1198,2.1506,2.1698,2.2894,2.3594,2.3806,2.4807,2.5312,2.5312,2.5312,2.5312,2.5312,2.5312,2.5535,2.591,2.591,2.6327,2.7024,2.7268,2.7703,0.0,0.0,0.0,0.0,0.0,0.0,0.0,0.0,3.1117,3.1146,0.0,3.2644,3.4015,3.4015,3.5187,3.6492,3.6492,3.6554,3.66,3.677,3.7265,0.0,0.0,3.8467,3.886,3.9443,4.0281,4.1173,4.2068,4.2424,4.2602,4.2602,4.2696,4.2806,4.2806,4.2852,4.2898,4.2836,4.2836,4.2888,4.3007,4.3444,4.4075,4.4911,4.5446,4.6029,4.674,4.6858,4.6996,4.7183,4.7285,4.7454,4.7704,4.7836,4.8,4.8179,4.8468,4.8675,4.8818,4.9001,4.9229,4.95,4.9779,5.0086,5.0432,5.0861,5.1331,5.1803,5.2252,5.248,5.2751,5.4338,5.4907,5.5137,0.0,0.0,0.0,0.0,0.0,0.0,0.0,0.0,0.0,0.0,0.0,0.0,0.0,0.0,0.0,0.0,0.0,0.0,0.0,2.0464,2.0733,2.085,2.121,2.1506,2.1698,2.2894,2.3594,2.3806,2.4807,2.5312,2.5312,2.5312,2.5312,2.5312,2.5312,2.5535,2.591,2.591,2.6327,2.7024,2.7214,2.7616,0.0,0.0,0.0,0.0,0.0,0.0,0.0,0.0,3.1014,0.0,0.0,0.0,0.0,0.0,3.5034,3.6215,3.643,3.6492,3.6523,3.6662,0.0,0.0,3.8653,3.9059,3.9467,4.0006,4.0941,4.1833,4.2474,4.2602,4.2634,4.2665,4.2806,4.2899,4.2961,4.3021,4.3113,4.3113,4.3113,4.3052,4.2976,4.3433,4.4023,4.4805,4.5275,4.5956,4.6862,4.6876,4.6961,4.7098,4.7183,4.7319,4.7538,4.7638,4.7787,4.7886,4.8212,4.8468,4.8707,4.8863,4.9155,4.9518,4.9708,5.0028,5.0415,5.0492,5.0838,5.1324,5.1607,5.1851,5.2276,5.3914,5.4637,5.5065,0.0,0.0,0.0,0.0,0.0,0.0,0.0,0.0,0.0,0.0,0.0,0.0,0.0,0.0,0.0,0.0,0.0,0.0,1.9868,2.0399,2.0701,2.0701,2.1158,2.1506,2.1698,2.2894,2.3594,2.3818,2.4807,2.5312,2.5312,2.5312,2.5312,2.5312,2.5312,2.5535,2.591,2.591,2.6327,2.7024,2.7214,2.7616,2.8112,0.0,0.0,0.0,0.0,0.0,0.0,0.0,3.0821,3.1102,0.0,0.0,0.0,3.3817,3.4713,3.563,3.6307,3.6492,3.6523,3.6662,0.0,0.0,3.9109,3.9976,4.0657,4.0785,4.1661,4.2445,4.2571,4.2602,4.2665,4.2868,4.2899,4.2945,4.3066,4.3096,4.3096,4.3096,4.3096,4.3096,4.3113,4.3113,4.364,4.4903,4.5,4.557,4.6846,4.6876,4.6876,4.6876,4.7098,4.7217,4.7217,4.7538,4.7704,4.7704,4.7886,4.8179,4.8515,4.8707,4.9049,4.9488,4.9518,4.9825,5.0415,5.0415,5.0774,5.1324,5.1589,5.2172,5.3008,5.4112,5.496,5.5749,0.0,0.0,0.0,0.0,0.0,0.0,0.0,0.0,0.0,0.0,0.0,0.0,0.0,0.0,0.0,0.0,0.0,0.0,1.9671,2.0302,2.0701,2.0701,2.1063,2.1391,2.1698,2.3036,2.4088,2.4855,2.5155,2.5312,2.5312,2.5312,2.5312,2.5312,2.5312,2.5453,2.5688,2.5828,2.6176,2.6611,2.693,2.7315,2.7703,0.0,0.0,0.0,0.0,0.0,0.0,0.0,0.0,0.0,0.0,0.0,0.0,3.3788,3.4607,3.5462,3.6276,3.6492,3.6523,3.6554,0.0,0.0,0.0,3.9912,0.0,0.0,4.1965,4.227,4.2539,4.2713,4.2837,4.2899,4.3115,4.3267,4.3312,4.3402,4.3462,4.3462,4.3462,4.3402,4.3312,4.3312,4.3842,4.5113,4.5082,4.5603,4.7033,4.6996,4.6876,4.6876,4.6961,4.7064,4.7217,4.7319,4.7471,4.7704,4.7737,4.7968,4.8292,4.85,4.8798,4.9155,4.9398,4.9708,5.0068,5.0519,5.0919,5.1324,5.1479,5.1775,5.2258,5.3914,5.4637,5.5047,0.0,0.0,0.0,0.0,0.0,0.0,0.0,0.0,0.0,0.0,0.0,0.0,0.0,0.0,0.0,0.0,0.0,0.0,0.0,0.0,2.0701,2.0701,2.101,2.1557,2.2309,2.3317,2.4278,2.5312,2.5312,2.5312,2.5312,2.5312,2.5312,2.5312,2.5312,2.5418,2.5606,2.5793,2.6094,2.6427,2.6841,2.7214,2.7523,0.0,0.0,0.0,0.0,0.0,0.0,0.0,0.0,0.0,0.0,0.0,0.0,3.3334,3.4166,3.4988,3.5876,3.6292,3.6492,3.6492,3.7667,3.9006,3.9794,0.0,4.1212,4.1965,4.2109,4.2238,4.2634,4.2837,4.293,4.3084,4.3267,4.3402,4.3462,4.3539,4.3598,4.3598,4.3598,4.3568,4.3509,4.3479,4.4012,4.5288,4.5227,4.5734,4.7135,4.6996,4.6876,4.6876,4.6876,4.6961,4.7064,4.7183,4.7352,4.7621,4.7671,4.7836,4.8147,4.8388,4.8673,4.9032,4.9471,4.9825,5.0143,5.0602,5.0999,5.1307,5.1454,5.1777,5.2365,5.3932,5.4673,5.5155,0.0,0.0,0.0,0.0,0.0,0.0,0.0,0.0,0.0,0.0,0.0,0.0,0.0,0.0,0.0,0.0,0.0,0.0,0.0,0.0,2.0701,2.0701,2.1088,2.1957,2.3282,2.3687,2.4326,2.5312,2.5312,2.5312,2.5312,2.536,2.5384,2.5384,2.5432,2.5527,2.5716,2.594,2.622,2.6543,2.696,2.7296,2.7568,2.7961,0.0,0.0,0.0,0.0,0.0,0.0,0.0,0.0,3.0955,3.1248,3.1687,3.2654,3.3496,3.427,3.5216,3.5922,3.6415,3.6476,3.7667,3.9256,4.091,4.1456,4.172,4.2045,4.2109,4.227,4.2806,4.2899,4.3023,4.3342,4.3449,4.3509,4.3598,4.3628,4.3628,4.3628,4.3628,4.3628,4.3598,4.3598,4.4134,4.543,4.5404,4.5881,4.7169,4.703,4.6911,4.6876,4.6876,4.6876,4.6876,4.7064,4.7285,4.752,4.7621,4.7787,4.8001,4.834,4.8673,4.9063,4.9619,5.0057,5.0387,5.0657,5.0972,5.1255,5.1428,5.2027,5.2911,5.4051,5.4907,5.5677,0.0,0.0,0.0,0.0,0.0,0.0,0.0,0.0,0.0,0.0,0.0,0.0,0.0,0.0,0.0,0.0,0.0,0.0,0.0,0.0,2.0701,2.0701,2.1701,2.2624,2.3449,2.4056,2.4662,2.5312,2.5312,2.5312,2.5312,2.5733,2.5925,2.5949,2.6394,2.6586,2.6624,2.6993,2.7213,2.731,2.7879,2.7956,2.7777,2.8195,2.8291,0.0,0.0,0.0,0.0,0.0,0.0,0.0,3.0598,3.0984,3.1528,3.2376,3.2839,3.341,3.4851,3.537,0.0,3.6322,3.7777,3.9417,4.0823,4.1503,4.1882,4.2045,4.2109,4.227,4.2806,4.2976,4.3113,4.3372,4.3598,4.3793,4.3822,4.3939,4.3952,4.3868,4.3839,4.3763,4.3628,4.3598,4.4194,4.5619,4.5561,4.6043,4.7354,4.7251,4.7064,4.6911,4.6876,4.6876,4.6876,4.6945,4.7132,4.752,4.7537,4.7704,4.8001,4.834,4.8736,4.9168,4.9471,4.9737,5.0011,5.0341,5.063,5.0928,5.1228,5.1534,5.2009,5.3828,5.4583,5.4975,0.0,0.0,0.0,0.0,0.0,0.0,0.0,0.0,0.0,0.0,0.0,0.0,0.0,0.0,0.0,0.0,0.0,0.0,0.0,0.0,0.0,2.1031,2.1987,2.2808,2.3482,2.4266,2.4921,2.5453,2.5453,2.5515,2.5697,2.5973,2.6238,2.6514,2.6765,2.6898,2.6935,2.7335,2.7483,2.7557,2.8158,2.8272,2.8135,2.8607,2.8725,2.8667,2.904,0.0,0.0,0.0,0.0,0.0,0.0,0.0,3.1102,3.1811,3.2331,3.293,3.4273,0.0,0.0,3.655,0.0,3.9259,4.0384,4.1234,4.1801,4.2045,4.2174,4.2397,4.2898,4.3052,4.3204,4.3432,4.3734,4.3898,4.3898,4.4027,4.4056,4.3927,4.3898,4.3839,4.3628,4.3598,4.4092,4.5185,4.541,4.5944,4.693,4.7105,4.7098,4.6927,4.6876,4.6876,4.6876,4.6876,4.7098,4.752,4.752,4.777,4.8244,4.842,4.8767,4.9199,4.9411,4.9649,4.9924,5.0257,5.0564,5.083,5.1176,5.1376,5.1673,5.325,5.4126,5.4705,0.0,0.0,0.0,0.0,0.0,0.0,0.0,0.0,0.0,0.0,0.0,0.0,0.0,0.0,0.0,0.0,0.0,0.0,0.0,0.0,0.0,0.0,2.2277,2.3003,2.3714,2.45,2.5168,2.5653,2.5738,2.5948,2.6274,2.6238,2.6538,2.7042,2.7126,2.7174,2.72,2.7578,2.7753,2.7841,2.8361,2.8568,2.8589,2.9034,2.9207,2.9235,2.9566,2.9608,2.9484,2.9609,0.0,0.0,0.0,0.0,3.0628,3.1175,3.1752,3.2422,3.3472,0.0,3.5353,3.6836,3.7984,0.0,3.9899,4.0885,4.172,4.2045,4.2286,4.2555,4.3021,4.3143,4.3235,4.3568,4.3793,4.3927,4.3927,4.4085,4.4126,4.3969,4.3956,4.3852,4.3658,4.3628,4.3926,4.4622,4.5227,4.5811,4.6373,4.6927,4.7149,4.6927,4.6876,4.6876,4.6876,4.6876,4.7098,4.752,4.7554,4.7919,4.8515,4.8515,4.8736,4.9168,4.9398,4.9619,4.9854,5.02,5.0509,5.0766,5.1079,5.1324,5.1612,5.2659,5.3674,5.4626,0.0,0.0,0.0,0.0,0.0,0.0,0.0,0.0,0.0,0.0,0.0,0.0,0.0,0.0,0.0,0.0,0.0,0.0,0.0,0.0,0.0,2.2312,2.3015,2.3759,2.4626,2.5194,2.5603,2.5875,2.6342,2.6724,2.7064,2.689,2.7066,2.7594,2.8089,2.8294,2.8294,2.8518,2.8714,2.8909,2.9169,2.9189,2.9098,2.9173,2.9196,2.92,2.9271,2.9478,2.9728,2.9511,2.9547,0.0,0.0,0.0,3.0251,3.0628,3.088,3.1264,3.2407,0.0,3.5353,0.0,3.7872,3.8826,3.985,4.1015,4.1898,4.2093,4.2333,4.268,4.3035,4.3235,4.3402,4.3568,4.3864,4.4068,4.4068,4.4344,4.4457,4.4281,4.4155,4.4027,4.3868,4.3687,4.3926,4.4622,4.5367,4.5955,4.6389,4.7077,4.7285,4.6911,4.6876,4.6876,4.6876,4.6876,4.7098,4.7504,4.7803,4.8115,4.8515,4.8515,4.8673,4.9032,4.9367,4.9518,4.9607,5.0046,5.0331,5.0481,5.0766,5.1052,5.1465,5.2531,5.3591,5.4626,0.0,0.0,0.0,0.0,0.0,0.0,0.0,0.0,0.0,0.0,0.0,0.0,0.0,0.0,0.0,0.0,0.0,0.0,0.0,0.0,0.0,2.3051,2.375,2.4348,2.4803,2.5558,2.598,2.6062,2.6616,2.7052,2.7372,2.7489,2.7722,2.8174,2.8402,0.0,0.0,2.8816,2.9,2.9131,2.9482,2.9577,2.9555,2.9656,2.9693,2.9736,2.9848,2.9897,2.9957,2.9835,2.9697,2.9561,2.9628,0.0,0.0,0.0,3.0477,3.0996,3.2404,3.3739,3.498,0.0,3.7079,3.8092,3.929,4.0384,4.1341,4.1965,4.2523,4.2929,4.3066,4.3265,4.3432,4.3598,4.3894,4.4097,4.4097,4.44,4.4542,4.4338,4.4184,4.4056,4.3927,4.3734,4.3714,4.4075,4.5152,4.579,4.5783,4.6864,4.7335,4.6911,4.6876,4.6876,4.6876,4.6996,4.7235,4.7621,4.7869,4.8179,4.8515,4.8515,4.8673,4.9001,4.9367,4.9518,4.9547,5.0017,5.0274,5.0443,5.0684,5.0982,5.136,5.1922,5.2802,5.3843,0.0,0.0,0.0,0.0,0.0,0.0,0.0,0.0,0.0,0.0,0.0,0.0,0.0,0.0,0.0,0.0,0.0,0.0,0.0,0.0,0.0,2.3752,2.4338,2.482,2.5159,2.5852,2.6236,2.627,2.693,2.737,2.7582,2.8056,2.8387,0.0,2.8655,2.8755,0.0,2.9236,2.9496,2.9616,2.993,3.0088,3.0127,3.0233,3.0298,3.0351,3.0393,3.0342,3.0256,3.0069,2.9834,2.9597,2.974,2.9673,0.0,0.0,0.0,3.0905,0.0,0.0,3.4319,3.5185,3.6258,3.7374,3.8509,3.969,4.0768,4.1678,4.2457,4.299,4.3066,4.3295,4.3462,4.3582,4.3835,4.4056,4.4097,4.4327,4.4468,4.4395,4.4212,4.4056,4.3956,4.3747,4.3598,4.3598,4.4939,4.561,4.5308,4.6667,4.7251,4.6927,4.6876,4.6876,4.6876,4.7149,4.742,4.7704,4.7886,4.8179,4.8515,4.8515,4.8673,4.9001,4.9367,4.9518,4.9547,4.9959,5.0246,5.0415,5.063,5.0919,5.1272,5.1402,5.2131,5.3161,0.0,0.0,0.0,0.0,0.0,0.0,0.0,0.0,0.0,0.0,0.0,0.0,0.0,0.0,2.1272,2.1481,0.0,0.0,0.0,0.0,0.0,2.4494,2.4701,0.0,2.6117,2.6201,2.6305,0.0,0.0,0.0,2.7779,2.8641,2.8937,2.8776,2.9108,2.9366,2.9582,0.0,0.0,3.0968,3.0815,3.0857,3.1009,3.075,3.0778,3.0897,3.0588,3.0626,3.0659,3.0018,2.9939,3.005,3.0009,2.972,2.9561,0.0,0.0,0.0,0.0,3.2359,0.0,3.4289,3.5668,3.6912,3.7698,3.9138,4.0465,4.1055,4.193,4.2711,4.3035,4.3372,4.3598,4.3598,4.3763,4.3939,4.4068,4.4224,4.4367,4.457,4.4315,4.4097,4.4097,4.3805,4.3598,4.3598,4.4799,4.5435,4.5308,4.6518,4.7115,4.6927,4.6876,4.6876,4.6876,4.7285,4.7571,4.7704,4.7886,4.8179,4.8515,4.8515,4.8673,4.9001,4.9367,4.9518,4.9518,4.9877,5.0149,5.0415,5.0415,5.0692,5.1132,5.1272,5.2003,5.2962,0.0,0.0,0.0,0.0,0.0,0.0,0.0,0.0,0.0,0.0,0.0,0.0,0.0,2.1336,2.1557,2.1766,2.2498,0.0,0.0,0.0,0.0,2.521,2.5395,2.5714,2.6201,2.6339,2.643,0.0,0.0,2.8,2.7829,2.8807,2.9197,2.8998,2.9322,2.9525,2.9671,3.0507,0.0,3.0902,3.0972,3.0918,3.0823,3.0741,3.0741,3.0787,3.0684,3.0773,3.0838,3.0414,3.0254,3.0196,3.0089,2.9957,2.9876,3.0369,3.0521,3.0646,0.0,0.0,0.0,3.3928,3.5063,3.6232,3.7336,3.8245,3.9062,3.9945,4.1129,4.1985,4.2138,4.2879,4.3509,4.3598,4.3763,4.3927,4.3969,4.4155,4.4281,4.427,4.4155,4.4085,4.3969,4.3763,4.3598,4.3598,4.4768,4.5435,4.5308,4.6518,4.7098,4.6927,4.6876,4.703,4.7285,4.7521,4.7721,4.7886,4.7968,4.8179,4.8515,4.8515,4.8673,4.9001,4.9367,4.9518,4.9518,4.9877,5.0149,5.0415,5.0415,5.0682,5.1105,5.1246,5.1605,5.2131,0.0,0.0,0.0,0.0,0.0,0.0,0.0,0.0,0.0,0.0,0.0,0.0,0.0,0.0,2.2382,2.2641,2.3524,2.4179,2.4564,2.4956,2.5288,2.5571,2.5723,2.5898,2.6097,0.0,0.0,0.0,0.0,0.0,0.0,2.8922,2.9341,2.9234,2.984,3.0118,0.0,3.1195,3.1559,3.1433,3.1517,3.139,3.1125,3.107,3.104,3.1004,3.0917,3.0928,3.1008,3.067,3.0482,3.0355,3.0328,3.0332,3.0306,3.0414,3.0564,3.076,3.113,0.0,0.0,3.3586,3.4561,3.5594,3.6664,3.7371,3.8091,3.8968,4.0114,4.0981,4.1179,4.1901,4.2663,4.3426,4.3687,4.3822,4.3898,4.4039,4.4155,4.4097,4.4056,4.3998,4.3898,4.3734,4.3598,4.3598,4.4754,4.5387,4.5308,4.6435,4.703,4.6911,4.6961,4.7183,4.752,4.7621,4.7787,4.8001,4.8001,4.8147,4.842,4.8483,4.8658,4.8956,4.9337,4.9518,4.9518,4.9877,5.0149,5.0415,5.0415,5.0665,5.1052,5.122,5.135,5.1551,0.0,0.0,0.0,0.0,0.0,0.0,0.0,0.0,0.0,0.0,0.0,0.0,0.0,0.0,0.0,2.4189,2.4766,2.5123,2.5111,2.5241,2.5382,2.5571,0.0,0.0,0.0,0.0,0.0,0.0,0.0,0.0,0.0,0.0,2.9419,2.9468,3.0586,3.1124,3.1199,3.2251,3.2711,3.268,3.2487,3.2281,3.2018,3.1797,3.1753,3.1693,3.1361,3.121,3.1156,3.0849,3.0638,3.0528,3.0768,3.085,3.086,3.0429,3.0699,3.1157,0.0,0.0,0.0,3.3248,3.4138,3.5019,3.5559,3.6587,3.7589,3.8137,3.8936,3.9737,4.0345,4.048,4.113,4.3015,4.3459,4.3641,4.3868,4.3898,4.3956,4.4068,4.3985,4.3898,4.3898,4.3704,4.3598,4.3598,4.4646,4.5276,4.5308,4.6334,4.6876,4.6876,4.7115,4.7301,4.752,4.7621,4.7787,4.8001,4.8001,4.8049,4.8195,4.842,4.8627,4.8849,4.9307,4.9518,4.9518,4.9877,5.0149,5.0415,5.0415,5.061,5.0945,5.1193,5.1298,5.135,0.0,0.0,0.0,0.0,0.0,0.0,0.0,0.0,0.0,0.0,0.0,0.0,2.3641,2.4007,2.4406,2.4838,2.5004,2.5147,2.5241,2.5276,2.5382,2.5571,2.5606,0.0,0.0,0.0,0.0,0.0,0.0,0.0,0.0,0.0,0.0,0.0,3.0829,3.1317,3.1392,3.2506,3.2766,3.2512,3.2818,3.2711,3.2412,3.2741,3.2747,3.254,3.2442,3.2041,3.1535,3.1408,3.1082,3.0729,3.0943,3.128,3.1457,3.1052,3.1072,3.115,3.1053,0.0,0.0,0.0,0.0,0.0,3.5019,3.5677,3.6327,3.6707,3.767,3.8591,3.8974,3.9782,4.0566,4.1195,4.2058,4.2897,4.3591,4.3793,4.3852,4.3747,4.3822,4.3839,4.3704,4.3628,4.3598,4.3598,4.4153,4.4719,4.5276,4.6334,4.6876,4.6876,4.7115,4.7301,4.752,4.7621,4.7787,4.8001,4.8001,4.8049,4.8195,4.842,4.8627,4.8849,4.9307,4.9518,4.9518,4.9877,5.0149,5.0415,5.0415,5.061,5.0945,5.1193,5.1298,5.135,0.0,0.0,0.0,0.0,0.0,0.0,0.0,0.0,0.0,0.0,0.0,0.0,2.4561,2.5075,2.5449,2.5706,2.5815,2.5792,2.5648,2.5636,2.5576,2.5465,2.5453,2.5535,0.0,0.0,0.0,0.0,0.0,0.0,0.0,0.0,0.0,0.0,0.0,0.0,0.0,3.2506,3.2736,3.2449,3.2844,3.2807,3.2563,3.3092,3.3145,3.2911,3.2911,3.2511,3.2018,3.1862,3.1448,3.101,3.1185,3.1341,3.1487,3.1461,3.1468,3.1487,0.0,0.0,0.0,3.2798,0.0,0.0,3.4093,3.4398,3.467,3.5015,3.5967,3.6878,3.7367,3.8326,3.9184,3.9787,4.0577,4.1468,4.2455,4.2953,4.321,4.3135,4.3505,4.3734,4.3628,4.3539,4.3509,4.3509,4.3894,4.4411,4.5065,4.5941,4.6439,4.6439,4.6952,4.7251,4.7369,4.7588,4.7737,4.7902,4.7968,4.8033,4.8115,4.8388,4.8547,4.869,4.9168,4.9411,4.9518,4.9772,5.0074,5.0415,5.0415,5.061,5.0918,5.1141,5.1246,5.135,0.0,0.0,0.0,0.0,0.0,0.0,0.0,0.0,0.0,0.0,0.0,2.4985,2.5638,2.6273,0.0,0.0,2.6822,2.6681,2.6226,2.619,2.5985,2.5516,2.5492,2.5456,2.5396,0.0,0.0,0.0,0.0,0.0,0.0,0.0,0.0,0.0,0.0,0.0,0.0,3.2319,3.2587,3.2535,3.2796,3.2793,3.2731,3.326,3.3277,3.3042,3.3042,3.2807,3.243,3.2155,3.174,3.1351,3.1423,3.135,3.1303,3.1669,3.1825,0.0,0.0,0.0,0.0,3.303,3.2925,0.0,3.304,3.3056,3.3079,3.3377,3.415,3.4973,3.5666,3.6402,3.7266,3.8376,3.8891,3.9641,4.098,4.1712,4.2199,4.2315,4.2923,4.3353,4.3436,4.3317,4.329,4.3372,4.3755,4.4203,4.4642,4.5322,4.5726,4.5807,4.6609,4.7101,4.7217,4.7521,4.7671,4.7704,4.7886,4.7968,4.8001,4.8257,4.8366,4.8398,4.8765,4.9052,4.9261,4.9495,4.9902,5.0415,5.0415,5.061,5.0918,5.1052,5.1167,5.1324,0.0,0.0,0.0,0.0,0.0,0.0,0.0,0.0,0.0,0.0,0.0,0.0,2.638,0.0,0.0,0.0,2.6898,2.6849,2.6741,2.6729,2.6693,2.6585,2.6585,2.6406,2.5949,2.613,0.0,0.0,0.0,0.0,0.0,0.0,0.0,0.0,0.0,0.0,0.0,3.2364,3.269,3.3088,3.3357,3.3542,3.3754,3.4318,3.4245,3.3867,3.3867,3.3293,3.2443,3.1937,3.1948,3.2119,3.1815,3.1851,3.1959,3.1824,3.1796,3.1803,3.1729,3.1963,3.2277,3.2386,3.267,0.0,3.2613,3.2758,3.293,3.2935,3.3171,3.3587,3.4287,3.4751,3.5184,3.5642,3.6581,3.8107,4.0547,4.1098,4.1255,4.1284,4.1415,4.1756,4.2348,4.2383,4.2583,4.3125,4.3693,4.3992,4.3913,4.4593,4.5241,4.5791,4.5987,4.6445,4.7167,4.7251,4.7437,4.7704,4.7737,4.7853,4.7984,4.7629,4.7504,4.7611,4.7359,4.7415,4.7711,4.85,4.9436,5.0415,5.0415,5.061,5.0918,5.1052,5.1167,5.1324,0.0,0.0,0.0,0.0,0.0,0.0,0.0,0.0,0.0,0.0,0.0,0.0,0.0,0.0,0.0,0.0,0.0,0.0,0.0,2.709,2.7009,2.6747,2.686,2.6765,2.6477,2.6699,0.0,0.0,0.0,0.0,0.0,0.0,0.0,0.0,0.0,0.0,0.0,3.2315,3.2855,3.3584,3.3487,3.3678,3.4054,3.4583,3.4494,3.4125,3.4125,3.3588,3.2868,3.2582,3.2496,3.2473,3.2491,3.2283,3.2018,3.2133,3.1966,3.1784,3.1724,3.1809,3.1927,3.2036,3.2068,0.0,0.0,3.1534,3.149,3.1329,3.171,3.224,3.29,3.3562,3.4118,3.4398,3.5232,3.6305,3.7668,3.915,4.0154,4.0228,4.0551,4.0893,4.1268,4.1241,4.146,4.2066,4.27,4.3009,4.2912,4.3719,4.43,4.4639,4.5078,4.5679,4.6478,4.6595,4.678,4.7046,4.7128,4.7077,4.6891,4.6733,4.6705,4.6826,4.67,4.684,4.725,4.7729,4.8643,4.9781,5.023,5.0537,5.0774,5.1008,5.1167,5.1324,0.0,0.0,0.0,0.0,0.0,0.0,0.0,0.0,0.0,0.0,0.0,0.0,0.0,2.8207,2.8448,0.0,0.0,0.0,2.7547,2.7699,2.7542,2.7058,2.7188,2.722,2.7054,2.7294,2.7481,0.0,0.0,0.0,0.0,0.0,0.0,0.0,0.0,0.0,0.0,3.2476,3.3113,3.3977,3.3579,3.3729,3.4186,3.4619,3.4543,3.4162,3.4125,3.3805,3.3441,3.3383,3.309,3.2767,3.3048,3.2616,3.2109,3.2374,3.2211,3.1915,3.1876,3.1702,3.1607,3.183,3.1558,3.1118,0.0,0.0,0.0,2.9869,3.035,3.0979,3.1537,3.2375,3.3096,3.3441,3.4123,3.4605,3.4589,3.6748,3.8485,3.8895,3.9437,3.9887,4.0162,4.022,4.0437,4.0861,4.1517,4.1917,4.1917,4.2751,4.3314,4.3492,4.4171,4.4884,4.5597,4.5747,4.5929,4.6143,4.629,4.6122,4.5767,4.582,4.5907,4.6073,4.6072,4.6283,4.6749,4.6914,4.7625,4.8688,4.9757,5.0359,5.0657,5.0981,5.1167,5.1324,2.3287,2.3604,0.0,0.0,0.0,0.0,0.0,0.0,0.0,0.0,0.0,2.8744,2.8744,2.9064,2.9256,2.9256,2.9226,2.9202,2.9132,2.9174,2.9022,2.8632,2.8661,2.8354,2.7618,2.7966,2.8195,0.0,0.0,0.0,0.0,0.0,0.0,0.0,3.2177,0.0,0.0,3.31,3.3457,3.4001,3.3953,3.4222,3.4691,3.4763,3.4628,3.4347,3.4162,3.404,3.3972,3.3742,3.3613,3.3493,3.3007,3.2934,3.295,3.2376,3.2306,3.2352,3.2045,3.1771,3.1564,3.1783,3.154,3.1206,3.0931,0.0,3.0215,2.9936,0.0,2.9888,3.0244,0.0,0.0,3.1559,3.2535,3.3262,3.3393,3.4434,3.566,3.6883,3.7084,3.7668,3.9049,3.9738,4.0155,4.0204,4.0829,4.1213,4.1213,4.1885,4.2639,4.3476,4.3605,4.4057,4.4901,4.495,4.5049,4.5261,4.539,4.5501,4.561,4.5088,4.505,4.5303,4.4633,4.4636,4.5137,4.5924,4.6398,4.6814,4.8695,4.9916,5.0657,5.0981,5.1167,5.1324,2.3641,2.3897,0.0,0.0,0.0,0.0,0.0,0.0,0.0,0.0,0.0,2.9,2.935,2.9122,2.9005,2.9005,2.8876,2.8833,2.8833,2.9036,0.0,2.9176,2.929,2.9296,2.9112,2.9504,2.9585,0.0,2.9658,0.0,0.0,0.0,0.0,0.0,3.2542,3.2836,3.3265,3.3231,3.3519,3.4001,3.4026,3.4306,3.4775,3.4775,3.4628,3.4384,3.4162,3.4162,3.4274,3.4147,3.4018,3.3887,3.3758,3.3384,3.2922,3.2809,3.2431,3.2123,3.2092,3.1868,3.1572,3.1487,3.1448,3.1259,3.0576,3.0396,3.0284,3.0025,0.0,0.0,0.0,0.0,0.0,0.0,3.1442,3.1928,3.216,3.2648,3.3602,3.5336,3.5606,3.6085,3.7152,3.7893,3.8461,3.8871,3.955,4.0151,4.0626,4.1023,4.1645,4.2557,4.2767,4.3235,4.4058,4.4107,4.4269,4.4479,4.4606,4.4534,4.4325,4.4117,4.4212,4.4419,4.4219,4.4281,4.4665,4.522,4.5788,4.6399,4.7523,4.8746,4.9943,5.0796,5.1167,5.1324,2.4007,0.0,0.0,0.0,0.0,0.0,0.0,0.0,2.9196,2.9679,2.9462,2.9336,2.9574,2.9401,2.9178,2.9134,2.917,2.9205,2.9205,2.955,2.9776,2.9832,2.995,3.0034,3.0098,3.0558,3.0581,0.0,0.0,0.0,0.0,0.0,0.0,0.0,0.0,3.3178,3.3622,3.3486,3.3728,3.4234,3.4231,3.4438,3.4775,3.4775,3.4677,3.4482,3.4347,3.4396,3.4531,3.4531,3.4377,3.4234,3.428,3.3805,3.3241,3.3277,3.2776,3.224,3.2424,3.2081,3.1619,3.1405,3.1301,3.1048,3.044,3.0272,3.0211,3.0073,2.9757,0.0,0.0,0.0,3.0077,3.054,0.0,3.0999,3.1263,3.1466,3.2248,3.4058,3.4583,3.498,3.5554,3.6021,3.6597,3.725,3.8028,3.8809,3.9562,4.018,4.0831,4.1515,4.1997,4.2559,4.3186,4.3299,4.3459,4.3618,4.3822,4.3682,4.3312,4.3492,4.3704,4.3898,4.4056,4.4224,4.4474,4.4841,4.5367,4.6018,4.6672,4.7778,4.9112,5.033,5.0991,5.1324,2.4345,2.4502,0.0,0.0,0.0,0.0,0.0,2.9349,2.95,2.9333,2.9825,2.9986,2.9479,3.0091,3.0439,3.0158,3.0785,3.1222,3.1222,3.1508,3.1448,3.0904,3.0857,3.0607,3.011,3.0558,3.0778,3.0753,0.0,0.0,0.0,0.0,0.0,0.0,3.354,3.3836,3.4148,3.4012,3.4293,3.4787,3.4788,3.4763,3.4775,3.4775,3.4775,3.4775,3.4787,3.4787,3.4775,3.4775,3.4763,3.4715,3.415,3.416,3.4228,3.3752,3.3399,3.315,3.315,3.2351,3.1558,3.1732,3.1144,3.0557,3.0745,3.0291,2.9878,3.0074,2.9864,2.9827,3.022,3.0251,3.028,0.0,3.0654,0.0,0.0,3.1117,3.1793,3.3081,3.4,3.4517,3.4548,3.4563,3.4872,3.5521,3.6383,3.7157,3.784,3.9404,4.04,4.0609,4.1468,4.2093,4.2413,4.2445,4.2509,4.2666,4.2992,4.3129,4.3113,4.3462,4.3704,4.3898,4.4056,4.4184,4.4321,4.4814,4.5022,4.5179,4.6349,4.735,4.8276,4.9486,5.0522,5.1324,0.0,0.0,0.0,2.6127,2.7004,2.8086,2.9408,2.9496,2.9615,3.023,2.995,2.9867,3.0354,3.0232,3.0239,3.0456,3.0874,3.1109,3.1109,3.1563,3.1842,3.1937,3.196,3.1883,3.1697,3.1981,3.1846,3.1252,0.0,0.0,0.0,0.0,0.0,0.0,0.0,3.4144,3.4448,3.4442,3.4582,3.4811,3.4812,3.4775,3.4775,3.4775,3.4775,3.4775,3.4775,3.4775,3.4775,3.4775,3.4775,3.4751,3.457,3.4366,3.41,3.392,3.3603,3.3211,3.2982,3.265,3.2242,3.1724,3.1395,3.1063,3.0693,3.0438,3.0253,3.0277,3.0118,3.0062,3.0441,3.0377,0.0,0.0,0.0,3.0568,0.0,3.0969,3.1352,3.1867,3.2484,3.3033,3.3476,3.3522,3.398,3.508,3.5431,3.6183,3.7526,3.8148,3.9041,4.0353,4.0831,4.1422,4.2206,4.2349,4.2476,4.2602,4.2852,4.299,4.3113,4.3372,4.3539,4.3734,4.3981,4.4126,4.4196,4.4665,4.4913,4.5066,4.5656,4.649,4.7561,4.9074,5.0348,5.135,2.4454,2.528,2.6005,2.6524,2.7462,2.8518,2.9525,2.953,2.9672,3.0347,3.0124,3.0114,3.059,3.0524,3.0522,3.082,3.1254,3.1551,3.1649,3.2197,3.2563,3.2794,3.2877,3.2876,3.2791,3.2983,3.2857,3.2381,3.2445,3.2817,0.0,0.0,0.0,0.0,0.0,3.443,3.5018,3.4799,3.4969,3.5352,3.5077,3.4884,3.4775,3.4775,3.4775,3.4775,3.4775,3.4775,3.4775,3.4775,3.4775,3.4775,3.4775,3.4546,3.427,3.427,3.3958,3.3477,3.3312,3.2995,3.2535,3.2021,3.1632,3.1295,3.0844,3.0726,3.0681,3.0468,3.0419,3.0449,3.0695,3.0575,3.0404,0.0,0.0,0.0,0.0,3.0732,3.1014,3.1205,3.1524,3.1949,3.2415,3.246,3.2913,3.4031,3.4409,3.5139,3.6424,3.7135,3.8053,3.9277,4.0068,4.0831,4.1565,4.2062,4.2381,4.2539,4.2775,4.2976,4.3113,4.3312,4.3462,4.3628,4.3894,4.4056,4.4126,4.4536,4.4814,4.5005,4.523,4.596,4.71,4.8539,5.0022,5.135,2.4681,2.5648,2.6429,2.6655,2.7705,2.8727,2.9256,2.9535,2.9761,2.9866,3.0468,3.0717,3.0303,3.0911,3.1291,3.1313,3.2074,3.2606,3.288,3.3431,3.3606,3.3358,3.3587,3.3624,3.3344,3.354,3.3747,3.401,3.3694,0.0,0.0,0.0,0.0,0.0,3.4279,0.0,3.5804,3.5079,3.5378,3.631,3.5512,3.5078,3.4835,3.4835,3.4775,3.4775,3.4775,3.4775,3.4775,3.4775,3.4775,3.4775,3.4775,3.4775,3.4775,3.4775,3.4426,3.4018,3.4006,3.3274,3.2563,3.2515,3.1866,3.1253,3.1204,3.1129,3.1012,3.0613,3.0727,3.0904,3.1017,3.0787,3.0575,0.0,0.0,0.0,3.0321,3.0447,3.0702,3.1043,3.1205,3.1351,3.1511,3.1511,3.178,3.2437,3.3261,3.4015,3.4663,3.6393,3.7399,3.7507,3.9261,4.0321,4.0593,4.1565,4.2174,4.2413,4.2744,4.2945,4.3113,4.3295,4.3462,4.3598,4.3793,4.3969,4.4097,4.4378,4.4686,4.4978,4.5123,4.5845,4.6959,4.7989,4.9574,5.1271,2.4893,2.6203,2.7323,2.7912,2.8615,2.9198,2.9547,2.9882,3.0282,3.0913,3.0639,3.0611,3.1255,3.1323,3.1412,3.1816,3.2437,3.293,3.3181,3.353,3.3808,3.4097,3.4194,3.4102,3.3814,3.3884,3.3926,3.401,3.4123,0.0,3.518,0.0,0.0,0.0,0.0,3.5908,3.636,3.6045,3.5962,3.6051,3.5416,3.5175,3.5078,3.4884,3.4775,3.4775,3.4775,3.4775,3.4775,3.4775,3.4775,3.4775,3.4775,3.4775,3.4775,3.4775,3.4679,3.4486,3.4102,3.3802,3.3418,3.2695,3.2331,3.2011,3.1331,3.1168,3.1124,3.0984,3.0751,3.077,3.128,3.1092,3.0923,3.0969,0.0,0.0,3.0183,3.0266,3.0568,3.1043,3.1132,3.1249,3.1482,3.1511,3.178,3.2437,3.2706,3.3381,3.4633,3.529,3.6211,3.7461,3.8214,3.9219,4.0578,4.1103,4.1693,4.2413,4.2571,4.2759,4.2961,4.3113,4.3281,4.3479,4.3763,4.3927,4.3969,4.4253,4.4463,4.4659,4.4934,4.5818,4.7143,4.8759,4.9723,5.0399,2.5286,2.6426,2.7455,2.8108,2.885,2.9404,2.9543,2.9812,3.025,3.0951,3.0851,3.0948,3.1625,3.1756,3.2001,3.237,3.291,3.335,3.3742,3.4253,3.4722,3.5061,3.521,3.5228,3.5027,3.4945,3.492,3.5067,3.4947,0.0,3.5788,0.0,0.0,0.0,0.0,3.6436,3.6921,3.6715,3.6455,3.6146,3.5716,3.5476,0.0,3.5078,3.4981,3.4981,3.4823,3.4775,3.4835,3.4932,3.4981,3.4981,3.5126,3.5126,3.5126,3.5126,3.5126,3.5054,3.4655,3.4365,3.3944,3.309,3.2671,3.2319,3.1595,3.1501,3.1516,3.1304,3.1195,3.1148,3.133,3.1293,3.1174,3.0972,3.0585,3.0241,3.0105,3.0219,3.0507,3.1043,3.1161,3.1278,3.1467,3.1511,3.166,3.2034,3.2318,3.2856,3.3682,3.4468,3.5337,3.6365,3.7311,3.8481,3.9927,4.0563,4.1358,4.227,4.2445,4.2634,4.2899,4.2976,4.316,4.3419,4.3598,4.3763,4.3927,4.4126,4.4338,4.453,4.4934,4.5585,4.6474,4.7963,4.9118,4.9985,2.568,2.6495,2.7296,2.7893,2.8721,2.9347,2.9386,2.9703,3.0133,3.0671,3.1097,3.1498,3.1809,3.2297,3.269,3.2971,3.3407,3.3925,3.4504,3.5231,3.5786,3.6042,3.6309,3.6449,3.6449,3.6254,3.6271,3.6579,3.6033,0.0,0.0,0.0,0.0,0.0,0.0,0.0,0.0,3.7239,3.6875,3.6405,3.6146,3.5908,3.562,3.5368,3.5271,3.5223,3.4981,3.4884,3.4872,3.5126,3.5223,3.5271,3.5524,3.562,3.562,3.562,3.562,3.5572,3.532,3.4883,3.4384,3.3568,3.3027,3.2476,3.1894,3.1893,3.1935,3.1718,3.1771,3.1789,3.139,3.1423,3.1307,3.067,3.03,3.0114,3.0088,3.0219,3.0507,3.1043,3.1205,0.0,3.1511,3.1511,3.1511,3.1511,3.2034,3.2392,3.2512,3.3818,3.4726,3.5002,3.655,3.7899,3.895,3.996,4.096,4.1965,4.2269,4.2571,4.2868,4.2899,4.3084,4.3372,4.3372,4.3568,4.3868,4.4027,4.4253,4.453,4.4988,4.5257,4.5511,4.6439,4.7971,4.9599,2.6125,2.6806,2.7464,2.8328,2.8672,2.8959,2.9318,3.0124,3.0939,3.15,3.1618,3.1881,3.2587,3.2773,3.2988,3.3436,3.3958,3.4586,3.5313,3.5738,3.6042,3.6297,3.6614,3.6715,3.6715,3.6932,3.7171,3.7407,3.726,3.7388,0.0,0.0,0.0,0.0,0.0,0.0,3.7501,3.7466,3.7108,3.6628,3.6405,3.6181,3.5908,3.562,3.5524,3.5524,3.5476,3.532,3.5126,3.5175,3.5368,3.5524,3.5572,3.562,3.562,3.562,3.562,3.5572,3.5512,3.5451,3.5144,3.4117,3.3662,3.3196,3.2445,3.2125,3.2089,3.2414,3.2171,3.1914,3.186,3.1694,3.1316,3.0477,3.0575,3.0587,3.0145,3.0219,3.0507,3.1043,3.1205,3.1351,3.1511,3.1511,3.1511,3.1511,3.1615,3.1914,3.2452,3.3442,3.4273,3.4987,3.609,3.7172,3.8169,3.9251,4.0293,4.1277,4.2028,4.2476,4.2665,4.2837,4.2976,4.3174,4.3342,4.3509,4.3658,4.3852,4.4155,4.453,4.4759,4.5086,4.5432,4.5606,4.6534,4.79,2.6188,2.6832,2.7376,2.7836,2.835,2.8754,2.898,3.0134,3.1077,3.1337,3.1694,3.2153,3.2835,3.3359,3.3752,3.3981,3.4899,3.5681,3.6176,3.6616,3.7032,3.7436,3.7539,3.7694,3.7849,3.7873,3.7978,3.8216,3.822,3.8341,0.0,0.0,0.0,0.0,0.0,3.8833,0.0,3.848,3.823,3.7954,3.7292,3.6953,3.6784,3.6067,3.5812,3.5764,3.5668,3.562,3.562,3.562,3.5716,3.5812,3.5991,3.5991,3.5991,3.5991,3.5991,3.5991,3.586,3.5812,3.5505,3.4281,3.3906,3.3533,3.2602,3.23,3.23,3.2624,3.2598,3.25,3.2362,3.1963,3.1449,3.101,3.0966,3.0889,3.06,3.0573,3.0702,3.1043,3.1366,3.1568,3.167,3.1712,3.1683,3.1496,3.1511,3.1645,3.1959,3.2765,3.3623,3.444,3.5355,3.6538,3.7982,3.8889,3.9929,4.1101,4.1869,4.2381,4.2602,4.2696,4.2821,4.3007,4.3174,4.3342,4.3539,4.3864,4.4155,4.4435,4.4676,4.4951,4.5203,4.5363,4.5814,4.6655,2.5988,2.6648,2.7207,2.735,2.8087,2.8701,2.8901,3.0063,3.0975,3.1072,3.1796,3.251,3.3133,3.3927,3.4493,3.4816,3.5857,3.6637,3.7035,3.7505,3.7957,3.8461,3.8566,3.8684,3.8893,3.8772,3.8803,3.9057,3.8989,3.9113,3.9369,0.0,0.0,0.0,3.9661,3.9801,3.9968,3.9538,3.9297,3.9113,3.8277,3.7795,3.7498,3.6674,3.6245,3.6051,3.586,3.5908,3.6098,3.6098,3.6098,3.6098,3.6323,3.6405,3.6405,3.6405,3.6405,3.637,3.6146,3.6098,3.5789,3.4453,3.4148,3.3818,3.2765,3.2519,3.2519,3.2723,3.2837,3.2819,3.2696,3.2115,3.1579,3.1518,3.1405,3.124,3.1027,3.1013,3.1042,3.1117,3.1525,3.1813,3.1841,3.194,3.1883,3.1626,3.1597,3.1568,3.1568,3.2284,3.3124,3.4014,3.4835,3.6061,3.7764,3.87,3.9724,4.0893,4.1709,4.227,4.2602,4.2602,4.2696,4.2899,4.3021,4.3235,4.3462,4.3894,4.4126,4.4281,4.4581,4.4786,4.4978,4.523,4.5432,4.5806,2.5485,2.6171,2.6898,2.7556,2.8099,2.873,2.9673,3.0282,3.083,3.1287,3.2222,3.3195,3.4132,3.4326,3.4897,3.6115,3.6571,3.7082,3.7825,3.8173,3.8473,3.8736,3.905,3.9218,3.9258,3.948,3.9712,3.9994,3.9675,3.9655,3.9951,4.0105,4.0348,4.0569,4.0569,4.0375,4.0015,3.9934,3.9634,3.9188,3.9088,3.8476,3.7584,3.7485,3.7001,3.6358,3.631,3.6358,3.6358,3.6358,3.6358,3.6358,3.6405,3.6405,3.6405,3.6405,3.6405,3.6405,3.6358,3.6358,3.6094,3.4911,3.4512,3.4135,3.3245,3.2853,3.2766,3.3025,3.2558,3.2215,3.2632,3.2115,3.1579,3.1518,3.1785,3.1764,3.1084,3.1389,3.1601,3.1337,3.1583,3.1841,3.1968,3.1996,3.1996,3.1968,3.1841,3.1756,3.1756,3.2358,3.3154,3.4148,3.5016,3.5982,3.7093,3.856,3.9597,4.0204,4.1485,4.227,4.2602,4.2602,4.2696,4.2899,4.3021,4.3265,4.3598,4.3822,4.3998,4.4126,4.4281,4.4536,4.4831,4.4978,4.5194,4.5562,2.5217,2.5911,2.6654,2.7351,2.7974,2.8631,2.9306,3.023,3.1028,3.1536,3.2338,3.3263,3.4303,3.4832,3.562,3.678,3.744,3.7968,3.8449,3.8566,3.8936,3.9572,3.9702,4.0009,4.0505,4.0782,4.0933,4.0849,4.0875,4.0946,4.1044,4.0905,4.1057,4.1497,4.1281,4.1354,4.1461,4.1157,4.0913,4.0628,3.9982,3.938,3.8768,3.7947,3.7301,3.6857,3.6531,3.6405,3.6405,3.6405,3.6405,3.6405,3.6405,3.6405,3.6405,3.6405,3.6405,3.6405,3.6405,3.6405,3.6141,3.5002,3.4635,3.4302,3.3332,3.3025,3.2982,3.3227,3.273,3.242,3.2935,3.2268,3.1736,3.2138,3.2215,3.2061,3.1596,3.1756,3.1765,3.1367,3.1683,3.1968,3.2122,3.2191,3.2219,3.2122,3.1996,3.1912,3.1912,3.2619,3.3418,3.4341,3.5182,3.6102,3.7119,3.8576,3.9566,4.0108,4.1453,4.227,4.2602,4.2602,4.2759,4.3021,4.3082,4.3295,4.3628,4.3839,4.3927,4.3998,4.4224,4.4435,4.4631,4.4831,4.5059,4.5361,2.4876,2.5723,2.6526,2.7034,2.7804,2.8599,2.9214,3.027,3.1248,3.1838,3.2778,3.3683,3.4625,3.5498,3.6379,3.7489,3.8085,3.8579,3.8945,3.8945,3.9349,4.0159,4.0237,4.0605,4.1436,4.1676,4.1739,4.1684,4.2009,4.207,4.1947,4.1697,4.1818,4.2263,4.2058,4.2191,4.2462,4.1993,4.1796,4.1607,4.0804,4.0197,3.9704,3.8436,3.7676,3.7255,3.6606,3.6405,3.6405,3.6405,3.6405,3.6405,3.6405,3.6405,3.6405,3.6405,3.6405,3.6405,3.6405,3.6405,3.6141,3.5002,3.468,3.4424,3.3406,3.3197,3.3283,3.3526,3.3006,3.2659,3.3184,3.2471,3.1986,3.2596,3.2709,3.2597,3.2307,3.2285,3.2136,3.1766,3.1932,3.2122,3.2302,3.2468,3.2496,3.2401,3.2333,3.2221,3.2122,3.289,3.3752,3.4591,3.5404,3.628,3.7178,3.8622,3.9581,4.0016,4.1422,4.2238,4.2539,4.2571,4.2743,4.3052,4.3066,4.3265,4.3568,4.3734,4.3868,4.3927,4.4155,4.4321,4.4463,4.472,4.4913,4.5113,2.4415,2.563,2.6615,2.6615,2.7607,2.8707,2.9634,3.0469,3.1371,3.2359,3.357,3.4687,3.5509,3.6287,3.724,3.8307,3.8409,3.8671,3.9258,3.931,3.9663,4.0435,4.0513,4.0883,4.177,4.1783,4.2076,4.2565,4.2866,4.2851,4.2581,4.2534,4.2644,4.2873,4.2873,4.2741,4.2498,4.219,4.1931,4.1696,4.1411,4.0809,4.0026,3.9138,3.8296,3.7508,3.6701,3.6405,3.6405,3.6405,3.6405,3.6405,3.6405,3.6405,3.6405,3.6405,3.6405,3.6405,3.6405,3.6405,3.6141,3.5002,3.468,3.4482,3.3609,3.3398,3.3526,3.3992,3.3333,3.2817,3.3223,3.2683,3.23,3.2632,3.3192,3.3468,3.3231,3.3083,3.2893,3.2705,3.2389,3.2302,3.2566,3.2773,3.2897,3.2897,3.2897,3.2746,3.2425,3.3228,3.4066,3.4878,3.5739,3.6517,3.7178,3.8746,3.9612,3.9815,4.1358,4.2222,4.2413,4.2539,4.2696,4.2899,4.3021,4.3204,4.3402,4.3539,4.3734,4.3927,4.4056,4.4167,4.4321,4.4692,4.4803,4.4831,2.4362,2.5338,2.6205,2.672,2.7537,2.847,2.9432,3.0394,3.1371,3.237,3.4083,3.5341,3.5556,3.6454,3.7513,3.8582,3.8893,3.9154,3.953,3.9581,3.9994,4.0987,4.1238,4.184,4.2861,4.3281,4.3521,4.3492,4.373,4.3871,4.3787,4.3916,4.4035,4.4135,4.4135,4.3841,4.335,4.3089,4.26,4.1931,4.1696,4.118,4.0508,3.9244,3.8538,3.798,3.6839,3.6405,3.6405,3.6405,3.6405,3.6405,3.6405,3.6405,3.6405,3.6405,3.6405,3.6452,3.6581,3.6581,3.6362,3.5397,3.5175,3.4914,3.3854,3.3738,3.3907,3.4076,3.3455,3.3001,3.3263,3.2683,3.2314,3.2632,3.3192,3.3516,3.3245,3.356,3.3538,3.2795,3.2871,3.2921,3.2624,3.2854,3.3032,3.3032,3.3671,3.3869,3.3441,3.4123,3.4922,3.5754,3.6503,3.7034,3.7405,3.8792,3.9612,3.9815,4.1358,4.2238,4.2539,4.2571,4.2696,4.2899,4.3021,4.3204,4.3402,4.3522,4.3628,4.3704,4.3881,4.4056,4.4184,4.4395,4.4592,4.4871,2.4246,2.5288,2.6222,2.6648,2.7441,2.8317,2.9345,3.0345,3.1371,3.247,3.4162,3.5408,3.5711,3.6828,3.7889,3.8739,3.9102,3.9413,3.9685,3.9697,4.0239,4.1465,4.1676,4.2398,4.3713,4.419,4.4457,4.4373,4.456,4.4686,4.48,4.4749,4.4705,4.4705,4.4705,4.4488,4.4108,4.3629,4.3007,4.2398,4.1888,4.1448,4.0943,3.9762,3.8979,3.8392,3.7238,3.6641,3.6405,3.6405,3.6405,3.6405,3.6405,3.6405,3.6405,3.6405,3.6452,3.6534,3.6675,3.6756,3.6595,3.5622,3.5398,3.5135,3.4067,3.4021,3.4243,3.4327,3.3869,3.3462,3.3536,3.3084,3.2754,3.2901,3.3403,3.3759,3.3777,3.4077,3.4158,3.3683,3.3778,3.3829,3.3677,3.3893,3.4056,3.4094,3.4695,3.5045,3.5038,3.5436,3.589,3.6447,3.7099,3.7508,3.7553,3.8931,3.9643,3.9706,4.131,4.227,4.2602,4.2602,4.2665,4.2806,4.2945,4.3113,4.3312,4.3462,4.3568,4.3628,4.3822,4.3956,4.4056,4.4224,4.4423,4.4738,2.4007,2.5364,2.6496,2.6496,2.7336,2.8317,2.9345,3.0345,3.142,3.2621,3.3985,3.5105,3.5931,3.7263,3.8288,3.8739,3.9102,3.9426,3.9685,3.9735,4.0381,4.1732,4.1874,4.2664,4.4287,4.4572,4.4897,4.5234,4.5207,4.5369,4.5641,4.5085,4.4827,4.4827,4.4827,4.48,4.4732,4.3899,4.3366,4.2944,4.2123,4.1587,4.1246,4.0411,3.9582,3.871,3.7884,3.7074,3.6405,3.6405,3.6405,3.6405,3.6405,3.6405,3.6405,3.6405,3.6534,3.6709,3.6709,3.6909,3.6839,3.5712,3.5378,3.5133,3.4322,3.4272,3.4481,3.4756,3.4498,3.4192,3.3939,3.3759,3.3559,3.3353,3.375,3.4264,3.4664,3.4646,3.4737,3.5187,3.495,3.4943,3.5366,3.5518,3.5669,3.5801,3.5876,3.6197,3.6902,3.6982,3.6986,3.6986,3.7553,3.7847,3.77,3.91,3.9754,3.9692,4.1326,4.227,4.2602,4.2602,4.2602,4.2602,4.2806,4.2976,4.3113,4.3312,4.3479,4.3628,4.3809,4.3898,4.3927,4.4196,4.4327,4.4535,2.3775,2.5259,2.6496,2.6496,2.7336,2.8317,2.9345,3.0345,3.142,3.2621,3.3985,3.5105,3.5931,3.7263,3.8288,3.8739,3.927,3.9633,3.9697,4.0282,4.0982,4.1757,4.2605,4.3588,4.46,4.491,4.5328,4.5808,4.6044,4.6213,4.6252,4.6116,4.6048,4.6048,4.6048,4.5804,4.537,4.5183,4.4371,4.3272,4.2888,4.2256,4.1495,4.0496,3.9679,3.8965,3.798,3.7169,3.6628,3.6452,3.6405,3.6405,3.6405,3.6405,3.6405,3.6405,3.6534,3.6722,3.6956,3.7201,3.7175,3.6189,3.5284,3.4653,3.4643,3.4673,3.4756,3.5003,3.4808,3.4495,3.3977,3.4006,3.3892,3.3389,3.3868,3.4433,3.4802,3.518,3.5407,3.5446,3.5561,3.5573,3.5414,3.5602,3.5806,3.5921,3.6561,3.7019,3.7213,3.7729,3.7923,3.7678,3.7809,3.786,3.7847,3.916,4.0309,4.1341,4.1869,4.2206,4.2445,4.2539,4.2602,4.2602,4.2806,4.2976,4.3113,4.3312,4.3479,4.3598,4.3658,4.3763,4.3927,4.4085,4.4577,4.5264,2.3719,2.5212,2.6496,2.6496,2.7336,2.8364,2.953,3.0442,3.1517,3.2971,3.395,3.4908,3.606,3.7134,3.7993,3.8727,3.9374,3.9736,3.989,4.0499,4.1266,4.2104,4.3148,4.404,4.4884,4.5328,4.5755,4.6245,4.6416,4.6469,4.6469,4.6469,4.6469,4.6469,4.6469,4.6292,4.5967,4.5709,4.4891,4.3762,4.3342,4.2575,4.167,4.1044,4.0327,3.9511,3.8653,3.7789,3.7029,3.6669,3.6499,3.6405,3.6405,3.6405,3.6405,3.6499,3.6675,3.6909,3.7062,3.7413,3.7417,3.6353,3.5332,3.4618,3.4756,3.488,3.5003,3.5318,3.5305,3.5056,3.4554,3.4525,3.4445,3.3872,3.421,3.4683,3.5115,3.5557,3.5885,3.603,3.6272,3.6444,3.6546,3.6669,3.685,3.7072,3.7526,3.7809,3.7809,3.8181,3.8323,3.8135,3.8135,3.8107,3.8049,3.9221,4.0515,4.1898,4.198,4.2141,4.2413,4.2476,4.2539,4.2602,4.2713,4.2852,4.3037,4.3174,4.3372,4.3492,4.3568,4.3658,4.3793,4.3939,4.4566,4.5446,2.3709,2.5163,2.6416,2.6486,2.7336,2.8412,2.9726,3.054,3.1615,3.3357,3.3904,3.4712,3.629,3.6967,3.7712,3.8795,3.9501,3.9965,4.021,4.0769,4.1604,4.2682,4.3583,4.4452,4.5221,4.5808,4.6192,4.6469,4.6469,4.6469,4.6469,4.6469,4.6469,4.6469,4.6469,4.6469,4.6428,4.5845,4.5132,4.4307,4.3677,4.2774,4.1796,4.1746,4.1094,4.0112,3.9443,3.8537,3.7639,3.6959,3.664,3.6499,3.6452,3.6452,3.6546,3.6675,3.6922,3.7155,3.7155,3.7376,3.739,3.6415,3.5473,3.4797,3.4921,3.5086,3.5318,3.5723,3.5831,3.5741,3.519,3.5189,3.5109,3.4481,3.4631,3.4997,3.5457,3.5829,3.6226,3.6693,3.6908,3.7241,3.7817,3.7905,3.802,3.8351,3.8408,3.8391,3.8391,3.8391,3.8391,3.8391,3.8391,3.842,3.8457,3.9393,4.0515,4.1866,4.1898,4.2061,4.2334,4.2381,4.2476,4.2571,4.2602,4.2696,4.2899,4.3052,4.3204,4.3402,4.3539,4.3598,4.3645,4.3955,4.4616,4.5496,2.3606,2.4871,2.6054,2.6436,2.7336,2.8412,2.9726,3.054,3.1615,3.3357,3.3904,3.4762,3.6543,3.7068,3.7813,3.9119,4.0151,4.0729,4.0781,4.1511,4.2404,4.3303,4.4411,4.5195,4.5555,4.6139,4.6469,4.6469,4.6469,4.6469,4.6469,4.6469,4.6469,4.6469,4.6469,4.6469,4.6428,4.5845,4.5248,4.455,4.3727,4.2986,4.2302,4.1845,4.1291,4.0565,3.954,3.879,3.8161,3.73,3.7015,3.6968,3.6722,3.6815,3.6968,3.6769,3.7062,3.7459,3.7459,3.6916,3.6389,3.6437,3.5614,3.4921,3.544,3.5602,3.5723,3.6192,3.6575,3.6445,3.5302,3.5666,3.5753,3.4583,3.4964,3.5457,3.5638,3.5958,3.6367,3.6908,3.6969,3.7181,3.7671,3.7847,3.7992,3.8209,3.8351,3.8391,3.8391,3.8391,3.8391,3.8391,3.8391,3.883,3.971,3.9872,4.0515,4.167,4.1833,4.1947,4.1996,4.227,4.2413,4.2445,4.2539,4.2696,4.2899,4.3052,4.3204,4.3402,4.3539,4.3598,4.3694,4.4457,4.5337,4.6254,2.3597,2.4775,2.5832,2.6416,2.7336,2.8412,2.9726,3.054,3.1615,3.3357,3.4088,3.5058,3.663,3.7349,3.8146,3.9196,4.0278,4.1087,4.155,4.243,4.312,4.3713,4.481,4.5609,4.6086,4.6364,4.6469,4.6469,4.6469,4.6469,4.6469,4.6469,4.6469,4.6469,4.6469,4.6469,4.6428,4.5845,4.5248,4.4651,4.3927,4.3184,4.2462,4.2043,4.1673,4.1172,4.019,3.9423,3.8722,3.8045,3.7505,3.7062,3.6956,3.7015,3.7108,3.7108,3.7307,3.7505,3.7657,3.7024,3.6341,3.6484,3.5909,3.5358,3.5642,3.5991,3.631,3.6654,3.6954,3.6882,3.5931,3.605,3.5965,3.4989,3.5195,3.5587,3.5831,3.6053,3.6367,3.68,3.6938,3.7151,3.7492,3.7685,3.7847,3.802,3.8107,3.8135,3.8135,3.8135,3.8135,3.8135,3.8237,3.8856,3.9999,3.9923,4.0452,4.1588,4.1703,4.1784,4.1914,4.2125,4.2318,4.2413,4.2539,4.2665,4.2759,4.299,4.3143,4.3265,4.3492,4.3598,4.3681,4.4483,4.5383,4.6316,2.3531,2.4557,2.5533,2.6358,2.7289,2.8364,2.9715,3.054,3.1615,3.3357,3.4287,3.5358,3.6755,3.7633,3.8531,3.9603,4.0624,4.155,4.2442,4.3289,4.3867,4.4068,4.5036,4.5875,4.6469,4.6469,4.6469,4.6469,4.6469,4.6469,4.6469,4.6469,4.6469,4.6469,4.6469,4.6469,4.6428,4.5695,4.5112,4.4637,4.3877,4.3196,4.2547,4.2289,4.2043,4.1667,4.0828,4.005,3.9388,3.8722,3.8049,3.7428,3.7253,3.7261,3.7307,3.7459,3.7551,3.7657,3.7887,3.7261,3.6528,3.6658,3.6189,3.5723,3.5844,3.631,3.6822,3.7017,3.7289,3.7248,3.6461,3.6422,3.621,3.5322,3.5424,3.5716,3.5973,3.6163,3.6367,3.6662,3.6831,3.7014,3.7284,3.7492,3.7655,3.7772,3.7876,3.7905,3.7905,3.7905,3.7905,3.7905,3.8049,3.871,3.9938,3.9861,4.0404,4.1588,4.1588,4.167,4.1833,4.198,4.2158,4.2349,4.2508,4.2571,4.2634,4.2959,4.3113,4.3127,4.3462,4.3598,4.3698,4.4622,4.5441,4.6243,2.3428,2.4175,2.4979,2.625,2.7119,2.8137,2.9667,3.054,3.1615,3.3357,3.4287,3.5408,3.7057,3.7785,3.8846,4.0651,4.1575,4.2468,4.3368,4.4141,4.4615,4.467,4.5248,4.5875,4.6469,4.6469,4.6469,4.6469,4.6469,4.6469,4.6469,4.6469,4.6469,4.6469,4.6469,4.6469,4.6401,4.5261,4.4746,4.4596,4.343,4.2928,4.2838,4.2547,4.2289,4.195,4.1086,4.0543,4.0138,3.9042,3.8637,3.846,3.772,3.7657,3.7808,3.7564,3.7657,3.7933,3.8122,3.7368,3.6615,3.7029,3.6411,3.5804,3.6232,3.6693,3.7017,3.7226,3.7711,3.7773,3.6548,3.669,3.6625,3.5388,3.5636,3.5973,3.6005,3.6273,3.6538,3.6693,3.6723,3.6785,3.6999,3.727,3.7417,3.7447,3.7727,3.7905,3.7905,3.7905,3.7905,3.7905,3.7905,3.8517,3.9783,3.9799,4.0404,4.1588,4.1588,4.1621,4.1621,4.1817,4.198,4.2142,4.2349,4.2476,4.2634,4.2959,4.3113,4.3127,4.3462,4.3598,4.3764,4.5202,4.5889,4.6341,2.3419,2.4007,2.4707,2.625,2.7335,2.8406,2.9486,3.0657,3.2029,3.363,3.4715,3.5946,3.7635,3.8598,3.9591,4.0765,4.2011,4.2892,4.3446,4.426,4.4789,4.5018,4.5395,4.5768,4.6192,4.6416,4.6469,4.6469,4.6469,4.6469,4.6469,4.6469,4.6469,4.6469,4.6469,4.6469,4.6428,4.56,4.5044,4.4637,4.3782,4.3213,4.2887,4.2609,4.2338,4.2052,4.1544,4.0933,4.0344,3.9913,3.9298,3.8671,3.8322,3.8082,3.7854,3.7762,3.7808,3.7992,3.8376,3.759,3.6787,3.7273,3.6756,3.6258,3.6693,3.707,3.7419,3.7625,3.8066,3.801,3.6819,3.6866,3.6728,3.5568,3.5621,3.5831,3.5831,3.6116,3.6336,3.6399,3.6554,3.6723,3.68,3.7014,3.715,3.715,3.7359,3.7462,3.7462,3.7567,3.7642,3.7642,3.7642,3.8354,3.9799,3.969,4.0277,4.1588,4.1588,4.1588,4.1621,4.1817,4.1931,4.198,4.2286,4.2413,4.2508,4.2852,4.3021,4.3143,4.3372,4.3539,4.378,4.5251,4.586,4.6169,2.3372,2.3868,2.451,2.6192,2.7431,2.8519,2.937,3.0894,3.2442,3.3839,3.5107,3.6506,3.8148,3.9136,4.0186,4.1455,4.246,4.3254,4.3825,4.4587,4.504,4.5193,4.5513,4.5875,4.6143,4.6664,4.6837,4.6648,4.6754,4.6711,4.6469,4.6469,4.6469,4.6469,4.6469,4.6469,4.6428,4.5845,4.5248,4.4651,4.4027,4.3416,4.2887,4.2693,4.2387,4.2079,4.1881,4.1334,4.0671,4.0474,3.9782,3.8958,3.8776,3.8344,3.79,3.79,3.79,3.7992,3.8466,3.7869,3.7144,3.7526,3.7003,3.651,3.6915,3.7303,3.7663,3.7853,3.8254,3.8231,3.7016,3.7005,3.6831,3.5681,3.5621,3.5688,3.5688,3.5943,3.6148,3.6148,3.6336,3.6476,3.6476,3.6708,3.6847,3.6847,3.7044,3.715,3.715,3.7255,3.7331,3.7331,3.7375,3.8128,3.9628,3.955,4.0198,4.1588,4.1588,4.1588,4.1588,4.1752,4.1833,4.1898,4.2141,4.2286,4.2413,4.2696,4.2883,4.3052,4.3312,4.3479,4.3704,4.5251,4.5798,4.6059,2.3326,2.3719,2.4276,2.6154,2.7306,2.8355,2.937,3.1229,3.2887,3.3884,3.5433,3.7066,3.8727,3.941,4.0604,4.2805,4.3028,4.3476,4.4642,4.5297,4.5485,4.522,4.5693,4.6174,4.6473,4.7348,4.7471,4.6894,4.7257,4.7105,4.6482,4.6482,4.6469,4.6469,4.6469,4.6469,4.6428,4.5845,4.5261,4.4651,4.4027,4.3416,4.2887,4.2887,4.2582,4.2079,4.2079,4.1746,4.1219,4.0618,4.0056,3.9494,3.8893,3.8331,3.79,3.79,3.79,3.7992,3.8466,3.8176,3.7721,3.7806,3.7112,3.651,3.6915,3.7303,3.7663,3.7853,3.8389,3.8384,3.7066,3.7129,3.6985,3.5714,3.5636,3.5688,3.5688,3.5863,3.6005,3.6005,3.6005,3.6005,3.6005,3.6304,3.6492,3.6492,3.6816,3.7015,3.7015,3.7015,3.7015,3.7015,3.7119,3.7884,3.9282,3.944,4.0198,4.1588,4.1588,4.1588,4.1588,4.1588,4.1703,4.1898,4.1898,4.2093,4.2413,4.2539,4.2728,4.293,4.3267,4.3402,4.3583,4.5189,4.5798,4.6059,2.3326,2.3719,2.4276,2.6154,2.76,2.871,2.9413,3.1464,3.3355,3.4412,3.5958,3.7613,3.9263,4.0267,4.1327,4.2624,4.3291,4.4094,4.5268,4.5477,4.5728,4.6117,4.6454,4.6658,4.6769,4.7205,4.7371,4.7197,4.6919,4.68,4.6773,4.6341,4.6297,4.6469,4.6469,4.6469,4.6469,4.6292,4.5628,4.4691,4.4501,4.381,4.2887,4.2887,4.2582,4.2079,4.2079,4.1746,4.1285,4.1102,4.0409,3.9442,3.8449,3.8031,3.79,3.79,3.8024,3.8181,3.8512,3.831,3.8014,3.8044,3.7565,3.7117,3.7363,3.7495,3.7687,3.8028,3.8501,3.8531,3.7655,3.7441,3.715,3.6327,3.5821,3.5554,3.5554,3.5686,3.5799,3.5799,3.5894,3.6005,3.6005,3.61,3.6132,3.6132,3.646,3.6754,3.6984,3.7015,3.7015,3.7015,3.7498,3.8185,3.9092,3.9377,4.0198,4.1588,4.1588,4.1588,4.1588,4.1588,4.1621,4.1703,4.1833,4.1963,4.2061,4.2349,4.2539,4.2728,4.3052,4.3281,4.3517,4.4641,4.5351,4.5962,2.3271,2.3767,2.4526,2.6462,2.7826,2.9032,2.9923,3.2042,3.3914,3.4916,3.6482,3.8149,3.9815,4.0771,4.1762,4.2844,4.3832,4.4694,4.5432,4.593,4.646,4.68,4.7193,4.7319,4.7039,4.7589,4.7715,4.7476,4.7085,4.6795,4.6718,4.6143,4.6034,4.6297,4.6297,4.6364,4.6469,4.6469,4.579,4.4705,4.4705,4.3972,4.2887,4.2887,4.2582,4.2079,4.2079,4.1746,4.1311,4.1311,4.0553,3.9416,3.8266,3.79,3.79,3.8024,3.8089,3.8304,3.8621,3.8591,3.8438,3.8528,3.7924,3.7339,3.7536,3.7625,3.7725,3.8127,3.8464,3.8495,3.7812,3.7414,3.702,3.6365,3.5677,3.5261,3.5261,3.5329,3.5365,3.5365,3.5477,3.5542,3.5542,3.5701,3.5861,3.6005,3.6195,3.6429,3.6677,3.6677,3.6832,3.7173,3.7639,3.8339,3.932,3.9563,4.0321,4.1489,4.1489,4.1522,4.1588,4.1588,4.1588,4.1621,4.1736,4.1833,4.1898,4.2109,4.2334,4.2539,4.2805,4.3052,4.3394,4.4271,4.4956,4.5531,2.314,2.389,2.4919,2.6862,2.806,2.921,3.0719,3.2658,3.4377,3.5474,3.6995,3.8606,4.0342,4.1029,4.1892,4.3189,4.4416,4.518,4.5287,4.6551,4.7304,4.7357,4.7911,4.7937,4.7357,4.8226,4.8368,4.7841,4.7529,4.7112,4.6526,4.5914,4.5755,4.5967,4.5967,4.6139,4.6469,4.6469,4.579,4.4705,4.4705,4.3972,4.2887,4.2887,4.2582,4.2079,4.2079,4.1746,4.1298,4.1193,4.0474,3.9416,3.8266,3.79,3.7946,3.8122,3.8213,3.8336,3.8774,3.8908,3.8952,3.9064,3.8228,3.7408,3.7607,3.7615,3.7725,3.8127,3.8366,3.8303,3.7718,3.7284,3.6792,3.6173,3.5446,3.499,3.499,3.499,3.499,3.499,3.5034,3.5064,3.5064,3.5424,3.5799,3.6091,3.6155,3.6204,3.6347,3.6347,3.6733,3.7537,3.7727,3.8456,3.9776,3.9955,4.0464,4.129,4.129,4.139,4.1555,4.1555,4.1588,4.1588,4.1588,4.1703,4.1866,4.1898,4.2093,4.2381,4.2539,4.2805,4.3195,4.4068,4.4533,4.4917,2.314,2.407,2.515,2.6911,2.8219,2.9521,3.0965,3.2815,3.4619,3.6271,3.7707,3.9086,4.0573,4.1482,4.2132,4.2681,4.3814,4.4899,4.5788,4.6544,4.7314,4.7976,4.812,4.8133,4.8002,4.8178,4.8249,4.8118,4.7599,4.7135,4.6822,4.6185,4.5832,4.5702,4.5702,4.5861,4.6126,4.6126,4.557,4.4705,4.4705,4.3972,4.2887,4.2887,4.2582,4.2079,4.2079,4.1746,4.118,4.0278,3.9808,3.9416,3.8266,3.79,3.7946,3.8122,3.8362,3.8589,3.8819,3.9056,3.92,3.9121,3.8546,3.8047,3.826,3.7929,3.7725,3.8127,3.8366,3.8472,3.8303,3.7915,3.7573,3.7426,3.6438,3.5686,3.5686,3.5686,3.5686,3.5686,3.6094,3.6404,3.6404,3.6625,3.6831,3.7087,3.7236,3.7404,3.7521,3.7521,3.7682,3.8032,3.857,3.91,3.9542,4.01,4.0625,4.1135,4.1135,4.1221,4.1357,4.1357,4.1456,4.1588,4.1588,4.1621,4.167,4.1833,4.2012,4.2206,4.2508,4.2728,4.3008,4.3462,4.4012,4.4731,2.3277,2.4468,2.5781,2.7262,2.8538,2.9984,3.1715,3.3113,3.4732,3.6866,3.8023,3.9264,4.0631,4.146,4.2127,4.2854,4.3992,4.5062,4.5911,4.6779,4.7464,4.7925,4.8127,4.8185,4.8185,4.8185,4.8185,4.8185,4.7623,4.7092,4.6685,4.6107,4.5693,4.5395,4.5395,4.5542,4.5808,4.5967,4.5387,4.4489,4.4654,4.3972,4.2887,4.2887,4.2582,4.2079,4.2079,4.1746,4.1141,3.9991,3.9612,3.9416,3.8266,3.7979,3.8103,3.8317,3.8575,3.88,3.9011,3.9203,3.9356,3.9479,3.9084,3.8602,3.8516,3.8029,3.7725,3.8127,3.8277,3.8366,3.8366,3.7916,3.7565,3.7565,3.6731,3.6087,3.6087,3.6087,3.6087,3.6087,3.638,3.6585,3.669,3.681,3.6985,3.7248,3.7351,3.7537,3.7793,3.7793,3.8046,3.8583,3.8918,3.9371,3.9864,4.0217,4.0539,4.0814,4.0916,4.1052,4.1205,4.1205,4.1239,4.1355,4.1355,4.1406,4.1456,4.1571,4.1784,4.2045,4.2286,4.2539,4.2806,4.3129,4.3833,4.471,2.3398,2.4911,2.6484,2.7713,2.9012,3.0565,3.249,3.3588,3.5049,3.7354,3.8328,3.935,4.0664,4.1282,4.2111,4.3263,4.433,4.5219,4.5834,4.6911,4.7586,4.769,4.7938,4.8127,4.8185,4.8185,4.8185,4.8185,4.7715,4.714,4.6473,4.6003,4.5511,4.5126,4.5126,4.5287,4.5542,4.5755,4.523,4.4208,4.4489,4.3923,4.2887,4.2887,4.2582,4.2079,4.2079,4.1746,4.1141,3.9991,3.9612,3.9416,3.8266,3.8057,3.8258,3.8512,3.8756,3.8953,3.9247,3.9305,3.9394,3.9865,3.9554,3.9019,3.8703,3.8186,3.7816,3.8081,3.8165,3.8202,3.8202,3.7796,3.7462,3.7462,3.691,3.6475,3.6475,3.6439,3.6403,3.6403,3.6469,3.6599,3.6793,3.6864,3.6992,3.731,3.7381,3.759,3.7901,3.7985,3.8344,3.9092,3.9107,3.9469,4.0242,4.0242,4.0331,4.047,4.0627,4.0848,4.1034,4.1034,4.1068,4.1117,4.1117,4.1153,4.1256,4.129,4.1505,4.1866,4.1996,4.227,4.2602,4.2959,4.3673,4.4506,2.3398,2.5058,2.6684,2.7703,2.9485,3.127,3.2801,3.426,3.5955,3.7957,3.8889,3.9748,4.0614,4.1227,4.2111,4.3263,4.3995,4.4765,4.5834,4.6535,4.7138,4.769,4.7749,4.788,4.8185,4.8185,4.8185,4.8185,4.8107,4.7532,4.6473,4.6408,4.578,4.4789,4.4789,4.4951,4.5234,4.5287,4.4877,4.4208,4.4259,4.371,4.2887,4.2887,4.2582,4.2079,4.2079,4.1746,4.1141,3.9991,3.9612,3.9416,3.8266,3.8057,3.8258,3.8512,3.8756,3.8953,3.9247,3.9305,3.9394,3.9865,3.9554,3.9088,3.9108,3.8737,3.8306,3.8007,3.8066,3.8202,3.8202,3.813,3.8086,3.8086,3.7564,3.7172,3.7172,3.7011,3.6901,3.6901,3.7227,3.7519,3.7708,3.7881,3.8053,3.8289,3.8619,3.8837,3.8909,3.9068,3.9292,3.9596,3.9596,3.9763,4.0046,4.0046,4.0137,4.0347,4.0331,4.0539,4.0833,4.0833,4.095,4.1117,4.1117,4.1117,4.1135,4.1239,4.1423,4.167,4.185,4.2141,4.2476,4.2929,4.33,4.3581,2.4227,2.5731,2.7099,2.8065,2.9912,3.1634,3.2908,3.4414,3.607,3.8073,3.8824,3.9613,4.0605,4.1483,4.2436,4.3465,4.4209,4.5051,4.6078,4.6534,4.6959,4.7383,4.7573,4.788,4.8185,4.8185,4.8185,4.8185,4.8185,4.7597,4.6473,4.6473,4.5859,4.4668,4.4668,4.4789,4.4951,4.5126,4.4666,4.3786,4.4055,4.361,4.2693,4.2838,4.2582,4.2079,4.1746,4.1511,4.1141,3.9991,3.9612,3.9416,3.8266,3.8161,3.8453,3.8557,3.8859,3.9145,3.9247,3.9305,3.9394,3.9865,3.9802,3.9489,3.9127,3.8975,3.8692,3.8031,3.8066,3.8202,3.8202,3.8202,3.8202,3.8202,3.7984,3.7773,3.7639,3.7564,3.7437,3.7361,3.7491,3.7625,3.7739,3.7915,3.8104,3.8329,3.859,3.8848,3.9104,3.9177,3.9337,3.9517,3.9517,3.9625,3.9839,3.9839,3.991,4.0137,4.0137,4.0296,4.0627,4.0627,4.0662,4.0746,4.0746,4.0814,4.095,4.1003,4.1189,4.1456,4.1637,4.2061,4.2571,4.2959,4.3235,4.3402]}]]